<?xml version="1.0" encoding="UTF-8" standalone="no" ?><gpx xmlns="http://www.topografix.com/GPX/1/1" xmlns:gpxx="http://www.garmin.com/xmlschemas/GpxExtensions/v3" xmlns:wptx1="http://www.garmin.com/xmlschemas/WaypointExtension/v1" xmlns:gpxtpx="http://www.garmin.com/xmlschemas/TrackPointExtension/v1" creator="GuideVTT.com" version="1.1" xmlns:xsi="http://www.w3.org/2001/XMLSchema-instance" xsi:schemaLocation="http://www.topografix.com/GPX/1/1 http://www.topografix.com/GPX/1/1/gpx.xsd http://www.garmin.com/xmlschemas/GpxExtensions/v3 http://www8.garmin.com/xmlschemas/GpxExtensionsv3.xsd http://www.garmin.com/xmlschemas/WaypointExtension/v1 http://www8.garmin.com/xmlschemas/WaypointExtensionv1.xsd http://www.garmin.com/xmlschemas/TrackPointExtension/v1 http://www.garmin.com/xmlschemas/TrackPointExtensionv1.xsd">
<metadata><link href="http://www.garmin.com"><text>Garmin International</text></link><time>2013-06-22T15:13:50Z</time></metadata>
<trk><name>viville_20080819.gpx</name><extensions><gpxx:TrackExtension><gpxx:DisplayColor>Cyan</gpxx:DisplayColor></gpxx:TrackExtension></extensions><trkseg>
<trkpt lat="49.67882220" lon="5.79629050"><ele></ele><time>2014-6-21T18:42:28Z</time></trkpt>
<trkpt lat="49.67880320" lon="5.79629780"><ele></ele><time>2014-6-21T18:42:31Z</time></trkpt>
<trkpt lat="49.67878650" lon="5.79631040"><ele></ele><time>2014-6-21T18:42:34Z</time></trkpt>
<trkpt lat="49.67876590" lon="5.79631450"><ele></ele><time>2014-6-21T18:42:37Z</time></trkpt>
<trkpt lat="49.67845780" lon="5.79656340"><ele></ele><time>2014-6-21T18:42:40Z</time></trkpt>
<trkpt lat="49.67814830" lon="5.79672430"><ele></ele><time>2014-6-21T18:42:43Z</time></trkpt>
<trkpt lat="49.67774060" lon="5.79692520"><ele></ele><time>2014-6-21T18:42:46Z</time></trkpt>
<trkpt lat="49.67734130" lon="5.79686590"><ele></ele><time>2014-6-21T18:42:49Z</time></trkpt>
<trkpt lat="49.67712160" lon="5.79617490"><ele></ele><time>2014-6-21T18:42:52Z</time></trkpt>
<trkpt lat="49.67695440" lon="5.79547540"><ele></ele><time>2014-6-21T18:42:55Z</time></trkpt>
<trkpt lat="49.67642140" lon="5.79410380"><ele></ele><time>2014-6-21T18:42:58Z</time></trkpt>
<trkpt lat="49.67600000" lon="5.79322540"><ele></ele><time>2014-6-21T18:43:1Z</time></trkpt>
<trkpt lat="49.67538800" lon="5.79233200"><ele></ele><time>2014-6-21T18:43:4Z</time></trkpt>
<trkpt lat="49.67516330" lon="5.79207920"><ele></ele><time>2014-6-21T18:43:7Z</time></trkpt>
<trkpt lat="49.67521780" lon="5.79195830"><ele></ele><time>2014-6-21T18:43:10Z</time></trkpt>
<trkpt lat="49.67553860" lon="5.79139300"><ele></ele><time>2014-6-21T18:43:13Z</time></trkpt>
<trkpt lat="49.67590680" lon="5.79074430"><ele></ele><time>2014-6-21T18:43:16Z</time></trkpt>
<trkpt lat="49.67624400" lon="5.78985460"><ele></ele><time>2014-6-21T18:43:19Z</time></trkpt>
<trkpt lat="49.67655580" lon="5.78881520"><ele></ele><time>2014-6-21T18:43:22Z</time></trkpt>
<trkpt lat="49.67682630" lon="5.78782010"><ele></ele><time>2014-6-21T18:43:25Z</time></trkpt>
<trkpt lat="49.67703730" lon="5.78685420"><ele></ele><time>2014-6-21T18:43:28Z</time></trkpt>
<trkpt lat="49.67710810" lon="5.78624130"><ele></ele><time>2014-6-21T18:43:31Z</time></trkpt>
<trkpt lat="49.67736000" lon="5.78565650"><ele></ele><time>2014-6-21T18:43:34Z</time></trkpt>
<trkpt lat="49.67759550" lon="5.78524450"><ele></ele><time>2014-6-21T18:43:37Z</time></trkpt>
<trkpt lat="49.67772490" lon="5.78499780"><ele></ele><time>2014-6-21T18:43:40Z</time></trkpt>
<trkpt lat="49.67796330" lon="5.78453110"><ele></ele><time>2014-6-21T18:43:43Z</time></trkpt>
<trkpt lat="49.67801410" lon="5.78388760"><ele></ele><time>2014-6-21T18:43:46Z</time></trkpt>
<trkpt lat="49.67805890" lon="5.78332020"><ele></ele><time>2014-6-21T18:43:49Z</time></trkpt>
<trkpt lat="49.67806400" lon="5.78325630"><ele></ele><time>2014-6-21T18:43:52Z</time></trkpt>
<trkpt lat="49.67810960" lon="5.78305750"><ele></ele><time>2014-6-21T18:43:55Z</time></trkpt>
<trkpt lat="49.67835500" lon="5.78248070"><ele></ele><time>2014-6-21T18:43:58Z</time></trkpt>
<trkpt lat="49.67840270" lon="5.78236160"><ele></ele><time>2014-6-21T18:44:1Z</time></trkpt>
<trkpt lat="49.67859760" lon="5.78187920"><ele></ele><time>2014-6-21T18:44:4Z</time></trkpt>
<trkpt lat="49.67876340" lon="5.78154750"><ele></ele><time>2014-6-21T18:44:7Z</time></trkpt>
<trkpt lat="49.67882860" lon="5.78141700"><ele></ele><time>2014-6-21T18:44:10Z</time></trkpt>
<trkpt lat="49.67882860" lon="5.78141700"><ele></ele><time>2014-6-21T18:44:13Z</time></trkpt>
<trkpt lat="49.67882860" lon="5.78141700"><ele></ele><time>2014-6-21T18:44:16Z</time></trkpt>
<trkpt lat="49.67876660" lon="5.78121600"><ele></ele><time>2014-6-21T18:44:19Z</time></trkpt>
<trkpt lat="49.67877780" lon="5.78115490"><ele></ele><time>2014-6-21T18:44:22Z</time></trkpt>
<trkpt lat="49.67900660" lon="5.78048510"><ele></ele><time>2014-6-21T18:44:25Z</time></trkpt>
<trkpt lat="49.67933060" lon="5.77988700"><ele></ele><time>2014-6-21T18:44:28Z</time></trkpt>
<trkpt lat="49.67963300" lon="5.77923590"><ele></ele><time>2014-6-21T18:44:31Z</time></trkpt>
<trkpt lat="49.67979860" lon="5.77838330"><ele></ele><time>2014-6-21T18:44:34Z</time></trkpt>
<trkpt lat="49.67984030" lon="5.77778750"><ele></ele><time>2014-6-21T18:44:37Z</time></trkpt>
<trkpt lat="49.67985140" lon="5.77750020"><ele></ele><time>2014-6-21T18:44:40Z</time></trkpt>
<trkpt lat="49.67993410" lon="5.77643680"><ele></ele><time>2014-6-21T18:44:43Z</time></trkpt>
<trkpt lat="49.68002060" lon="5.77561580"><ele></ele><time>2014-6-21T18:44:46Z</time></trkpt>
<trkpt lat="49.68017180" lon="5.77533430"><ele></ele><time>2014-6-21T18:44:49Z</time></trkpt>
<trkpt lat="49.68020960" lon="5.77482110"><ele></ele><time>2014-6-21T18:44:52Z</time></trkpt>
<trkpt lat="49.68009010" lon="5.77383150"><ele></ele><time>2014-6-21T18:44:55Z</time></trkpt>
<trkpt lat="49.67996650" lon="5.77300380"><ele></ele><time>2014-6-21T18:44:58Z</time></trkpt>
<trkpt lat="49.67982910" lon="5.77217960"><ele></ele><time>2014-6-21T18:45:1Z</time></trkpt>
<trkpt lat="49.67970800" lon="5.77170580"><ele></ele><time>2014-6-21T18:45:4Z</time></trkpt>
<trkpt lat="49.68011390" lon="5.77148690"><ele></ele><time>2014-6-21T18:45:7Z</time></trkpt>
<trkpt lat="49.68056350" lon="5.77124480"><ele></ele><time>2014-6-21T18:45:10Z</time></trkpt>
<trkpt lat="49.68060390" lon="5.77122300"><ele></ele><time>2014-6-21T18:45:13Z</time></trkpt>
<trkpt lat="49.68145900" lon="5.77077770"><ele></ele><time>2014-6-21T18:45:16Z</time></trkpt>
<trkpt lat="49.68234920" lon="5.77065900"><ele></ele><time>2014-6-21T18:45:19Z</time></trkpt>
<trkpt lat="49.68306730" lon="5.77070390"><ele></ele><time>2014-6-21T18:45:22Z</time></trkpt>
<trkpt lat="49.68397500" lon="5.77060220"><ele></ele><time>2014-6-21T18:45:25Z</time></trkpt>
<trkpt lat="49.68483610" lon="5.77015890"><ele></ele><time>2014-6-21T18:45:28Z</time></trkpt>
<trkpt lat="49.68593480" lon="5.76943890"><ele></ele><time>2014-6-21T18:45:31Z</time></trkpt>
<trkpt lat="49.68615260" lon="5.76925750"><ele></ele><time>2014-6-21T18:45:34Z</time></trkpt>
<trkpt lat="49.68658230" lon="5.76900170"><ele></ele><time>2014-6-21T18:45:37Z</time></trkpt>
<trkpt lat="49.68659620" lon="5.76899410"><ele></ele><time>2014-6-21T18:45:40Z</time></trkpt>
<trkpt lat="49.68687450" lon="5.76894830"><ele></ele><time>2014-6-21T18:45:43Z</time></trkpt>
<trkpt lat="49.68734980" lon="5.76897620"><ele></ele><time>2014-6-21T18:45:46Z</time></trkpt>
<trkpt lat="49.68791320" lon="5.76920120"><ele></ele><time>2014-6-21T18:45:49Z</time></trkpt>
<trkpt lat="49.68836310" lon="5.76940560"><ele></ele><time>2014-6-21T18:45:52Z</time></trkpt>
<trkpt lat="49.68888760" lon="5.76941010"><ele></ele><time>2014-6-21T18:45:55Z</time></trkpt>
<trkpt lat="49.68902060" lon="5.76933030"><ele></ele><time>2014-6-21T18:45:58Z</time></trkpt>
<trkpt lat="49.68928870" lon="5.76916940"><ele></ele><time>2014-6-21T18:46:1Z</time></trkpt>
<trkpt lat="49.68964820" lon="5.76908420"><ele></ele><time>2014-6-21T18:46:4Z</time></trkpt>
<trkpt lat="49.68996230" lon="5.76901910"><ele></ele><time>2014-6-21T18:46:7Z</time></trkpt>
<trkpt lat="49.69049210" lon="5.76890950"><ele></ele><time>2014-6-21T18:46:10Z</time></trkpt>
<trkpt lat="49.69067730" lon="5.76886300"><ele></ele><time>2014-6-21T18:46:13Z</time></trkpt>
<trkpt lat="49.69067730" lon="5.76886300"><ele></ele><time>2014-6-21T18:46:16Z</time></trkpt>
<trkpt lat="49.69067730" lon="5.76886300"><ele></ele><time>2014-6-21T18:46:19Z</time></trkpt>
<trkpt lat="49.69067730" lon="5.76886300"><ele></ele><time>2014-6-21T18:46:22Z</time></trkpt>
<trkpt lat="49.69067730" lon="5.76886300"><ele></ele><time>2014-6-21T18:46:25Z</time></trkpt>
<trkpt lat="49.69067730" lon="5.76886300"><ele></ele><time>2014-6-21T18:46:28Z</time></trkpt>
<trkpt lat="49.69067730" lon="5.76886300"><ele></ele><time>2014-6-21T18:46:31Z</time></trkpt>
<trkpt lat="49.69067730" lon="5.76886300"><ele></ele><time>2014-6-21T18:46:34Z</time></trkpt>
<trkpt lat="49.69067730" lon="5.76886300"><ele></ele><time>2014-6-21T18:46:37Z</time></trkpt>
<trkpt lat="49.69067730" lon="5.76886300"><ele></ele><time>2014-6-21T18:46:40Z</time></trkpt>
<trkpt lat="49.69067730" lon="5.76886300"><ele></ele><time>2014-6-21T18:46:43Z</time></trkpt>
<trkpt lat="49.69067730" lon="5.76886300"><ele></ele><time>2014-6-21T18:46:46Z</time></trkpt>
<trkpt lat="49.69067730" lon="5.76886300"><ele></ele><time>2014-6-21T18:46:49Z</time></trkpt>
<trkpt lat="49.69067730" lon="5.76886300"><ele></ele><time>2014-6-21T18:46:52Z</time></trkpt>
<trkpt lat="49.69083270" lon="5.76881980"><ele></ele><time>2014-6-21T18:46:55Z</time></trkpt>
<trkpt lat="49.69114080" lon="5.76873410"><ele></ele><time>2014-6-21T18:46:58Z</time></trkpt>
<trkpt lat="49.69118370" lon="5.76872220"><ele></ele><time>2014-6-21T18:47:1Z</time></trkpt>
<trkpt lat="49.69193750" lon="5.76841900"><ele></ele><time>2014-6-21T18:47:4Z</time></trkpt>
<trkpt lat="49.69258220" lon="5.76813970"><ele></ele><time>2014-6-21T18:47:7Z</time></trkpt>
<trkpt lat="49.69262120" lon="5.76812270"><ele></ele><time>2014-6-21T18:47:10Z</time></trkpt>
<trkpt lat="49.69297780" lon="5.76774060"><ele></ele><time>2014-6-21T18:47:13Z</time></trkpt>
<trkpt lat="49.69313590" lon="5.76777200"><ele></ele><time>2014-6-21T18:47:16Z</time></trkpt>
<trkpt lat="49.69319840" lon="5.76755930"><ele></ele><time>2014-6-21T18:47:19Z</time></trkpt>
<trkpt lat="49.69387630" lon="5.76747890"><ele></ele><time>2014-6-21T18:47:22Z</time></trkpt>
<trkpt lat="49.69423630" lon="5.76747890"><ele></ele><time>2014-6-21T18:47:25Z</time></trkpt>
<trkpt lat="49.69463300" lon="5.76747890"><ele></ele><time>2014-6-21T18:47:28Z</time></trkpt>
<trkpt lat="49.69522470" lon="5.76747890"><ele></ele><time>2014-6-21T18:47:31Z</time></trkpt>
<trkpt lat="49.69566570" lon="5.76747890"><ele></ele><time>2014-6-21T18:47:34Z</time></trkpt>
<trkpt lat="49.69601100" lon="5.76745740"><ele></ele><time>2014-6-21T18:47:37Z</time></trkpt>
<trkpt lat="49.69624380" lon="5.76744880"><ele></ele><time>2014-6-21T18:47:40Z</time></trkpt>
<trkpt lat="49.69638710" lon="5.76755110"><ele></ele><time>2014-6-21T18:47:43Z</time></trkpt>
<trkpt lat="49.69638710" lon="5.76755110"><ele></ele><time>2014-6-21T18:47:46Z</time></trkpt>
<trkpt lat="49.69638710" lon="5.76755110"><ele></ele><time>2014-6-21T18:47:49Z</time></trkpt>
<trkpt lat="49.69652650" lon="5.76734560"><ele></ele><time>2014-6-21T18:47:52Z</time></trkpt>
<trkpt lat="49.69652650" lon="5.76722060"><ele></ele><time>2014-6-21T18:47:55Z</time></trkpt>
<trkpt lat="49.69671730" lon="5.76692190"><ele></ele><time>2014-6-21T18:47:58Z</time></trkpt>
<trkpt lat="49.69705060" lon="5.76677390"><ele></ele><time>2014-6-21T18:48:1Z</time></trkpt>
<trkpt lat="49.69737450" lon="5.76656910"><ele></ele><time>2014-6-21T18:48:4Z</time></trkpt>
<trkpt lat="49.69738400" lon="5.76655710"><ele></ele><time>2014-6-21T18:48:7Z</time></trkpt>
<trkpt lat="49.69748890" lon="5.76706980"><ele></ele><time>2014-6-21T18:48:10Z</time></trkpt>
<trkpt lat="49.69750850" lon="5.76773270"><ele></ele><time>2014-6-21T18:48:13Z</time></trkpt>
<trkpt lat="49.69780250" lon="5.76843250"><ele></ele><time>2014-6-21T18:48:16Z</time></trkpt>
<trkpt lat="49.69805600" lon="5.76900080"><ele></ele><time>2014-6-21T18:48:19Z</time></trkpt>
<trkpt lat="49.69845450" lon="5.76957770"><ele></ele><time>2014-6-21T18:48:22Z</time></trkpt>
<trkpt lat="49.69893410" lon="5.77009210"><ele></ele><time>2014-6-21T18:48:25Z</time></trkpt>
<trkpt lat="49.69943090" lon="5.77048610"><ele></ele><time>2014-6-21T18:48:28Z</time></trkpt>
<trkpt lat="49.70000100" lon="5.77088950"><ele></ele><time>2014-6-21T18:48:31Z</time></trkpt>
<trkpt lat="49.70020430" lon="5.77103370"><ele></ele><time>2014-6-21T18:48:34Z</time></trkpt>
<trkpt lat="49.70033580" lon="5.77112670"><ele></ele><time>2014-6-21T18:48:37Z</time></trkpt>
<trkpt lat="49.70101470" lon="5.77131400"><ele></ele><time>2014-6-21T18:48:40Z</time></trkpt>
<trkpt lat="49.70171680" lon="5.77151100"><ele></ele><time>2014-6-21T18:48:43Z</time></trkpt>
<trkpt lat="49.70191930" lon="5.77158410"><ele></ele><time>2014-6-21T18:48:46Z</time></trkpt>
<trkpt lat="49.70252440" lon="5.77180260"><ele></ele><time>2014-6-21T18:48:49Z</time></trkpt>
<trkpt lat="49.70291170" lon="5.77213830"><ele></ele><time>2014-6-21T18:48:52Z</time></trkpt>
<trkpt lat="49.70316790" lon="5.77265070"><ele></ele><time>2014-6-21T18:48:55Z</time></trkpt>
<trkpt lat="49.70344480" lon="5.77320430"><ele></ele><time>2014-6-21T18:48:58Z</time></trkpt>
<trkpt lat="49.70347300" lon="5.77326080"><ele></ele><time>2014-6-21T18:49:1Z</time></trkpt>
<trkpt lat="49.70371150" lon="5.77373770"><ele></ele><time>2014-6-21T18:49:4Z</time></trkpt>
<trkpt lat="49.70418510" lon="5.77442660"><ele></ele><time>2014-6-21T18:49:7Z</time></trkpt>
<trkpt lat="49.70474000" lon="5.77521700"><ele></ele><time>2014-6-21T18:49:10Z</time></trkpt>
<trkpt lat="49.70492400" lon="5.77547910"><ele></ele><time>2014-6-21T18:49:13Z</time></trkpt>
<trkpt lat="49.70518680" lon="5.77607100"><ele></ele><time>2014-6-21T18:49:16Z</time></trkpt>
<trkpt lat="49.70515860" lon="5.77638080"><ele></ele><time>2014-6-21T18:49:19Z</time></trkpt>
<trkpt lat="49.70494470" lon="5.77691190"><ele></ele><time>2014-6-21T18:49:22Z</time></trkpt>
<trkpt lat="49.70499230" lon="5.77745960"><ele></ele><time>2014-6-21T18:49:25Z</time></trkpt>
<trkpt lat="49.70491850" lon="5.77816860"><ele></ele><time>2014-6-21T18:49:28Z</time></trkpt>
<trkpt lat="49.70470640" lon="5.77871870"><ele></ele><time>2014-6-21T18:49:31Z</time></trkpt>
<trkpt lat="49.70456750" lon="5.77938980"><ele></ele><time>2014-6-21T18:49:34Z</time></trkpt>
<trkpt lat="49.70446590" lon="5.78004620"><ele></ele><time>2014-6-21T18:49:37Z</time></trkpt>
<trkpt lat="49.70460080" lon="5.78022710"><ele></ele><time>2014-6-21T18:49:40Z</time></trkpt>
<trkpt lat="49.70531910" lon="5.78069690"><ele></ele><time>2014-6-21T18:49:43Z</time></trkpt>
<trkpt lat="49.70587290" lon="5.78109050"><ele></ele><time>2014-6-21T18:49:46Z</time></trkpt>
<trkpt lat="49.70646590" lon="5.78154230"><ele></ele><time>2014-6-21T18:49:49Z</time></trkpt>
<trkpt lat="49.70699220" lon="5.78206450"><ele></ele><time>2014-6-21T18:49:52Z</time></trkpt>
<trkpt lat="49.70728400" lon="5.78264250"><ele></ele><time>2014-6-21T18:49:55Z</time></trkpt>
<trkpt lat="49.70734870" lon="5.78317520"><ele></ele><time>2014-6-21T18:49:58Z</time></trkpt>
<trkpt lat="49.70740910" lon="5.78355430"><ele></ele><time>2014-6-21T18:50:1Z</time></trkpt>
<trkpt lat="49.70740910" lon="5.78355430"><ele></ele><time>2014-6-21T18:50:4Z</time></trkpt>
<trkpt lat="49.70740910" lon="5.78355430"><ele></ele><time>2014-6-21T18:50:7Z</time></trkpt>
<trkpt lat="49.70753640" lon="5.78364390"><ele></ele><time>2014-6-21T18:50:10Z</time></trkpt>
<trkpt lat="49.70761040" lon="5.78367620"><ele></ele><time>2014-6-21T18:50:13Z</time></trkpt>
<trkpt lat="49.70775470" lon="5.78373890"><ele></ele><time>2014-6-21T18:50:16Z</time></trkpt>
<trkpt lat="49.70779050" lon="5.78375450"><ele></ele><time>2014-6-21T18:50:19Z</time></trkpt>
<trkpt lat="49.70779050" lon="5.78375450"><ele></ele><time>2014-6-21T18:50:22Z</time></trkpt>
<trkpt lat="49.70779050" lon="5.78375450"><ele></ele><time>2014-6-21T18:50:25Z</time></trkpt>
<trkpt lat="49.70842710" lon="5.78403140"><ele></ele><time>2014-6-21T18:50:28Z</time></trkpt>
<trkpt lat="49.70906380" lon="5.78423860"><ele></ele><time>2014-6-21T18:50:31Z</time></trkpt>
<trkpt lat="49.70963440" lon="5.78447120"><ele></ele><time>2014-6-21T18:50:34Z</time></trkpt>
<trkpt lat="49.70981110" lon="5.78467030"><ele></ele><time>2014-6-21T18:50:37Z</time></trkpt>
<trkpt lat="49.70987180" lon="5.78477140"><ele></ele><time>2014-6-21T18:50:40Z</time></trkpt>
<trkpt lat="49.70987180" lon="5.78477140"><ele></ele><time>2014-6-21T18:50:43Z</time></trkpt>
<trkpt lat="49.70987320" lon="5.78477380"><ele></ele><time>2014-6-21T18:50:46Z</time></trkpt>
<trkpt lat="49.70987320" lon="5.78477380"><ele></ele><time>2014-6-21T18:50:49Z</time></trkpt>
<trkpt lat="49.70987320" lon="5.78477380"><ele></ele><time>2014-6-21T18:50:52Z</time></trkpt>
<trkpt lat="49.70987320" lon="5.78477380"><ele></ele><time>2014-6-21T18:50:55Z</time></trkpt>
<trkpt lat="49.71000940" lon="5.78531560"><ele></ele><time>2014-6-21T18:50:58Z</time></trkpt>
<trkpt lat="49.71002790" lon="5.78539770"><ele></ele><time>2014-6-21T18:51:1Z</time></trkpt>
<trkpt lat="49.71006270" lon="5.78555180"><ele></ele><time>2014-6-21T18:51:4Z</time></trkpt>
<trkpt lat="49.71013250" lon="5.78586050"><ele></ele><time>2014-6-21T18:51:7Z</time></trkpt>
<trkpt lat="49.71017230" lon="5.78603680"><ele></ele><time>2014-6-21T18:51:10Z</time></trkpt>
<trkpt lat="49.71014740" lon="5.78648640"><ele></ele><time>2014-6-21T18:51:13Z</time></trkpt>
<trkpt lat="49.71008780" lon="5.78670500"><ele></ele><time>2014-6-21T18:51:16Z</time></trkpt>
<trkpt lat="49.71007840" lon="5.78670610"><ele></ele><time>2014-6-21T18:51:19Z</time></trkpt>
<trkpt lat="49.71007840" lon="5.78670610"><ele></ele><time>2014-6-21T18:51:22Z</time></trkpt>
<trkpt lat="49.71000190" lon="5.78671560"><ele></ele><time>2014-6-21T18:51:25Z</time></trkpt>
<trkpt lat="49.71000190" lon="5.78671560"><ele></ele><time>2014-6-21T18:51:28Z</time></trkpt>
<trkpt lat="49.71000190" lon="5.78671560"><ele></ele><time>2014-6-21T18:51:31Z</time></trkpt>
<trkpt lat="49.70964350" lon="5.78683430"><ele></ele><time>2014-6-21T18:51:34Z</time></trkpt>
<trkpt lat="49.70935180" lon="5.78708440"><ele></ele><time>2014-6-21T18:51:37Z</time></trkpt>
<trkpt lat="49.70900580" lon="5.78737850"><ele></ele><time>2014-6-21T18:51:40Z</time></trkpt>
<trkpt lat="49.70866490" lon="5.78766430"><ele></ele><time>2014-6-21T18:51:43Z</time></trkpt>
<trkpt lat="49.70827890" lon="5.78798800"><ele></ele><time>2014-6-21T18:51:46Z</time></trkpt>
<trkpt lat="49.70788080" lon="5.78832200"><ele></ele><time>2014-6-21T18:51:49Z</time></trkpt>
<trkpt lat="49.70747210" lon="5.78851050"><ele></ele><time>2014-6-21T18:51:52Z</time></trkpt>
<trkpt lat="49.70699080" lon="5.78869640"><ele></ele><time>2014-6-21T18:51:55Z</time></trkpt>
<trkpt lat="49.70665360" lon="5.78882660"><ele></ele><time>2014-6-21T18:51:58Z</time></trkpt>
<trkpt lat="49.70643550" lon="5.78891090"><ele></ele><time>2014-6-21T18:52:1Z</time></trkpt>
<trkpt lat="49.70559880" lon="5.78931570"><ele></ele><time>2014-6-21T18:52:4Z</time></trkpt>
<trkpt lat="49.70506770" lon="5.78965360"><ele></ele><time>2014-6-21T18:52:7Z</time></trkpt>
<trkpt lat="49.70439020" lon="5.78981970"><ele></ele><time>2014-6-21T18:52:10Z</time></trkpt>
<trkpt lat="49.70356530" lon="5.78973120"><ele></ele><time>2014-6-21T18:52:13Z</time></trkpt>
<trkpt lat="49.70269930" lon="5.78960450"><ele></ele><time>2014-6-21T18:52:16Z</time></trkpt>
<trkpt lat="49.70189260" lon="5.79005100"><ele></ele><time>2014-6-21T18:52:19Z</time></trkpt>
<trkpt lat="49.70128420" lon="5.79061890"><ele></ele><time>2014-6-21T18:52:22Z</time></trkpt>
<trkpt lat="49.70090610" lon="5.79116490"><ele></ele><time>2014-6-21T18:52:25Z</time></trkpt>
<trkpt lat="49.70075480" lon="5.79143380"><ele></ele><time>2014-6-21T18:52:28Z</time></trkpt>
<trkpt lat="49.70047150" lon="5.79193850"><ele></ele><time>2014-6-21T18:52:31Z</time></trkpt>
<trkpt lat="49.69975170" lon="5.79322050"><ele></ele><time>2014-6-21T18:52:34Z</time></trkpt>
<trkpt lat="49.69955570" lon="5.79356950"><ele></ele><time>2014-6-21T18:52:37Z</time></trkpt>
<trkpt lat="49.69935460" lon="5.79372680"><ele></ele><time>2014-6-21T18:52:40Z</time></trkpt>
<trkpt lat="49.69852180" lon="5.79425880"><ele></ele><time>2014-6-21T18:52:43Z</time></trkpt>
<trkpt lat="49.69805400" lon="5.79455760"><ele></ele><time>2014-6-21T18:52:46Z</time></trkpt>
<trkpt lat="49.69785690" lon="5.79490180"><ele></ele><time>2014-6-21T18:52:49Z</time></trkpt>
<trkpt lat="49.69754460" lon="5.79507520"><ele></ele><time>2014-6-21T18:52:52Z</time></trkpt>
<trkpt lat="49.69718830" lon="5.79539870"><ele></ele><time>2014-6-21T18:52:55Z</time></trkpt>
<trkpt lat="49.69673190" lon="5.79620360"><ele></ele><time>2014-6-21T18:52:58Z</time></trkpt>
<trkpt lat="49.69650940" lon="5.79667610"><ele></ele><time>2014-6-21T18:53:1Z</time></trkpt>
<trkpt lat="49.69584260" lon="5.79777300"><ele></ele><time>2014-6-21T18:53:4Z</time></trkpt>
<trkpt lat="49.69538390" lon="5.79861140"><ele></ele><time>2014-6-21T18:53:7Z</time></trkpt>
<trkpt lat="49.69528660" lon="5.79881540"><ele></ele><time>2014-6-21T18:53:10Z</time></trkpt>
<trkpt lat="49.69521740" lon="5.79897950"><ele></ele><time>2014-6-21T18:53:13Z</time></trkpt>
<trkpt lat="49.69519960" lon="5.79909290"><ele></ele><time>2014-6-21T18:53:16Z</time></trkpt>
<trkpt lat="49.69508820" lon="5.79970530"><ele></ele><time>2014-6-21T18:53:19Z</time></trkpt>
<trkpt lat="49.69495690" lon="5.80033480"><ele></ele><time>2014-6-21T18:53:22Z</time></trkpt>
<trkpt lat="49.69477820" lon="5.80048320"><ele></ele><time>2014-6-21T18:53:25Z</time></trkpt>
<trkpt lat="49.69467280" lon="5.80046620"><ele></ele><time>2014-6-21T18:53:28Z</time></trkpt>
<trkpt lat="49.69463830" lon="5.80069540"><ele></ele><time>2014-6-21T18:53:31Z</time></trkpt>
<trkpt lat="49.69424430" lon="5.80114840"><ele></ele><time>2014-6-21T18:53:34Z</time></trkpt>
<trkpt lat="49.69385300" lon="5.80159840"><ele></ele><time>2014-6-21T18:53:37Z</time></trkpt>
<trkpt lat="49.69343880" lon="5.80201400"><ele></ele><time>2014-6-21T18:53:40Z</time></trkpt>
<trkpt lat="49.69311890" lon="5.80232510"><ele></ele><time>2014-6-21T18:53:43Z</time></trkpt>
<trkpt lat="49.69292620" lon="5.80251240"><ele></ele><time>2014-6-21T18:53:46Z</time></trkpt>
<trkpt lat="49.69267000" lon="5.80276150"><ele></ele><time>2014-6-21T18:53:49Z</time></trkpt>
<trkpt lat="49.69244220" lon="5.80298290"><ele></ele><time>2014-6-21T18:53:52Z</time></trkpt>
<trkpt lat="49.69211290" lon="5.80331130"><ele></ele><time>2014-6-21T18:53:55Z</time></trkpt>
<trkpt lat="49.69186930" lon="5.80356420"><ele></ele><time>2014-6-21T18:53:58Z</time></trkpt>
<trkpt lat="49.69138380" lon="5.80406830"><ele></ele><time>2014-6-21T18:54:1Z</time></trkpt>
<trkpt lat="49.69101120" lon="5.80445510"><ele></ele><time>2014-6-21T18:54:4Z</time></trkpt>
<trkpt lat="49.69061640" lon="5.80486520"><ele></ele><time>2014-6-21T18:54:7Z</time></trkpt>
<trkpt lat="49.69034960" lon="5.80514240"><ele></ele><time>2014-6-21T18:54:10Z</time></trkpt>
<trkpt lat="49.68999070" lon="5.80552550"><ele></ele><time>2014-6-21T18:54:13Z</time></trkpt>
<trkpt lat="49.68965820" lon="5.80613920"><ele></ele><time>2014-6-21T18:54:16Z</time></trkpt>
<trkpt lat="49.68947230" lon="5.80648230"><ele></ele><time>2014-6-21T18:54:19Z</time></trkpt>
<trkpt lat="49.68917000" lon="5.80674810"><ele></ele><time>2014-6-21T18:54:22Z</time></trkpt>
<trkpt lat="49.68872310" lon="5.80675290"><ele></ele><time>2014-6-21T18:54:25Z</time></trkpt>
<trkpt lat="49.68828940" lon="5.80675770"><ele></ele><time>2014-6-21T18:54:28Z</time></trkpt>
<trkpt lat="49.68777290" lon="5.80676320"><ele></ele><time>2014-6-21T18:54:31Z</time></trkpt>
<trkpt lat="49.68735250" lon="5.80676790"><ele></ele><time>2014-6-21T18:54:34Z</time></trkpt>
<trkpt lat="49.68688210" lon="5.80677300"><ele></ele><time>2014-6-21T18:54:37Z</time></trkpt>
<trkpt lat="49.68651170" lon="5.80677700"><ele></ele><time>2014-6-21T18:54:40Z</time></trkpt>
<trkpt lat="49.68638560" lon="5.80677840"><ele></ele><time>2014-6-21T18:54:43Z</time></trkpt>
<trkpt lat="49.68570020" lon="5.80678600"><ele></ele><time>2014-6-21T18:54:46Z</time></trkpt>
<trkpt lat="49.68547000" lon="5.80678840"><ele></ele><time>2014-6-21T18:54:49Z</time></trkpt>
<trkpt lat="49.68538930" lon="5.80678930"><ele></ele><time>2014-6-21T18:54:52Z</time></trkpt>
<trkpt lat="49.68536850" lon="5.80678940"><ele></ele><time>2014-6-21T18:54:55Z</time></trkpt>
<trkpt lat="49.68536850" lon="5.80678940"><ele></ele><time>2014-6-21T18:54:58Z</time></trkpt>
<trkpt lat="49.68536410" lon="5.80685290"><ele></ele><time>2014-6-21T18:55:1Z</time></trkpt>
<trkpt lat="49.68532160" lon="5.80745630"><ele></ele><time>2014-6-21T18:55:4Z</time></trkpt>
<trkpt lat="49.68526020" lon="5.80832760"><ele></ele><time>2014-6-21T18:55:7Z</time></trkpt>
<trkpt lat="49.68521790" lon="5.80892840"><ele></ele><time>2014-6-21T18:55:10Z</time></trkpt>
<trkpt lat="49.68517340" lon="5.80956020"><ele></ele><time>2014-6-21T18:55:13Z</time></trkpt>
<trkpt lat="49.68498570" lon="5.80961190"><ele></ele><time>2014-6-21T18:55:16Z</time></trkpt>
<trkpt lat="49.68488520" lon="5.80947790"><ele></ele><time>2014-6-21T18:55:19Z</time></trkpt>
<trkpt lat="49.68437220" lon="5.80877200"><ele></ele><time>2014-6-21T18:55:22Z</time></trkpt>
<trkpt lat="49.68399200" lon="5.80824410"><ele></ele><time>2014-6-21T18:55:25Z</time></trkpt>
<trkpt lat="49.68367230" lon="5.80780930"><ele></ele><time>2014-6-21T18:55:28Z</time></trkpt>
<trkpt lat="49.68335250" lon="5.80737430"><ele></ele><time>2014-6-21T18:55:31Z</time></trkpt>
<trkpt lat="49.68290330" lon="5.80675750"><ele></ele><time>2014-6-21T18:55:34Z</time></trkpt>
<trkpt lat="49.68270330" lon="5.80647440"><ele></ele><time>2014-6-21T18:55:37Z</time></trkpt>
<trkpt lat="49.68248490" lon="5.80623180"><ele></ele><time>2014-6-21T18:55:40Z</time></trkpt>
<trkpt lat="49.68194480" lon="5.80592780"><ele></ele><time>2014-6-21T18:55:43Z</time></trkpt>
<trkpt lat="49.68175520" lon="5.80540240"><ele></ele><time>2014-6-21T18:55:46Z</time></trkpt>
<trkpt lat="49.68174600" lon="5.80545010"><ele></ele><time>2014-6-21T18:55:49Z</time></trkpt>
<trkpt lat="49.68121610" lon="5.80558070"><ele></ele><time>2014-6-21T18:55:52Z</time></trkpt>
<trkpt lat="49.68069140" lon="5.80532890"><ele></ele><time>2014-6-21T18:55:55Z</time></trkpt>
<trkpt lat="49.68044490" lon="5.80536720"><ele></ele><time>2014-6-21T18:55:58Z</time></trkpt>
<trkpt lat="49.68023710" lon="5.80546620"><ele></ele><time>2014-6-21T18:56:1Z</time></trkpt>
<trkpt lat="49.68016400" lon="5.80548810"><ele></ele><time>2014-6-21T18:56:4Z</time></trkpt>
<trkpt lat="49.67977810" lon="5.80560390"><ele></ele><time>2014-6-21T18:56:7Z</time></trkpt>
<trkpt lat="49.67935350" lon="5.80568810"><ele></ele><time>2014-6-21T18:56:10Z</time></trkpt>
<trkpt lat="49.67888660" lon="5.80519900"><ele></ele><time>2014-6-21T18:56:13Z</time></trkpt>
<trkpt lat="49.67809600" lon="5.80358710"><ele></ele><time>2014-6-21T18:56:16Z</time></trkpt>
<trkpt lat="49.67801660" lon="5.80314160"><ele></ele><time>2014-6-21T18:56:19Z</time></trkpt>
<trkpt lat="49.67793000" lon="5.80149920"><ele></ele><time>2014-6-21T18:56:22Z</time></trkpt>
<trkpt lat="49.67788290" lon="5.79989860"><ele></ele><time>2014-6-21T18:56:25Z</time></trkpt>
<trkpt lat="49.67785820" lon="5.79906170"><ele></ele><time>2014-6-21T18:56:28Z</time></trkpt>
<trkpt lat="49.67777490" lon="5.79793710"><ele></ele><time>2014-6-21T18:56:31Z</time></trkpt>
<trkpt lat="49.67758340" lon="5.79721260"><ele></ele><time>2014-6-21T18:56:34Z</time></trkpt>
<trkpt lat="49.67757130" lon="5.79693530"><ele></ele><time>2014-6-21T18:56:37Z</time></trkpt>
<trkpt lat="49.67789520" lon="5.79683560"><ele></ele><time>2014-6-21T18:56:40Z</time></trkpt>
<trkpt lat="49.67840500" lon="5.79660450"><ele></ele><time>2014-6-21T18:56:43Z</time></trkpt>
<trkpt lat="49.67900680" lon="5.79625730"><ele></ele><time>2014-6-21T18:56:46Z</time></trkpt>
<trkpt lat="49.67949010" lon="5.79609690"><ele></ele><time>2014-6-21T18:56:49Z</time></trkpt>
<trkpt lat="49.67955690" lon="5.79609170"><ele></ele><time>2014-6-21T18:56:52Z</time></trkpt>
<trkpt lat="49.67953650" lon="5.79609330"><ele></ele><time>2014-6-21T18:56:55Z</time></trkpt>
<trkpt lat="49.67952360" lon="5.79609430"><ele></ele><time>2014-6-21T18:56:58Z</time></trkpt>
<trkpt lat="49.67913960" lon="5.79658260"><ele></ele><time>2014-6-21T18:57:1Z</time></trkpt>
<trkpt lat="50.66231100" lon="5.85240610"><ele></ele><time>2014-6-21T18:57:4Z</time></trkpt>
<trkpt lat="50.66231100" lon="5.85240620"><ele></ele><time>2014-6-21T18:57:7Z</time></trkpt>
<trkpt lat="50.66231030" lon="5.85240850"><ele></ele><time>2014-6-21T18:57:10Z</time></trkpt>
<trkpt lat="50.66230930" lon="5.85241240"><ele></ele><time>2014-6-21T18:57:13Z</time></trkpt>
<trkpt lat="50.66232110" lon="5.85239540"><ele></ele><time>2014-6-21T18:57:16Z</time></trkpt>
<trkpt lat="50.66233900" lon="5.85237250"><ele></ele><time>2014-6-21T18:57:19Z</time></trkpt>
<trkpt lat="50.66233940" lon="5.85237710"><ele></ele><time>2014-6-21T18:57:22Z</time></trkpt>
<trkpt lat="50.66233940" lon="5.85237280"><ele></ele><time>2014-6-21T18:57:25Z</time></trkpt>
<trkpt lat="50.66233940" lon="5.85237280"><ele></ele><time>2014-6-21T18:57:28Z</time></trkpt>
<trkpt lat="50.66224780" lon="5.85234640"><ele></ele><time>2014-6-21T18:57:31Z</time></trkpt>
<trkpt lat="50.66233940" lon="5.85237280"><ele></ele><time>2014-6-21T18:57:34Z</time></trkpt>
<trkpt lat="50.66233940" lon="5.85237280"><ele></ele><time>2014-6-21T18:57:37Z</time></trkpt>
<trkpt lat="50.66233940" lon="5.85237280"><ele></ele><time>2014-6-21T18:57:40Z</time></trkpt>
<trkpt lat="50.66233940" lon="5.85237280"><ele></ele><time>2014-6-21T18:57:43Z</time></trkpt>
<trkpt lat="50.66233940" lon="5.85237280"><ele></ele><time>2014-6-21T18:57:46Z</time></trkpt>
<trkpt lat="50.66233940" lon="5.85237280"><ele></ele><time>2014-6-21T18:57:49Z</time></trkpt>
<trkpt lat="50.66233940" lon="5.85237280"><ele></ele><time>2014-6-21T18:57:52Z</time></trkpt>
<trkpt lat="50.66233940" lon="5.85237280"><ele></ele><time>2014-6-21T18:57:55Z</time></trkpt>
<trkpt lat="50.66233940" lon="5.85237280"><ele></ele><time>2014-6-21T18:57:58Z</time></trkpt>
<trkpt lat="50.66233940" lon="5.85237280"><ele></ele><time>2014-6-21T18:58:1Z</time></trkpt>
<trkpt lat="50.66233940" lon="5.85237280"><ele></ele><time>2014-6-21T18:58:4Z</time></trkpt>
<trkpt lat="50.66233940" lon="5.85237280"><ele></ele><time>2014-6-21T18:58:7Z</time></trkpt>
<trkpt lat="50.66233940" lon="5.85237280"><ele></ele><time>2014-6-21T18:58:10Z</time></trkpt>
<trkpt lat="50.66233940" lon="5.85237280"><ele></ele><time>2014-6-21T18:58:13Z</time></trkpt>
<trkpt lat="50.66233940" lon="5.85237280"><ele></ele><time>2014-6-21T18:58:16Z</time></trkpt>
<trkpt lat="50.66233940" lon="5.85237280"><ele></ele><time>2014-6-21T18:58:19Z</time></trkpt>
<trkpt lat="50.66233940" lon="5.85237280"><ele></ele><time>2014-6-21T18:58:22Z</time></trkpt>
<trkpt lat="50.66233940" lon="5.85237280"><ele></ele><time>2014-6-21T18:58:25Z</time></trkpt>
<trkpt lat="50.66233940" lon="5.85237280"><ele></ele><time>2014-6-21T18:58:28Z</time></trkpt>
<trkpt lat="50.66233940" lon="5.85237280"><ele></ele><time>2014-6-21T18:58:31Z</time></trkpt>
<trkpt lat="50.66233940" lon="5.85237280"><ele></ele><time>2014-6-21T18:58:34Z</time></trkpt>
<trkpt lat="50.66233940" lon="5.85237280"><ele></ele><time>2014-6-21T18:58:37Z</time></trkpt>
<trkpt lat="50.66233940" lon="5.85237280"><ele></ele><time>2014-6-21T18:58:40Z</time></trkpt>
<trkpt lat="50.66233940" lon="5.85237280"><ele></ele><time>2014-6-21T18:58:43Z</time></trkpt>
<trkpt lat="50.66233940" lon="5.85237280"><ele></ele><time>2014-6-21T18:58:46Z</time></trkpt>
<trkpt lat="50.66233940" lon="5.85237280"><ele></ele><time>2014-6-21T18:58:49Z</time></trkpt>
<trkpt lat="50.66233940" lon="5.85237280"><ele></ele><time>2014-6-21T18:58:52Z</time></trkpt>
<trkpt lat="50.66233940" lon="5.85237280"><ele></ele><time>2014-6-21T18:58:55Z</time></trkpt>
<trkpt lat="50.66233940" lon="5.85237280"><ele></ele><time>2014-6-21T18:58:58Z</time></trkpt>
<trkpt lat="50.66233940" lon="5.85237280"><ele></ele><time>2014-6-21T18:59:1Z</time></trkpt>
<trkpt lat="50.66233940" lon="5.85237280"><ele></ele><time>2014-6-21T18:59:4Z</time></trkpt>
<trkpt lat="50.66233940" lon="5.85237280"><ele></ele><time>2014-6-21T18:59:7Z</time></trkpt>
<trkpt lat="50.66233940" lon="5.85237280"><ele></ele><time>2014-6-21T18:59:10Z</time></trkpt>
<trkpt lat="50.66233940" lon="5.85237280"><ele></ele><time>2014-6-21T18:59:13Z</time></trkpt>
<trkpt lat="50.66233940" lon="5.85237280"><ele></ele><time>2014-6-21T18:59:16Z</time></trkpt>
<trkpt lat="50.66233940" lon="5.85237280"><ele></ele><time>2014-6-21T18:59:19Z</time></trkpt>
<trkpt lat="50.66233940" lon="5.85237280"><ele></ele><time>2014-6-21T18:59:22Z</time></trkpt>
<trkpt lat="50.66233940" lon="5.85237280"><ele></ele><time>2014-6-21T18:59:25Z</time></trkpt>
<trkpt lat="50.66233940" lon="5.85237280"><ele></ele><time>2014-6-21T18:59:28Z</time></trkpt>
<trkpt lat="50.66233940" lon="5.85237280"><ele></ele><time>2014-6-21T18:59:31Z</time></trkpt>
<trkpt lat="50.66233940" lon="5.85237280"><ele></ele><time>2014-6-21T18:59:34Z</time></trkpt>
<trkpt lat="50.66233940" lon="5.85237280"><ele></ele><time>2014-6-21T18:59:37Z</time></trkpt>
<trkpt lat="50.66233940" lon="5.85237280"><ele></ele><time>2014-6-21T18:59:40Z</time></trkpt>
<trkpt lat="50.66233940" lon="5.85237280"><ele></ele><time>2014-6-21T18:59:43Z</time></trkpt>
<trkpt lat="50.66233940" lon="5.85237280"><ele></ele><time>2014-6-21T18:59:46Z</time></trkpt>
<trkpt lat="50.66233940" lon="5.85237280"><ele></ele><time>2014-6-21T18:59:49Z</time></trkpt>
<trkpt lat="50.66233940" lon="5.85237280"><ele></ele><time>2014-6-21T18:59:52Z</time></trkpt>
<trkpt lat="50.66233940" lon="5.85237280"><ele></ele><time>2014-6-21T18:59:55Z</time></trkpt>
<trkpt lat="50.66233940" lon="5.85237280"><ele></ele><time>2014-6-21T18:59:58Z</time></trkpt>
<trkpt lat="50.66233940" lon="5.85237280"><ele></ele><time>2014-6-21T19:0:1Z</time></trkpt>
<trkpt lat="50.66233940" lon="5.85237280"><ele></ele><time>2014-6-21T19:0:4Z</time></trkpt>
<trkpt lat="50.66233940" lon="5.85237280"><ele></ele><time>2014-6-21T19:0:7Z</time></trkpt>
<trkpt lat="50.66233940" lon="5.85237280"><ele></ele><time>2014-6-21T19:0:10Z</time></trkpt>
<trkpt lat="50.66233940" lon="5.85237280"><ele></ele><time>2014-6-21T19:0:13Z</time></trkpt>
<trkpt lat="50.66233940" lon="5.85237280"><ele></ele><time>2014-6-21T19:0:16Z</time></trkpt>
<trkpt lat="50.66233940" lon="5.85237280"><ele></ele><time>2014-6-21T19:0:19Z</time></trkpt>
<trkpt lat="50.66233940" lon="5.85237280"><ele></ele><time>2014-6-21T19:0:22Z</time></trkpt>
<trkpt lat="50.66233940" lon="5.85237280"><ele></ele><time>2014-6-21T19:0:25Z</time></trkpt>
<trkpt lat="50.66233940" lon="5.85237280"><ele></ele><time>2014-6-21T19:0:28Z</time></trkpt>
<trkpt lat="50.66233940" lon="5.85237280"><ele></ele><time>2014-6-21T19:0:31Z</time></trkpt>
<trkpt lat="50.66233940" lon="5.85237280"><ele></ele><time>2014-6-21T19:0:34Z</time></trkpt>
<trkpt lat="50.66233940" lon="5.85237280"><ele></ele><time>2014-6-21T19:0:37Z</time></trkpt>
<trkpt lat="50.66233940" lon="5.85237280"><ele></ele><time>2014-6-21T19:0:40Z</time></trkpt>
<trkpt lat="50.66233940" lon="5.85237280"><ele></ele><time>2014-6-21T19:0:43Z</time></trkpt>
<trkpt lat="50.66233940" lon="5.85237280"><ele></ele><time>2014-6-21T19:0:46Z</time></trkpt>
<trkpt lat="50.66233940" lon="5.85237280"><ele></ele><time>2014-6-21T19:0:49Z</time></trkpt>
<trkpt lat="50.66233940" lon="5.85237280"><ele></ele><time>2014-6-21T19:0:52Z</time></trkpt>
<trkpt lat="50.66233940" lon="5.85237280"><ele></ele><time>2014-6-21T19:0:55Z</time></trkpt>
<trkpt lat="50.66233940" lon="5.85237280"><ele></ele><time>2014-6-21T19:0:58Z</time></trkpt>
<trkpt lat="50.66233940" lon="5.85237280"><ele></ele><time>2014-6-21T19:1:1Z</time></trkpt>
<trkpt lat="50.66233940" lon="5.85237280"><ele></ele><time>2014-6-21T19:1:4Z</time></trkpt>
<trkpt lat="50.66233940" lon="5.85237280"><ele></ele><time>2014-6-21T19:1:7Z</time></trkpt>
<trkpt lat="50.66233940" lon="5.85237280"><ele></ele><time>2014-6-21T19:1:10Z</time></trkpt>
<trkpt lat="50.66233940" lon="5.85237280"><ele></ele><time>2014-6-21T19:1:13Z</time></trkpt>
<trkpt lat="50.66233940" lon="5.85237280"><ele></ele><time>2014-6-21T19:1:16Z</time></trkpt>
<trkpt lat="50.66233940" lon="5.85237280"><ele></ele><time>2014-6-21T19:1:19Z</time></trkpt>
<trkpt lat="50.66233940" lon="5.85237280"><ele></ele><time>2014-6-21T19:1:22Z</time></trkpt>
<trkpt lat="50.66233940" lon="5.85237280"><ele></ele><time>2014-6-21T19:1:25Z</time></trkpt>
<trkpt lat="50.66233940" lon="5.85237280"><ele></ele><time>2014-6-21T19:1:28Z</time></trkpt>
<trkpt lat="50.66233940" lon="5.85237280"><ele></ele><time>2014-6-21T19:1:31Z</time></trkpt>
<trkpt lat="50.66233940" lon="5.85237280"><ele></ele><time>2014-6-21T19:1:34Z</time></trkpt>
<trkpt lat="50.66233940" lon="5.85237280"><ele></ele><time>2014-6-21T19:1:37Z</time></trkpt>
<trkpt lat="50.66233940" lon="5.85237280"><ele></ele><time>2014-6-21T19:1:40Z</time></trkpt>
<trkpt lat="50.66233940" lon="5.85237280"><ele></ele><time>2014-6-21T19:1:43Z</time></trkpt>
<trkpt lat="50.66233940" lon="5.85237280"><ele></ele><time>2014-6-21T19:1:46Z</time></trkpt>
<trkpt lat="50.66233940" lon="5.85237280"><ele></ele><time>2014-6-21T19:1:49Z</time></trkpt>
<trkpt lat="50.66233940" lon="5.85237280"><ele></ele><time>2014-6-21T19:1:52Z</time></trkpt>
<trkpt lat="50.66233940" lon="5.85237280"><ele></ele><time>2014-6-21T19:1:55Z</time></trkpt>
<trkpt lat="50.66233940" lon="5.85237280"><ele></ele><time>2014-6-21T19:1:58Z</time></trkpt>
<trkpt lat="50.66233940" lon="5.85237280"><ele></ele><time>2014-6-21T19:2:1Z</time></trkpt>
<trkpt lat="50.66233940" lon="5.85237280"><ele></ele><time>2014-6-21T19:2:4Z</time></trkpt>
<trkpt lat="50.66233940" lon="5.85237280"><ele></ele><time>2014-6-21T19:2:7Z</time></trkpt>
<trkpt lat="50.66233940" lon="5.85237280"><ele></ele><time>2014-6-21T19:2:10Z</time></trkpt>
<trkpt lat="50.66233940" lon="5.85237280"><ele></ele><time>2014-6-21T19:2:13Z</time></trkpt>
<trkpt lat="50.66233940" lon="5.85237280"><ele></ele><time>2014-6-21T19:2:16Z</time></trkpt>
<trkpt lat="50.66233940" lon="5.85237280"><ele></ele><time>2014-6-21T19:2:19Z</time></trkpt>
<trkpt lat="50.66233940" lon="5.85237280"><ele></ele><time>2014-6-21T19:2:22Z</time></trkpt>
<trkpt lat="50.66233940" lon="5.85237280"><ele></ele><time>2014-6-21T19:2:25Z</time></trkpt>
<trkpt lat="50.66233940" lon="5.85237280"><ele></ele><time>2014-6-21T19:2:28Z</time></trkpt>
<trkpt lat="50.66233940" lon="5.85237280"><ele></ele><time>2014-6-21T19:2:31Z</time></trkpt>
<trkpt lat="50.66233940" lon="5.85237280"><ele></ele><time>2014-6-21T19:2:34Z</time></trkpt>
<trkpt lat="50.66233940" lon="5.85237280"><ele></ele><time>2014-6-21T19:2:37Z</time></trkpt>
<trkpt lat="50.66239030" lon="5.85242800"><ele></ele><time>2014-6-21T19:2:40Z</time></trkpt>
<trkpt lat="50.66243250" lon="5.85246360"><ele></ele><time>2014-6-21T19:2:43Z</time></trkpt>
<trkpt lat="50.66242730" lon="5.85244020"><ele></ele><time>2014-6-21T19:2:46Z</time></trkpt>
<trkpt lat="50.66242060" lon="5.85241040"><ele></ele><time>2014-6-21T19:2:49Z</time></trkpt>
<trkpt lat="50.66241660" lon="5.85235210"><ele></ele><time>2014-6-21T19:2:52Z</time></trkpt>
<trkpt lat="50.66244720" lon="5.85235320"><ele></ele><time>2014-6-21T19:2:55Z</time></trkpt>
<trkpt lat="50.66240270" lon="5.85244240"><ele></ele><time>2014-6-21T19:2:58Z</time></trkpt>
<trkpt lat="50.66240010" lon="5.85245320"><ele></ele><time>2014-6-21T19:3:1Z</time></trkpt>
<trkpt lat="50.66235300" lon="5.85243520"><ele></ele><time>2014-6-21T19:3:4Z</time></trkpt>
<trkpt lat="50.66206800" lon="5.85239130"><ele></ele><time>2014-6-21T19:3:7Z</time></trkpt>
<trkpt lat="50.66180770" lon="5.85237710"><ele></ele><time>2014-6-21T19:3:10Z</time></trkpt>
<trkpt lat="50.66174220" lon="5.85248550"><ele></ele><time>2014-6-21T19:3:13Z</time></trkpt>
<trkpt lat="50.66158060" lon="5.85302010"><ele></ele><time>2014-6-21T19:3:16Z</time></trkpt>
<trkpt lat="50.66135700" lon="5.85375950"><ele></ele><time>2014-6-21T19:3:19Z</time></trkpt>
<trkpt lat="50.66130190" lon="5.85394200"><ele></ele><time>2014-6-21T19:3:22Z</time></trkpt>
<trkpt lat="50.66107760" lon="5.85447680"><ele></ele><time>2014-6-21T19:3:25Z</time></trkpt>
<trkpt lat="50.66081880" lon="5.85495880"><ele></ele><time>2014-6-21T19:3:28Z</time></trkpt>
<trkpt lat="50.66080090" lon="5.85499230"><ele></ele><time>2014-6-21T19:3:31Z</time></trkpt>
<trkpt lat="50.66050270" lon="5.85554730"><ele></ele><time>2014-6-21T19:3:34Z</time></trkpt>
<trkpt lat="50.66038210" lon="5.85577200"><ele></ele><time>2014-6-21T19:3:37Z</time></trkpt>
<trkpt lat="50.66013840" lon="5.85622590"><ele></ele><time>2014-6-21T19:3:40Z</time></trkpt>
<trkpt lat="50.65985500" lon="5.85678850"><ele></ele><time>2014-6-21T19:3:43Z</time></trkpt>
<trkpt lat="50.65961940" lon="5.85729500"><ele></ele><time>2014-6-21T19:3:46Z</time></trkpt>
<trkpt lat="50.65928470" lon="5.85801430"><ele></ele><time>2014-6-21T19:3:49Z</time></trkpt>
<trkpt lat="50.65921430" lon="5.85816570"><ele></ele><time>2014-6-21T19:3:52Z</time></trkpt>
<trkpt lat="50.65910160" lon="5.85840580"><ele></ele><time>2014-6-21T19:3:55Z</time></trkpt>
<trkpt lat="50.65919040" lon="5.85859820"><ele></ele><time>2014-6-21T19:3:58Z</time></trkpt>
<trkpt lat="50.65934480" lon="5.85878360"><ele></ele><time>2014-6-21T19:4:1Z</time></trkpt>
<trkpt lat="50.65942460" lon="5.85887920"><ele></ele><time>2014-6-21T19:4:4Z</time></trkpt>
<trkpt lat="50.65950840" lon="5.85897710"><ele></ele><time>2014-6-21T19:4:7Z</time></trkpt>
<trkpt lat="50.65982330" lon="5.85916080"><ele></ele><time>2014-6-21T19:4:10Z</time></trkpt>
<trkpt lat="50.65997240" lon="5.85946110"><ele></ele><time>2014-6-21T19:4:13Z</time></trkpt>
<trkpt lat="50.65994360" lon="5.85957620"><ele></ele><time>2014-6-21T19:4:16Z</time></trkpt>
<trkpt lat="50.65984510" lon="5.85997010"><ele></ele><time>2014-6-21T19:4:19Z</time></trkpt>
<trkpt lat="50.65978320" lon="5.86057830"><ele></ele><time>2014-6-21T19:4:22Z</time></trkpt>
<trkpt lat="50.65975400" lon="5.86119170"><ele></ele><time>2014-6-21T19:4:25Z</time></trkpt>
<trkpt lat="50.65972860" lon="5.86172570"><ele></ele><time>2014-6-21T19:4:28Z</time></trkpt>
<trkpt lat="50.65974850" lon="5.86231080"><ele></ele><time>2014-6-21T19:4:31Z</time></trkpt>
<trkpt lat="50.65980360" lon="5.86301130"><ele></ele><time>2014-6-21T19:4:34Z</time></trkpt>
<trkpt lat="50.65963270" lon="5.86356640"><ele></ele><time>2014-6-21T19:4:37Z</time></trkpt>
<trkpt lat="50.65956340" lon="5.86386320"><ele></ele><time>2014-6-21T19:4:40Z</time></trkpt>
<trkpt lat="50.65953740" lon="5.86397480"><ele></ele><time>2014-6-21T19:4:43Z</time></trkpt>
<trkpt lat="50.65939460" lon="5.86458680"><ele></ele><time>2014-6-21T19:4:46Z</time></trkpt>
<trkpt lat="50.65928330" lon="5.86509890"><ele></ele><time>2014-6-21T19:4:49Z</time></trkpt>
<trkpt lat="50.65925340" lon="5.86566140"><ele></ele><time>2014-6-21T19:4:52Z</time></trkpt>
<trkpt lat="50.65926660" lon="5.86637100"><ele></ele><time>2014-6-21T19:4:55Z</time></trkpt>
<trkpt lat="50.65928130" lon="5.86716800"><ele></ele><time>2014-6-21T19:4:58Z</time></trkpt>
<trkpt lat="50.65928770" lon="5.86751380"><ele></ele><time>2014-6-21T19:5:1Z</time></trkpt>
<trkpt lat="50.65919410" lon="5.86753250"><ele></ele><time>2014-6-21T19:5:4Z</time></trkpt>
<trkpt lat="50.65858410" lon="5.86730290"><ele></ele><time>2014-6-21T19:5:7Z</time></trkpt>
<trkpt lat="50.65797070" lon="5.86717700"><ele></ele><time>2014-6-21T19:5:10Z</time></trkpt>
<trkpt lat="50.65753540" lon="5.86708770"><ele></ele><time>2014-6-21T19:5:13Z</time></trkpt>
<trkpt lat="50.65724350" lon="5.86725790"><ele></ele><time>2014-6-21T19:5:16Z</time></trkpt>
<trkpt lat="50.65702100" lon="5.86792520"><ele></ele><time>2014-6-21T19:5:19Z</time></trkpt>
<trkpt lat="50.65672680" lon="5.86807250"><ele></ele><time>2014-6-21T19:5:22Z</time></trkpt>
<trkpt lat="50.65637240" lon="5.86810920"><ele></ele><time>2014-6-21T19:5:25Z</time></trkpt>
<trkpt lat="50.65606600" lon="5.86837950"><ele></ele><time>2014-6-21T19:5:28Z</time></trkpt>
<trkpt lat="50.65562440" lon="5.86874120"><ele></ele><time>2014-6-21T19:5:31Z</time></trkpt>
<trkpt lat="50.65545420" lon="5.86881200"><ele></ele><time>2014-6-21T19:5:34Z</time></trkpt>
<trkpt lat="50.65543420" lon="5.86882030"><ele></ele><time>2014-6-21T19:5:37Z</time></trkpt>
<trkpt lat="50.65512360" lon="5.86894980"><ele></ele><time>2014-6-21T19:5:40Z</time></trkpt>
<trkpt lat="50.65502960" lon="5.86898910"><ele></ele><time>2014-6-21T19:5:43Z</time></trkpt>
<trkpt lat="50.65498710" lon="5.86900670"><ele></ele><time>2014-6-21T19:5:46Z</time></trkpt>
<trkpt lat="50.65459360" lon="5.86915210"><ele></ele><time>2014-6-21T19:5:49Z</time></trkpt>
<trkpt lat="50.65431570" lon="5.86918290"><ele></ele><time>2014-6-21T19:5:52Z</time></trkpt>
<trkpt lat="50.65415120" lon="5.86920770"><ele></ele><time>2014-6-21T19:5:55Z</time></trkpt>
<trkpt lat="50.65370850" lon="5.86925630"><ele></ele><time>2014-6-21T19:5:58Z</time></trkpt>
<trkpt lat="50.65358300" lon="5.86926680"><ele></ele><time>2014-6-21T19:6:1Z</time></trkpt>
<trkpt lat="50.65356930" lon="5.86926780"><ele></ele><time>2014-6-21T19:6:4Z</time></trkpt>
<trkpt lat="50.65351560" lon="5.86947130"><ele></ele><time>2014-6-21T19:6:7Z</time></trkpt>
<trkpt lat="50.65353870" lon="5.86970330"><ele></ele><time>2014-6-21T19:6:10Z</time></trkpt>
<trkpt lat="50.65353870" lon="5.86970330"><ele></ele><time>2014-6-21T19:6:13Z</time></trkpt>
<trkpt lat="50.65304680" lon="5.86981700"><ele></ele><time>2014-6-21T19:6:16Z</time></trkpt>
<trkpt lat="50.65298010" lon="5.86937820"><ele></ele><time>2014-6-21T19:6:19Z</time></trkpt>
<trkpt lat="50.65291440" lon="5.86894470"><ele></ele><time>2014-6-21T19:6:22Z</time></trkpt>
<trkpt lat="50.65280250" lon="5.86820680"><ele></ele><time>2014-6-21T19:6:25Z</time></trkpt>
<trkpt lat="50.65270180" lon="5.86754260"><ele></ele><time>2014-6-21T19:6:28Z</time></trkpt>
<trkpt lat="50.65260250" lon="5.86688830"><ele></ele><time>2014-6-21T19:6:31Z</time></trkpt>
<trkpt lat="50.65249780" lon="5.86621270"><ele></ele><time>2014-6-21T19:6:34Z</time></trkpt>
<trkpt lat="50.65240140" lon="5.86571190"><ele></ele><time>2014-6-21T19:6:37Z</time></trkpt>
<trkpt lat="50.65228130" lon="5.86508710"><ele></ele><time>2014-6-21T19:6:40Z</time></trkpt>
<trkpt lat="50.65216240" lon="5.86446870"><ele></ele><time>2014-6-21T19:6:43Z</time></trkpt>
<trkpt lat="50.65200970" lon="5.86384630"><ele></ele><time>2014-6-21T19:6:46Z</time></trkpt>
<trkpt lat="50.65193170" lon="5.86287450"><ele></ele><time>2014-6-21T19:6:49Z</time></trkpt>
<trkpt lat="50.65173460" lon="5.86201620"><ele></ele><time>2014-6-21T19:6:52Z</time></trkpt>
<trkpt lat="50.65140730" lon="5.86103450"><ele></ele><time>2014-6-21T19:6:55Z</time></trkpt>
<trkpt lat="50.65101120" lon="5.86027910"><ele></ele><time>2014-6-21T19:6:58Z</time></trkpt>
<trkpt lat="50.65072360" lon="5.85978390"><ele></ele><time>2014-6-21T19:7:1Z</time></trkpt>
<trkpt lat="50.65034970" lon="5.85924540"><ele></ele><time>2014-6-21T19:7:4Z</time></trkpt>
<trkpt lat="50.64996240" lon="5.85875770"><ele></ele><time>2014-6-21T19:7:7Z</time></trkpt>
<trkpt lat="50.64955130" lon="5.85823990"><ele></ele><time>2014-6-21T19:7:10Z</time></trkpt>
<trkpt lat="50.64909540" lon="5.85764190"><ele></ele><time>2014-6-21T19:7:13Z</time></trkpt>
<trkpt lat="50.64853750" lon="5.85692800"><ele></ele><time>2014-6-21T19:7:16Z</time></trkpt>
<trkpt lat="50.64796780" lon="5.85620300"><ele></ele><time>2014-6-21T19:7:19Z</time></trkpt>
<trkpt lat="50.64755650" lon="5.85565320"><ele></ele><time>2014-6-21T19:7:22Z</time></trkpt>
<trkpt lat="50.64716890" lon="5.85492560"><ele></ele><time>2014-6-21T19:7:25Z</time></trkpt>
<trkpt lat="50.64690530" lon="5.85436070"><ele></ele><time>2014-6-21T19:7:28Z</time></trkpt>
<trkpt lat="50.64666930" lon="5.85372430"><ele></ele><time>2014-6-21T19:7:31Z</time></trkpt>
<trkpt lat="50.64651670" lon="5.85289110"><ele></ele><time>2014-6-21T19:7:34Z</time></trkpt>
<trkpt lat="50.64642800" lon="5.85180410"><ele></ele><time>2014-6-21T19:7:37Z</time></trkpt>
<trkpt lat="50.64645250" lon="5.85092290"><ele></ele><time>2014-6-21T19:7:40Z</time></trkpt>
<trkpt lat="50.64660000" lon="5.84982400"><ele></ele><time>2014-6-21T19:7:43Z</time></trkpt>
<trkpt lat="50.64682660" lon="5.84876190"><ele></ele><time>2014-6-21T19:7:46Z</time></trkpt>
<trkpt lat="50.64700680" lon="5.84806290"><ele></ele><time>2014-6-21T19:7:49Z</time></trkpt>
<trkpt lat="50.64715190" lon="5.84749920"><ele></ele><time>2014-6-21T19:7:52Z</time></trkpt>
<trkpt lat="50.64729550" lon="5.84694160"><ele></ele><time>2014-6-21T19:7:55Z</time></trkpt>
<trkpt lat="50.64747210" lon="5.84587900"><ele></ele><time>2014-6-21T19:7:58Z</time></trkpt>
<trkpt lat="50.64752100" lon="5.84542680"><ele></ele><time>2014-6-21T19:8:1Z</time></trkpt>
<trkpt lat="50.64756700" lon="5.84470070"><ele></ele><time>2014-6-21T19:8:4Z</time></trkpt>
<trkpt lat="50.64755000" lon="5.84406320"><ele></ele><time>2014-6-21T19:8:7Z</time></trkpt>
<trkpt lat="50.64752800" lon="5.84323610"><ele></ele><time>2014-6-21T19:8:10Z</time></trkpt>
<trkpt lat="50.64750420" lon="5.84234590"><ele></ele><time>2014-6-21T19:8:13Z</time></trkpt>
<trkpt lat="50.64747570" lon="5.84143700"><ele></ele><time>2014-6-21T19:8:16Z</time></trkpt>
<trkpt lat="50.64745160" lon="5.84060690"><ele></ele><time>2014-6-21T19:8:19Z</time></trkpt>
<trkpt lat="50.64751330" lon="5.83983590"><ele></ele><time>2014-6-21T19:8:22Z</time></trkpt>
<trkpt lat="50.64767610" lon="5.83889180"><ele></ele><time>2014-6-21T19:8:25Z</time></trkpt>
<trkpt lat="50.64790910" lon="5.83780580"><ele></ele><time>2014-6-21T19:8:28Z</time></trkpt>
<trkpt lat="50.64825790" lon="5.83684330"><ele></ele><time>2014-6-21T19:8:31Z</time></trkpt>
<trkpt lat="50.64858580" lon="5.83593790"><ele></ele><time>2014-6-21T19:8:34Z</time></trkpt>
<trkpt lat="50.64893470" lon="5.83497500"><ele></ele><time>2014-6-21T19:8:37Z</time></trkpt>
<trkpt lat="50.64907230" lon="5.83427820"><ele></ele><time>2014-6-21T19:8:40Z</time></trkpt>
<trkpt lat="50.64910260" lon="5.83411830"><ele></ele><time>2014-6-21T19:8:43Z</time></trkpt>
<trkpt lat="50.64912660" lon="5.83399080"><ele></ele><time>2014-6-21T19:8:46Z</time></trkpt>
<trkpt lat="50.64928340" lon="5.83321860"><ele></ele><time>2014-6-21T19:8:49Z</time></trkpt>
<trkpt lat="50.64938030" lon="5.83251920"><ele></ele><time>2014-6-21T19:8:52Z</time></trkpt>
<trkpt lat="50.64938400" lon="5.83175100"><ele></ele><time>2014-6-21T19:8:55Z</time></trkpt>
<trkpt lat="50.64924730" lon="5.83137830"><ele></ele><time>2014-6-21T19:8:58Z</time></trkpt>
<trkpt lat="50.64930490" lon="5.83075590"><ele></ele><time>2014-6-21T19:9:1Z</time></trkpt>
<trkpt lat="50.64925660" lon="5.83027260"><ele></ele><time>2014-6-21T19:9:4Z</time></trkpt>
<trkpt lat="50.64919180" lon="5.82962570"><ele></ele><time>2014-6-21T19:9:7Z</time></trkpt>
<trkpt lat="50.64908470" lon="5.82855410"><ele></ele><time>2014-6-21T19:9:10Z</time></trkpt>
<trkpt lat="50.64907550" lon="5.82762380"><ele></ele><time>2014-6-21T19:9:13Z</time></trkpt>
<trkpt lat="50.64921100" lon="5.82637300"><ele></ele><time>2014-6-21T19:9:16Z</time></trkpt>
<trkpt lat="50.64951510" lon="5.82529680"><ele></ele><time>2014-6-21T19:9:19Z</time></trkpt>
<trkpt lat="50.64986210" lon="5.82432100"><ele></ele><time>2014-6-21T19:9:22Z</time></trkpt>
<trkpt lat="50.65003980" lon="5.82383030"><ele></ele><time>2014-6-21T19:9:25Z</time></trkpt>
<trkpt lat="50.65012020" lon="5.82361570"><ele></ele><time>2014-6-21T19:9:28Z</time></trkpt>
<trkpt lat="50.65042510" lon="5.82280290"><ele></ele><time>2014-6-21T19:9:31Z</time></trkpt>
<trkpt lat="50.65085390" lon="5.82165920"><ele></ele><time>2014-6-21T19:9:34Z</time></trkpt>
<trkpt lat="50.65125150" lon="5.82091250"><ele></ele><time>2014-6-21T19:9:37Z</time></trkpt>
<trkpt lat="50.65151410" lon="5.82000220"><ele></ele><time>2014-6-21T19:9:40Z</time></trkpt>
<trkpt lat="50.65161410" lon="5.81965550"><ele></ele><time>2014-6-21T19:9:43Z</time></trkpt>
<trkpt lat="50.65166430" lon="5.81948130"><ele></ele><time>2014-6-21T19:9:46Z</time></trkpt>
<trkpt lat="50.65191550" lon="5.81845220"><ele></ele><time>2014-6-21T19:9:49Z</time></trkpt>
<trkpt lat="50.65198750" lon="5.81807980"><ele></ele><time>2014-6-21T19:9:52Z</time></trkpt>
<trkpt lat="50.65208340" lon="5.81742880"><ele></ele><time>2014-6-21T19:9:55Z</time></trkpt>
<trkpt lat="50.65210510" lon="5.81640660"><ele></ele><time>2014-6-21T19:9:58Z</time></trkpt>
<trkpt lat="50.65210230" lon="5.81541240"><ele></ele><time>2014-6-21T19:10:1Z</time></trkpt>
<trkpt lat="50.65202420" lon="5.81473540"><ele></ele><time>2014-6-21T19:10:4Z</time></trkpt>
<trkpt lat="50.65189990" lon="5.81415840"><ele></ele><time>2014-6-21T19:10:7Z</time></trkpt>
<trkpt lat="50.65165240" lon="5.81333320"><ele></ele><time>2014-6-21T19:10:10Z</time></trkpt>
<trkpt lat="50.65163750" lon="5.81328380"><ele></ele><time>2014-6-21T19:10:13Z</time></trkpt>
<trkpt lat="50.65159070" lon="5.81312760"><ele></ele><time>2014-6-21T19:10:16Z</time></trkpt>
<trkpt lat="50.65148990" lon="5.81279180"><ele></ele><time>2014-6-21T19:10:19Z</time></trkpt>
<trkpt lat="50.65143960" lon="5.81262400"><ele></ele><time>2014-6-21T19:10:22Z</time></trkpt>
<trkpt lat="50.65116460" lon="5.81170740"><ele></ele><time>2014-6-21T19:10:25Z</time></trkpt>
<trkpt lat="50.65103240" lon="5.81126680"><ele></ele><time>2014-6-21T19:10:28Z</time></trkpt>
<trkpt lat="50.65085360" lon="5.81067070"><ele></ele><time>2014-6-21T19:10:31Z</time></trkpt>
<trkpt lat="50.65065350" lon="5.81024580"><ele></ele><time>2014-6-21T19:10:34Z</time></trkpt>
<trkpt lat="50.65068380" lon="5.80992610"><ele></ele><time>2014-6-21T19:10:37Z</time></trkpt>
<trkpt lat="50.65070630" lon="5.80983640"><ele></ele><time>2014-6-21T19:10:40Z</time></trkpt>
<trkpt lat="50.65069440" lon="5.80979410"><ele></ele><time>2014-6-21T19:10:43Z</time></trkpt>
<trkpt lat="50.65055050" lon="5.80928210"><ele></ele><time>2014-6-21T19:10:46Z</time></trkpt>
<trkpt lat="50.65031160" lon="5.80843370"><ele></ele><time>2014-6-21T19:10:49Z</time></trkpt>
<trkpt lat="50.65008500" lon="5.80764560"><ele></ele><time>2014-6-21T19:10:52Z</time></trkpt>
<trkpt lat="50.64993850" lon="5.80713610"><ele></ele><time>2014-6-21T19:10:55Z</time></trkpt>
<trkpt lat="50.64979190" lon="5.80662600"><ele></ele><time>2014-6-21T19:10:58Z</time></trkpt>
<trkpt lat="50.64969980" lon="5.80630580"><ele></ele><time>2014-6-21T19:11:1Z</time></trkpt>
<trkpt lat="50.64966620" lon="5.80618880"><ele></ele><time>2014-6-21T19:11:4Z</time></trkpt>
<trkpt lat="50.64939610" lon="5.80524920"><ele></ele><time>2014-6-21T19:11:7Z</time></trkpt>
<trkpt lat="50.64920100" lon="5.80457050"><ele></ele><time>2014-6-21T19:11:10Z</time></trkpt>
<trkpt lat="50.64888640" lon="5.80347640"><ele></ele><time>2014-6-21T19:11:13Z</time></trkpt>
<trkpt lat="50.64858120" lon="5.80241500"><ele></ele><time>2014-6-21T19:11:16Z</time></trkpt>
<trkpt lat="50.64847900" lon="5.80205920"><ele></ele><time>2014-6-21T19:11:19Z</time></trkpt>
<trkpt lat="50.64822150" lon="5.80116360"><ele></ele><time>2014-6-21T19:11:22Z</time></trkpt>
<trkpt lat="50.64815500" lon="5.80093240"><ele></ele><time>2014-6-21T19:11:25Z</time></trkpt>
<trkpt lat="50.64787360" lon="5.79995360"><ele></ele><time>2014-6-21T19:11:28Z</time></trkpt>
<trkpt lat="50.64753400" lon="5.79877230"><ele></ele><time>2014-6-21T19:11:31Z</time></trkpt>
<trkpt lat="50.64712880" lon="5.79744020"><ele></ele><time>2014-6-21T19:11:34Z</time></trkpt>
<trkpt lat="50.64705260" lon="5.79720780"><ele></ele><time>2014-6-21T19:11:37Z</time></trkpt>
<trkpt lat="50.64690590" lon="5.79692120"><ele></ele><time>2014-6-21T19:11:40Z</time></trkpt>
<trkpt lat="50.64665860" lon="5.79643850"><ele></ele><time>2014-6-21T19:11:43Z</time></trkpt>
<trkpt lat="50.64623050" lon="5.79560270"><ele></ele><time>2014-6-21T19:11:46Z</time></trkpt>
<trkpt lat="50.64592630" lon="5.79519580"><ele></ele><time>2014-6-21T19:11:49Z</time></trkpt>
<trkpt lat="50.64553140" lon="5.79475290"><ele></ele><time>2014-6-21T19:11:52Z</time></trkpt>
<trkpt lat="50.64497990" lon="5.79430640"><ele></ele><time>2014-6-21T19:11:55Z</time></trkpt>
<trkpt lat="50.64481570" lon="5.79417350"><ele></ele><time>2014-6-21T19:11:58Z</time></trkpt>
<trkpt lat="50.64458150" lon="5.79398390"><ele></ele><time>2014-6-21T19:12:1Z</time></trkpt>
<trkpt lat="50.64430060" lon="5.79375650"><ele></ele><time>2014-6-21T19:12:4Z</time></trkpt>
<trkpt lat="50.64405300" lon="5.79355600"><ele></ele><time>2014-6-21T19:12:7Z</time></trkpt>
<trkpt lat="50.64375280" lon="5.79331210"><ele></ele><time>2014-6-21T19:12:10Z</time></trkpt>
<trkpt lat="50.64357170" lon="5.79304040"><ele></ele><time>2014-6-21T19:12:13Z</time></trkpt>
<trkpt lat="50.64310680" lon="5.79234320"><ele></ele><time>2014-6-21T19:12:16Z</time></trkpt>
<trkpt lat="50.64264750" lon="5.79151220"><ele></ele><time>2014-6-21T19:12:19Z</time></trkpt>
<trkpt lat="50.64233060" lon="5.79085600"><ele></ele><time>2014-6-21T19:12:22Z</time></trkpt>
<trkpt lat="50.64222960" lon="5.79055900"><ele></ele><time>2014-6-21T19:12:25Z</time></trkpt>
<trkpt lat="50.64199210" lon="5.78974820"><ele></ele><time>2014-6-21T19:12:28Z</time></trkpt>
<trkpt lat="50.64175670" lon="5.78894410"><ele></ele><time>2014-6-21T19:12:31Z</time></trkpt>
<trkpt lat="50.64166680" lon="5.78863710"><ele></ele><time>2014-6-21T19:12:34Z</time></trkpt>
<trkpt lat="50.64161370" lon="5.78845590"><ele></ele><time>2014-6-21T19:12:37Z</time></trkpt>
<trkpt lat="50.64140820" lon="5.78775430"><ele></ele><time>2014-6-21T19:12:40Z</time></trkpt>
<trkpt lat="50.64110330" lon="5.78671330"><ele></ele><time>2014-6-21T19:12:43Z</time></trkpt>
<trkpt lat="50.64077460" lon="5.78559040"><ele></ele><time>2014-6-21T19:12:46Z</time></trkpt>
<trkpt lat="50.64036330" lon="5.78422880"><ele></ele><time>2014-6-21T19:12:49Z</time></trkpt>
<trkpt lat="50.64015150" lon="5.78292130"><ele></ele><time>2014-6-21T19:12:52Z</time></trkpt>
<trkpt lat="50.63995170" lon="5.78167190"><ele></ele><time>2014-6-21T19:12:55Z</time></trkpt>
<trkpt lat="50.63993420" lon="5.78151490"><ele></ele><time>2014-6-21T19:12:58Z</time></trkpt>
<trkpt lat="50.63973610" lon="5.77974490"><ele></ele><time>2014-6-21T19:13:1Z</time></trkpt>
<trkpt lat="50.63956780" lon="5.77824210"><ele></ele><time>2014-6-21T19:13:4Z</time></trkpt>
<trkpt lat="50.63941960" lon="5.77691810"><ele></ele><time>2014-6-21T19:13:7Z</time></trkpt>
<trkpt lat="50.63923880" lon="5.77528640"><ele></ele><time>2014-6-21T19:13:10Z</time></trkpt>
<trkpt lat="50.63905590" lon="5.77363010"><ele></ele><time>2014-6-21T19:13:13Z</time></trkpt>
<trkpt lat="50.63888880" lon="5.77211710"><ele></ele><time>2014-6-21T19:13:16Z</time></trkpt>
<trkpt lat="50.63871060" lon="5.77050310"><ele></ele><time>2014-6-21T19:13:19Z</time></trkpt>
<trkpt lat="50.63856090" lon="5.76900440"><ele></ele><time>2014-6-21T19:13:22Z</time></trkpt>
<trkpt lat="50.63844450" lon="5.76791320"><ele></ele><time>2014-6-21T19:13:25Z</time></trkpt>
<trkpt lat="50.63828840" lon="5.76644990"><ele></ele><time>2014-6-21T19:13:28Z</time></trkpt>
<trkpt lat="50.63812200" lon="5.76501740"><ele></ele><time>2014-6-21T19:13:31Z</time></trkpt>
<trkpt lat="50.63788700" lon="5.76303080"><ele></ele><time>2014-6-21T19:13:34Z</time></trkpt>
<trkpt lat="50.63781680" lon="5.76243650"><ele></ele><time>2014-6-21T19:13:37Z</time></trkpt>
<trkpt lat="50.63773760" lon="5.76156660"><ele></ele><time>2014-6-21T19:13:40Z</time></trkpt>
<trkpt lat="50.63756630" lon="5.75998170"><ele></ele><time>2014-6-21T19:13:43Z</time></trkpt>
<trkpt lat="50.63742160" lon="5.75864300"><ele></ele><time>2014-6-21T19:13:46Z</time></trkpt>
<trkpt lat="50.63733200" lon="5.75789770"><ele></ele><time>2014-6-21T19:13:49Z</time></trkpt>
<trkpt lat="50.63723090" lon="5.75825210"><ele></ele><time>2014-6-21T19:13:52Z</time></trkpt>
<trkpt lat="50.63768770" lon="5.75801670"><ele></ele><time>2014-6-21T19:13:55Z</time></trkpt>
<trkpt lat="50.63776350" lon="5.75810430"><ele></ele><time>2014-6-21T19:13:58Z</time></trkpt>
<trkpt lat="50.63793910" lon="5.75791270"><ele></ele><time>2014-6-21T19:14:1Z</time></trkpt>
<trkpt lat="50.63844530" lon="5.75712100"><ele></ele><time>2014-6-21T19:14:4Z</time></trkpt>
<trkpt lat="50.63903030" lon="5.75586760"><ele></ele><time>2014-6-21T19:14:7Z</time></trkpt>
<trkpt lat="50.63957640" lon="5.75469720"><ele></ele><time>2014-6-21T19:14:10Z</time></trkpt>
<trkpt lat="50.64014430" lon="5.75382400"><ele></ele><time>2014-6-21T19:14:13Z</time></trkpt>
<trkpt lat="50.64019450" lon="5.75375700"><ele></ele><time>2014-6-21T19:14:16Z</time></trkpt>
<trkpt lat="50.64024610" lon="5.75369110"><ele></ele><time>2014-6-21T19:14:19Z</time></trkpt>
<trkpt lat="50.64108990" lon="5.75278490"><ele></ele><time>2014-6-21T19:14:22Z</time></trkpt>
<trkpt lat="50.64156660" lon="5.75220430"><ele></ele><time>2014-6-21T19:14:25Z</time></trkpt>
<trkpt lat="50.64186400" lon="5.75176700"><ele></ele><time>2014-6-21T19:14:28Z</time></trkpt>
<trkpt lat="50.64197470" lon="5.75160400"><ele></ele><time>2014-6-21T19:14:31Z</time></trkpt>
<trkpt lat="50.64212200" lon="5.75138740"><ele></ele><time>2014-6-21T19:14:34Z</time></trkpt>
<trkpt lat="50.64232690" lon="5.75101910"><ele></ele><time>2014-6-21T19:14:37Z</time></trkpt>
<trkpt lat="50.64249280" lon="5.75072050"><ele></ele><time>2014-6-21T19:14:40Z</time></trkpt>
<trkpt lat="50.64259800" lon="5.75053120"><ele></ele><time>2014-6-21T19:14:43Z</time></trkpt>
<trkpt lat="50.64277380" lon="5.75021470"><ele></ele><time>2014-6-21T19:14:46Z</time></trkpt>
<trkpt lat="50.64324150" lon="5.74937270"><ele></ele><time>2014-6-21T19:14:49Z</time></trkpt>
<trkpt lat="50.64369130" lon="5.74856320"><ele></ele><time>2014-6-21T19:14:52Z</time></trkpt>
<trkpt lat="50.64395680" lon="5.74808530"><ele></ele><time>2014-6-21T19:14:55Z</time></trkpt>
<trkpt lat="50.64414580" lon="5.74774510"><ele></ele><time>2014-6-21T19:14:58Z</time></trkpt>
<trkpt lat="50.64469040" lon="5.74676470"><ele></ele><time>2014-6-21T19:15:1Z</time></trkpt>
<trkpt lat="50.64472870" lon="5.74671270"><ele></ele><time>2014-6-21T19:15:4Z</time></trkpt>
<trkpt lat="50.64481220" lon="5.74660830"><ele></ele><time>2014-6-21T19:15:7Z</time></trkpt>
<trkpt lat="50.64517350" lon="5.74616770"><ele></ele><time>2014-6-21T19:15:10Z</time></trkpt>
<trkpt lat="50.64584400" lon="5.74550920"><ele></ele><time>2014-6-21T19:15:13Z</time></trkpt>
<trkpt lat="50.64645880" lon="5.74493170"><ele></ele><time>2014-6-21T19:15:16Z</time></trkpt>
<trkpt lat="50.64680410" lon="5.74454260"><ele></ele><time>2014-6-21T19:15:19Z</time></trkpt>
<trkpt lat="50.64707270" lon="5.74407840"><ele></ele><time>2014-6-21T19:15:22Z</time></trkpt>
<trkpt lat="50.64734570" lon="5.74354490"><ele></ele><time>2014-6-21T19:15:25Z</time></trkpt>
<trkpt lat="50.64781070" lon="5.74255890"><ele></ele><time>2014-6-21T19:15:28Z</time></trkpt>
<trkpt lat="50.64824030" lon="5.74164800"><ele></ele><time>2014-6-21T19:15:31Z</time></trkpt>
<trkpt lat="50.64838300" lon="5.74130960"><ele></ele><time>2014-6-21T19:15:34Z</time></trkpt>
<trkpt lat="50.64852130" lon="5.74095380"><ele></ele><time>2014-6-21T19:15:37Z</time></trkpt>
<trkpt lat="50.64857620" lon="5.74081280"><ele></ele><time>2014-6-21T19:15:40Z</time></trkpt>
<trkpt lat="50.64859040" lon="5.74049290"><ele></ele><time>2014-6-21T19:15:43Z</time></trkpt>
<trkpt lat="50.64858590" lon="5.74040960"><ele></ele><time>2014-6-21T19:15:46Z</time></trkpt>
<trkpt lat="50.64857780" lon="5.74025540"><ele></ele><time>2014-6-21T19:15:49Z</time></trkpt>
<trkpt lat="50.64872800" lon="5.73971200"><ele></ele><time>2014-6-21T19:15:52Z</time></trkpt>
<trkpt lat="50.64915120" lon="5.73918180"><ele></ele><time>2014-6-21T19:15:55Z</time></trkpt>
<trkpt lat="50.64921000" lon="5.73910900"><ele></ele><time>2014-6-21T19:15:58Z</time></trkpt>
<trkpt lat="50.64964900" lon="5.73856540"><ele></ele><time>2014-6-21T19:16:1Z</time></trkpt>
<trkpt lat="50.64993470" lon="5.73860260"><ele></ele><time>2014-6-21T19:16:4Z</time></trkpt>
<trkpt lat="50.65058850" lon="5.73927510"><ele></ele><time>2014-6-21T19:16:7Z</time></trkpt>
<trkpt lat="50.65076970" lon="5.73946130"><ele></ele><time>2014-6-21T19:16:10Z</time></trkpt>
<trkpt lat="50.65167540" lon="5.74049250"><ele></ele><time>2014-6-21T19:16:13Z</time></trkpt>
<trkpt lat="50.65277540" lon="5.74188970"><ele></ele><time>2014-6-21T19:16:16Z</time></trkpt>
<trkpt lat="50.65268540" lon="5.74221290"><ele></ele><time>2014-6-21T19:16:19Z</time></trkpt>
<trkpt lat="50.65257120" lon="5.74238510"><ele></ele><time>2014-6-21T19:16:22Z</time></trkpt>
<trkpt lat="50.65256700" lon="5.74239020"><ele></ele><time>2014-6-21T19:16:25Z</time></trkpt>
<trkpt lat="50.65256760" lon="5.74239160"><ele></ele><time>2014-6-21T19:16:28Z</time></trkpt>
<trkpt lat="50.65256570" lon="5.74239570"><ele></ele><time>2014-6-21T19:16:31Z</time></trkpt>
<trkpt lat="50.65256570" lon="5.74239570"><ele></ele><time>2014-6-21T19:16:34Z</time></trkpt>
<trkpt lat="50.65256570" lon="5.74239570"><ele></ele><time>2014-6-21T19:16:37Z</time></trkpt>
<trkpt lat="50.65256570" lon="5.74239570"><ele></ele><time>2014-6-21T19:16:40Z</time></trkpt>
<trkpt lat="50.65256570" lon="5.74239570"><ele></ele><time>2014-6-21T19:16:43Z</time></trkpt>
<trkpt lat="50.65256570" lon="5.74239570"><ele></ele><time>2014-6-21T19:16:46Z</time></trkpt>
<trkpt lat="50.65256570" lon="5.74239570"><ele></ele><time>2014-6-21T19:16:49Z</time></trkpt>
<trkpt lat="50.65256570" lon="5.74239570"><ele></ele><time>2014-6-21T19:16:52Z</time></trkpt>
<trkpt lat="50.65256570" lon="5.74239570"><ele></ele><time>2014-6-21T19:16:55Z</time></trkpt>
<trkpt lat="50.65256570" lon="5.74239570"><ele></ele><time>2014-6-21T19:16:58Z</time></trkpt>
<trkpt lat="50.65256570" lon="5.74239570"><ele></ele><time>2014-6-21T19:17:1Z</time></trkpt>
<trkpt lat="50.65256570" lon="5.74239570"><ele></ele><time>2014-6-21T19:17:4Z</time></trkpt>
<trkpt lat="50.65256570" lon="5.74239570"><ele></ele><time>2014-6-21T19:17:7Z</time></trkpt>
<trkpt lat="50.65256570" lon="5.74239570"><ele></ele><time>2014-6-21T19:17:10Z</time></trkpt>
<trkpt lat="50.65256570" lon="5.74239570"><ele></ele><time>2014-6-21T19:17:13Z</time></trkpt>
<trkpt lat="50.65256570" lon="5.74239570"><ele></ele><time>2014-6-21T19:17:16Z</time></trkpt>
<trkpt lat="50.65256570" lon="5.74239570"><ele></ele><time>2014-6-21T19:17:19Z</time></trkpt>
<trkpt lat="50.65256570" lon="5.74239570"><ele></ele><time>2014-6-21T19:17:22Z</time></trkpt>
<trkpt lat="50.65256570" lon="5.74239570"><ele></ele><time>2014-6-21T19:17:25Z</time></trkpt>
<trkpt lat="50.65256570" lon="5.74239570"><ele></ele><time>2014-6-21T19:17:28Z</time></trkpt>
<trkpt lat="50.65256570" lon="5.74239570"><ele></ele><time>2014-6-21T19:17:31Z</time></trkpt>
<trkpt lat="50.65256570" lon="5.74239570"><ele></ele><time>2014-6-21T19:17:34Z</time></trkpt>
<trkpt lat="50.65256570" lon="5.74239570"><ele></ele><time>2014-6-21T19:17:37Z</time></trkpt>
<trkpt lat="50.65256570" lon="5.74239570"><ele></ele><time>2014-6-21T19:17:40Z</time></trkpt>
<trkpt lat="50.65256570" lon="5.74239570"><ele></ele><time>2014-6-21T19:17:43Z</time></trkpt>
<trkpt lat="50.65256570" lon="5.74239570"><ele></ele><time>2014-6-21T19:17:46Z</time></trkpt>
<trkpt lat="50.65256570" lon="5.74239570"><ele></ele><time>2014-6-21T19:17:49Z</time></trkpt>
<trkpt lat="50.65256570" lon="5.74239570"><ele></ele><time>2014-6-21T19:17:52Z</time></trkpt>
<trkpt lat="50.65256570" lon="5.74239570"><ele></ele><time>2014-6-21T19:17:55Z</time></trkpt>
<trkpt lat="50.65256570" lon="5.74239570"><ele></ele><time>2014-6-21T19:17:58Z</time></trkpt>
<trkpt lat="50.65256570" lon="5.74239570"><ele></ele><time>2014-6-21T19:18:1Z</time></trkpt>
<trkpt lat="50.65256570" lon="5.74239570"><ele></ele><time>2014-6-21T19:18:4Z</time></trkpt>
<trkpt lat="50.65256570" lon="5.74239570"><ele></ele><time>2014-6-21T19:18:7Z</time></trkpt>
<trkpt lat="50.65256570" lon="5.74239570"><ele></ele><time>2014-6-21T19:18:10Z</time></trkpt>
<trkpt lat="50.65256570" lon="5.74239570"><ele></ele><time>2014-6-21T19:18:13Z</time></trkpt>
<trkpt lat="50.65256570" lon="5.74239570"><ele></ele><time>2014-6-21T19:18:16Z</time></trkpt>
<trkpt lat="50.65256570" lon="5.74239570"><ele></ele><time>2014-6-21T19:18:19Z</time></trkpt>
<trkpt lat="50.65256570" lon="5.74239570"><ele></ele><time>2014-6-21T19:18:22Z</time></trkpt>
<trkpt lat="50.65256570" lon="5.74239570"><ele></ele><time>2014-6-21T19:18:25Z</time></trkpt>
<trkpt lat="50.65256570" lon="5.74239570"><ele></ele><time>2014-6-21T19:18:28Z</time></trkpt>
<trkpt lat="50.65256570" lon="5.74239570"><ele></ele><time>2014-6-21T19:18:31Z</time></trkpt>
<trkpt lat="50.65256570" lon="5.74239570"><ele></ele><time>2014-6-21T19:18:34Z</time></trkpt>
<trkpt lat="50.65256570" lon="5.74239570"><ele></ele><time>2014-6-21T19:18:37Z</time></trkpt>
<trkpt lat="50.65256570" lon="5.74239570"><ele></ele><time>2014-6-21T19:18:40Z</time></trkpt>
<trkpt lat="50.65256570" lon="5.74239570"><ele></ele><time>2014-6-21T19:18:43Z</time></trkpt>
<trkpt lat="50.65256570" lon="5.74239570"><ele></ele><time>2014-6-21T19:18:46Z</time></trkpt>
<trkpt lat="50.65256570" lon="5.74239570"><ele></ele><time>2014-6-21T19:18:49Z</time></trkpt>
<trkpt lat="50.65256570" lon="5.74239570"><ele></ele><time>2014-6-21T19:18:52Z</time></trkpt>
<trkpt lat="50.65256570" lon="5.74239570"><ele></ele><time>2014-6-21T19:18:55Z</time></trkpt>
<trkpt lat="50.65256570" lon="5.74239570"><ele></ele><time>2014-6-21T19:18:58Z</time></trkpt>
<trkpt lat="50.65256570" lon="5.74239570"><ele></ele><time>2014-6-21T19:19:1Z</time></trkpt>
<trkpt lat="50.65256570" lon="5.74239570"><ele></ele><time>2014-6-21T19:19:4Z</time></trkpt>
<trkpt lat="50.65256570" lon="5.74239570"><ele></ele><time>2014-6-21T19:19:7Z</time></trkpt>
<trkpt lat="50.65256570" lon="5.74239570"><ele></ele><time>2014-6-21T19:19:10Z</time></trkpt>
<trkpt lat="50.65256570" lon="5.74239570"><ele></ele><time>2014-6-21T19:19:13Z</time></trkpt>
<trkpt lat="49.67784280" lon="5.79679150"><ele></ele><time>2014-6-21T19:19:16Z</time></trkpt>
<trkpt lat="49.67781940" lon="5.79679890"><ele></ele><time>2014-6-21T19:19:19Z</time></trkpt>
<trkpt lat="49.67756220" lon="5.79673830"><ele></ele><time>2014-6-21T19:19:22Z</time></trkpt>
<trkpt lat="49.67751680" lon="5.79662320"><ele></ele><time>2014-6-21T19:19:25Z</time></trkpt>
<trkpt lat="49.67695820" lon="5.79548570"><ele></ele><time>2014-6-21T19:19:28Z</time></trkpt>
<trkpt lat="49.67635560" lon="5.79394810"><ele></ele><time>2014-6-21T19:19:31Z</time></trkpt>
<trkpt lat="49.67562780" lon="5.79265470"><ele></ele><time>2014-6-21T19:19:34Z</time></trkpt>
<trkpt lat="49.67520680" lon="5.79212810"><ele></ele><time>2014-6-21T19:19:37Z</time></trkpt>
<trkpt lat="49.67512040" lon="5.79203370"><ele></ele><time>2014-6-21T19:19:40Z</time></trkpt>
<trkpt lat="49.67525960" lon="5.79188450"><ele></ele><time>2014-6-21T19:19:43Z</time></trkpt>
<trkpt lat="49.67591420" lon="5.79073130"><ele></ele><time>2014-6-21T19:19:46Z</time></trkpt>
<trkpt lat="49.67633120" lon="5.78956400"><ele></ele><time>2014-6-21T19:19:49Z</time></trkpt>
<trkpt lat="49.67687800" lon="5.78762870"><ele></ele><time>2014-6-21T19:19:52Z</time></trkpt>
<trkpt lat="49.67707290" lon="5.78654590"><ele></ele><time>2014-6-21T19:19:55Z</time></trkpt>
<trkpt lat="49.67745190" lon="5.78549580"><ele></ele><time>2014-6-21T19:19:58Z</time></trkpt>
<trkpt lat="49.67772960" lon="5.78498840"><ele></ele><time>2014-6-21T19:20:1Z</time></trkpt>
<trkpt lat="49.67796930" lon="5.78445520"><ele></ele><time>2014-6-21T19:20:4Z</time></trkpt>
<trkpt lat="49.67801330" lon="5.78389730"><ele></ele><time>2014-6-21T19:20:7Z</time></trkpt>
<trkpt lat="49.67801810" lon="5.78383640"><ele></ele><time>2014-6-21T19:20:10Z</time></trkpt>
<trkpt lat="49.67804160" lon="5.78353950"><ele></ele><time>2014-6-21T19:20:13Z</time></trkpt>
<trkpt lat="49.67807150" lon="5.78316060"><ele></ele><time>2014-6-21T19:20:16Z</time></trkpt>
<trkpt lat="49.67814920" lon="5.78296510"><ele></ele><time>2014-6-21T19:20:19Z</time></trkpt>
<trkpt lat="49.67830390" lon="5.78260400"><ele></ele><time>2014-6-21T19:20:22Z</time></trkpt>
<trkpt lat="49.67839650" lon="5.78237710"><ele></ele><time>2014-6-21T19:20:25Z</time></trkpt>
<trkpt lat="49.67848010" lon="5.78216790"><ele></ele><time>2014-6-21T19:20:28Z</time></trkpt>
<trkpt lat="49.67851950" lon="5.78206950"><ele></ele><time>2014-6-21T19:20:31Z</time></trkpt>
<trkpt lat="49.67880370" lon="5.78146680"><ele></ele><time>2014-6-21T19:20:34Z</time></trkpt>
<trkpt lat="49.67879140" lon="5.78130250"><ele></ele><time>2014-6-21T19:20:37Z</time></trkpt>
<trkpt lat="49.67888480" lon="5.78070990"><ele></ele><time>2014-6-21T19:20:40Z</time></trkpt>
<trkpt lat="49.67891080" lon="5.78066190"><ele></ele><time>2014-6-21T19:20:43Z</time></trkpt>
<trkpt lat="49.67899340" lon="5.78050930"><ele></ele><time>2014-6-21T19:20:46Z</time></trkpt>
<trkpt lat="49.67908880" lon="5.78033330"><ele></ele><time>2014-6-21T19:20:49Z</time></trkpt>
<trkpt lat="49.67933450" lon="5.77987980"><ele></ele><time>2014-6-21T19:20:52Z</time></trkpt>
<trkpt lat="49.67946490" lon="5.77961400"><ele></ele><time>2014-6-21T19:20:55Z</time></trkpt>
<trkpt lat="49.67953570" lon="5.77945480"><ele></ele><time>2014-6-21T19:20:58Z</time></trkpt>
<trkpt lat="49.67958060" lon="5.77935380"><ele></ele><time>2014-6-21T19:21:1Z</time></trkpt>
<trkpt lat="49.67982400" lon="5.77809140"><ele></ele><time>2014-6-21T19:21:4Z</time></trkpt>
<trkpt lat="49.67992150" lon="5.77653110"><ele></ele><time>2014-6-21T19:21:7Z</time></trkpt>
<trkpt lat="49.67997860" lon="5.77617260"><ele></ele><time>2014-6-21T19:21:10Z</time></trkpt>
<trkpt lat="49.68002630" lon="5.77600560"><ele></ele><time>2014-6-21T19:21:13Z</time></trkpt>
<trkpt lat="49.68001540" lon="5.77555420"><ele></ele><time>2014-6-21T19:21:16Z</time></trkpt>
<trkpt lat="49.68020840" lon="5.77481100"><ele></ele><time>2014-6-21T19:21:19Z</time></trkpt>
<trkpt lat="49.68019770" lon="5.77471460"><ele></ele><time>2014-6-21T19:21:22Z</time></trkpt>
<trkpt lat="49.67990120" lon="5.77261210"><ele></ele><time>2014-6-21T19:21:25Z</time></trkpt>
<trkpt lat="49.67977890" lon="5.77187870"><ele></ele><time>2014-6-21T19:21:28Z</time></trkpt>
<trkpt lat="49.67993650" lon="5.77158250"><ele></ele><time>2014-6-21T19:21:31Z</time></trkpt>
<trkpt lat="49.68028380" lon="5.77139540"><ele></ele><time>2014-6-21T19:21:34Z</time></trkpt>
<trkpt lat="49.68141990" lon="5.77078380"><ele></ele><time>2014-6-21T19:21:37Z</time></trkpt>
<trkpt lat="49.68257340" lon="5.77067300"><ele></ele><time>2014-6-21T19:21:40Z</time></trkpt>
<trkpt lat="49.68290360" lon="5.77069370"><ele></ele><time>2014-6-21T19:21:43Z</time></trkpt>
<trkpt lat="49.68387760" lon="5.77064390"><ele></ele><time>2014-6-21T19:21:46Z</time></trkpt>
<trkpt lat="49.68483800" lon="5.77015790"><ele></ele><time>2014-6-21T19:21:49Z</time></trkpt>
<trkpt lat="49.68510150" lon="5.77001580"><ele></ele><time>2014-6-21T19:21:52Z</time></trkpt>
<trkpt lat="49.68611690" lon="5.76928730"><ele></ele><time>2014-6-21T19:21:55Z</time></trkpt>
<trkpt lat="49.68629010" lon="5.76916110"><ele></ele><time>2014-6-21T19:21:58Z</time></trkpt>
<trkpt lat="49.68660180" lon="5.76899110"><ele></ele><time>2014-6-21T19:22:1Z</time></trkpt>
<trkpt lat="49.68683780" lon="5.76894620"><ele></ele><time>2014-6-21T19:22:4Z</time></trkpt>
<trkpt lat="49.68695450" lon="5.76895290"><ele></ele><time>2014-6-21T19:22:7Z</time></trkpt>
<trkpt lat="49.68714330" lon="5.76896400"><ele></ele><time>2014-6-21T19:22:10Z</time></trkpt>
<trkpt lat="49.68778270" lon="5.76914180"><ele></ele><time>2014-6-21T19:22:13Z</time></trkpt>
<trkpt lat="49.68813760" lon="5.76930320"><ele></ele><time>2014-6-21T19:22:16Z</time></trkpt>
<trkpt lat="49.68863950" lon="5.76941010"><ele></ele><time>2014-6-21T19:22:19Z</time></trkpt>
<trkpt lat="49.68878480" lon="5.76941010"><ele></ele><time>2014-6-21T19:22:22Z</time></trkpt>
<trkpt lat="49.68902490" lon="5.76932770"><ele></ele><time>2014-6-21T19:22:25Z</time></trkpt>
<trkpt lat="49.68943140" lon="5.76912900"><ele></ele><time>2014-6-21T19:22:28Z</time></trkpt>
<trkpt lat="49.68952640" lon="5.76910940"><ele></ele><time>2014-6-21T19:22:31Z</time></trkpt>
<trkpt lat="49.68993130" lon="5.76902560"><ele></ele><time>2014-6-21T19:22:34Z</time></trkpt>
<trkpt lat="49.69041800" lon="5.76892470"><ele></ele><time>2014-6-21T19:22:37Z</time></trkpt>
<trkpt lat="49.69087210" lon="5.76880890"><ele></ele><time>2014-6-21T19:22:40Z</time></trkpt>
<trkpt lat="49.69089430" lon="5.76880270"><ele></ele><time>2014-6-21T19:22:43Z</time></trkpt>
<trkpt lat="49.69089430" lon="5.76880270"><ele></ele><time>2014-6-21T19:22:46Z</time></trkpt>
<trkpt lat="49.69114830" lon="5.76873200"><ele></ele><time>2014-6-21T19:22:49Z</time></trkpt>
<trkpt lat="49.69164660" lon="5.76854510"><ele></ele><time>2014-6-21T19:22:52Z</time></trkpt>
<trkpt lat="49.69205750" lon="5.76836710"><ele></ele><time>2014-6-21T19:22:55Z</time></trkpt>
<trkpt lat="49.69284440" lon="5.76788350"><ele></ele><time>2014-6-21T19:22:58Z</time></trkpt>
<trkpt lat="49.69312410" lon="5.76781200"><ele></ele><time>2014-6-21T19:23:1Z</time></trkpt>
<trkpt lat="49.69311440" lon="5.76759420"><ele></ele><time>2014-6-21T19:23:4Z</time></trkpt>
<trkpt lat="49.69326920" lon="5.76747890"><ele></ele><time>2014-6-21T19:23:7Z</time></trkpt>
<trkpt lat="49.69359850" lon="5.76747890"><ele></ele><time>2014-6-21T19:23:10Z</time></trkpt>
<trkpt lat="49.69412070" lon="5.76747890"><ele></ele><time>2014-6-21T19:23:13Z</time></trkpt>
<trkpt lat="49.69425040" lon="5.76747890"><ele></ele><time>2014-6-21T19:23:16Z</time></trkpt>
<trkpt lat="49.69437840" lon="5.76747890"><ele></ele><time>2014-6-21T19:23:19Z</time></trkpt>
<trkpt lat="49.69480580" lon="5.76747890"><ele></ele><time>2014-6-21T19:23:22Z</time></trkpt>
<trkpt lat="49.69529960" lon="5.76747890"><ele></ele><time>2014-6-21T19:23:25Z</time></trkpt>
<trkpt lat="49.69580670" lon="5.76747790"><ele></ele><time>2014-6-21T19:23:28Z</time></trkpt>
<trkpt lat="49.69590190" lon="5.76746840"><ele></ele><time>2014-6-21T19:23:31Z</time></trkpt>
<trkpt lat="49.69622750" lon="5.76720030"><ele></ele><time>2014-6-21T19:23:34Z</time></trkpt>
<trkpt lat="49.69664920" lon="5.76695220"><ele></ele><time>2014-6-21T19:23:37Z</time></trkpt>
<trkpt lat="49.69706590" lon="5.76676710"><ele></ele><time>2014-6-21T19:23:40Z</time></trkpt>
<trkpt lat="49.69738240" lon="5.76655920"><ele></ele><time>2014-6-21T19:23:43Z</time></trkpt>
<trkpt lat="49.69748230" lon="5.76684460"><ele></ele><time>2014-6-21T19:23:46Z</time></trkpt>
<trkpt lat="49.69751150" lon="5.76783680"><ele></ele><time>2014-6-21T19:23:49Z</time></trkpt>
<trkpt lat="49.69778200" lon="5.76839830"><ele></ele><time>2014-6-21T19:23:52Z</time></trkpt>
<trkpt lat="49.69792420" lon="5.76865810"><ele></ele><time>2014-6-21T19:23:55Z</time></trkpt>
<trkpt lat="49.69816490" lon="5.76921570"><ele></ele><time>2014-6-21T19:23:58Z</time></trkpt>
<trkpt lat="49.69826030" lon="5.76933500"><ele></ele><time>2014-6-21T19:24:1Z</time></trkpt>
<trkpt lat="49.69886060" lon="5.77001340"><ele></ele><time>2014-6-21T19:24:4Z</time></trkpt>
<trkpt lat="49.69902810" lon="5.77019280"><ele></ele><time>2014-6-21T19:24:7Z</time></trkpt>
<trkpt lat="49.69991720" lon="5.77083020"><ele></ele><time>2014-6-21T19:24:10Z</time></trkpt>
<trkpt lat="49.70023170" lon="5.77105300"><ele></ele><time>2014-6-21T19:24:13Z</time></trkpt>
<trkpt lat="49.70029740" lon="5.77109950"><ele></ele><time>2014-6-21T19:24:16Z</time></trkpt>
<trkpt lat="49.70062750" lon="5.77126840"><ele></ele><time>2014-6-21T19:24:19Z</time></trkpt>
<trkpt lat="49.70166300" lon="5.77149150"><ele></ele><time>2014-6-21T19:24:22Z</time></trkpt>
<trkpt lat="49.70251140" lon="5.77179790"><ele></ele><time>2014-6-21T19:24:25Z</time></trkpt>
<trkpt lat="49.70282230" lon="5.77195940"><ele></ele><time>2014-6-21T19:24:28Z</time></trkpt>
<trkpt lat="49.70305790" lon="5.77243060"><ele></ele><time>2014-6-21T19:24:31Z</time></trkpt>
<trkpt lat="49.70312400" lon="5.77256270"><ele></ele><time>2014-6-21T19:24:34Z</time></trkpt>
<trkpt lat="49.70341850" lon="5.77315190"><ele></ele><time>2014-6-21T19:24:37Z</time></trkpt>
<trkpt lat="49.70364410" lon="5.77360290"><ele></ele><time>2014-6-21T19:24:40Z</time></trkpt>
<trkpt lat="49.70384990" lon="5.77394920"><ele></ele><time>2014-6-21T19:24:43Z</time></trkpt>
<trkpt lat="49.70453290" lon="5.77492210"><ele></ele><time>2014-6-21T19:24:46Z</time></trkpt>
<trkpt lat="49.70479850" lon="5.77530040"><ele></ele><time>2014-6-21T19:24:49Z</time></trkpt>
<trkpt lat="49.70495670" lon="5.77552570"><ele></ele><time>2014-6-21T19:24:52Z</time></trkpt>
<trkpt lat="49.70518960" lon="5.77604010"><ele></ele><time>2014-6-21T19:24:55Z</time></trkpt>
<trkpt lat="49.70514330" lon="5.77646480"><ele></ele><time>2014-6-21T19:24:58Z</time></trkpt>
<trkpt lat="49.70503100" lon="5.77666710"><ele></ele><time>2014-6-21T19:25:1Z</time></trkpt>
<trkpt lat="49.70497040" lon="5.77720740"><ele></ele><time>2014-6-21T19:25:4Z</time></trkpt>
<trkpt lat="49.70498560" lon="5.77738210"><ele></ele><time>2014-6-21T19:25:7Z</time></trkpt>
<trkpt lat="49.70501810" lon="5.77775700"><ele></ele><time>2014-6-21T19:25:10Z</time></trkpt>
<trkpt lat="49.70500680" lon="5.77788060"><ele></ele><time>2014-6-21T19:25:13Z</time></trkpt>
<trkpt lat="49.70495320" lon="5.77806850"><ele></ele><time>2014-6-21T19:25:16Z</time></trkpt>
<trkpt lat="49.70475730" lon="5.77855550"><ele></ele><time>2014-6-21T19:25:19Z</time></trkpt>
<trkpt lat="49.70471800" lon="5.77866280"><ele></ele><time>2014-6-21T19:25:22Z</time></trkpt>
<trkpt lat="49.70461080" lon="5.77918080"><ele></ele><time>2014-6-21T19:25:25Z</time></trkpt>
<trkpt lat="49.70449380" lon="5.77974660"><ele></ele><time>2014-6-21T19:25:28Z</time></trkpt>
<trkpt lat="49.70446590" lon="5.77988860"><ele></ele><time>2014-6-21T19:25:31Z</time></trkpt>
<trkpt lat="49.70469670" lon="5.78028990"><ele></ele><time>2014-6-21T19:25:34Z</time></trkpt>
<trkpt lat="49.70541750" lon="5.78076120"><ele></ele><time>2014-6-21T19:25:37Z</time></trkpt>
<trkpt lat="49.70650360" lon="5.78157590"><ele></ele><time>2014-6-21T19:25:40Z</time></trkpt>
<trkpt lat="49.70694800" lon="5.78202030"><ele></ele><time>2014-6-21T19:25:43Z</time></trkpt>
<trkpt lat="49.70731810" lon="5.78286850"><ele></ele><time>2014-6-21T19:25:46Z</time></trkpt>
<trkpt lat="49.70743210" lon="5.78357730"><ele></ele><time>2014-6-21T19:25:49Z</time></trkpt>
<trkpt lat="49.70759530" lon="5.78366960"><ele></ele><time>2014-6-21T19:25:52Z</time></trkpt>
<trkpt lat="49.70798520" lon="5.78383920"><ele></ele><time>2014-6-21T19:25:55Z</time></trkpt>
<trkpt lat="49.70837710" lon="5.78400970"><ele></ele><time>2014-6-21T19:25:58Z</time></trkpt>
<trkpt lat="49.70884660" lon="5.78416900"><ele></ele><time>2014-6-21T19:26:1Z</time></trkpt>
<trkpt lat="49.70922810" lon="5.78429100"><ele></ele><time>2014-6-21T19:26:4Z</time></trkpt>
<trkpt lat="49.70961630" lon="5.78445670"><ele></ele><time>2014-6-21T19:26:7Z</time></trkpt>
<trkpt lat="49.70966500" lon="5.78449580"><ele></ele><time>2014-6-21T19:26:10Z</time></trkpt>
<trkpt lat="49.70978110" lon="5.78462030"><ele></ele><time>2014-6-21T19:26:13Z</time></trkpt>
<trkpt lat="49.70987800" lon="5.78478830"><ele></ele><time>2014-6-21T19:26:16Z</time></trkpt>
<trkpt lat="49.70991490" lon="5.78489890"><ele></ele><time>2014-6-21T19:26:19Z</time></trkpt>
<trkpt lat="49.70993820" lon="5.78500080"><ele></ele><time>2014-6-21T19:26:22Z</time></trkpt>
<trkpt lat="49.70998830" lon="5.78522230"><ele></ele><time>2014-6-21T19:26:25Z</time></trkpt>
<trkpt lat="49.71006810" lon="5.78557560"><ele></ele><time>2014-6-21T19:26:28Z</time></trkpt>
<trkpt lat="49.71014290" lon="5.78590680"><ele></ele><time>2014-6-21T19:26:31Z</time></trkpt>
<trkpt lat="49.71014950" lon="5.78593600"><ele></ele><time>2014-6-21T19:26:34Z</time></trkpt>
<trkpt lat="49.71019880" lon="5.78615420"><ele></ele><time>2014-6-21T19:26:37Z</time></trkpt>
<trkpt lat="49.71020790" lon="5.78626460"><ele></ele><time>2014-6-21T19:26:40Z</time></trkpt>
<trkpt lat="49.71015320" lon="5.78646500"><ele></ele><time>2014-6-21T19:26:43Z</time></trkpt>
<trkpt lat="49.71009390" lon="5.78668240"><ele></ele><time>2014-6-21T19:26:46Z</time></trkpt>
<trkpt lat="49.71008780" lon="5.78670500"><ele></ele><time>2014-6-21T19:26:49Z</time></trkpt>
<trkpt lat="49.70986580" lon="5.78673270"><ele></ele><time>2014-6-21T19:26:52Z</time></trkpt>
<trkpt lat="49.70960610" lon="5.78686650"><ele></ele><time>2014-6-21T19:26:55Z</time></trkpt>
<trkpt lat="49.70957100" lon="5.78689650"><ele></ele><time>2014-6-21T19:26:58Z</time></trkpt>
<trkpt lat="49.70945130" lon="5.78699910"><ele></ele><time>2014-6-21T19:27:1Z</time></trkpt>
<trkpt lat="49.70908160" lon="5.78731490"><ele></ele><time>2014-6-21T19:27:4Z</time></trkpt>
<trkpt lat="49.70900120" lon="5.78738230"><ele></ele><time>2014-6-21T19:27:7Z</time></trkpt>
<trkpt lat="49.70849920" lon="5.78780340"><ele></ele><time>2014-6-21T19:27:10Z</time></trkpt>
<trkpt lat="49.70812520" lon="5.78811690"><ele></ele><time>2014-6-21T19:27:13Z</time></trkpt>
<trkpt lat="49.70755670" lon="5.78847770"><ele></ele><time>2014-6-21T19:27:16Z</time></trkpt>
<trkpt lat="49.70742480" lon="5.78852870"><ele></ele><time>2014-6-21T19:27:19Z</time></trkpt>
<trkpt lat="49.70630220" lon="5.78896230"><ele></ele><time>2014-6-21T19:27:22Z</time></trkpt>
<trkpt lat="49.70557180" lon="5.78933300"><ele></ele><time>2014-6-21T19:27:25Z</time></trkpt>
<trkpt lat="49.70479630" lon="5.78974360"><ele></ele><time>2014-6-21T19:27:28Z</time></trkpt>
<trkpt lat="49.70364130" lon="5.78974240"><ele></ele><time>2014-6-21T19:27:31Z</time></trkpt>
<trkpt lat="49.70264760" lon="5.78959690"><ele></ele><time>2014-6-21T19:27:34Z</time></trkpt>
<trkpt lat="49.70179210" lon="5.79014410"><ele></ele><time>2014-6-21T19:27:37Z</time></trkpt>
<trkpt lat="49.70123890" lon="5.79068420"><ele></ele><time>2014-6-21T19:27:40Z</time></trkpt>
<trkpt lat="49.70095380" lon="5.79109590"><ele></ele><time>2014-6-21T19:27:43Z</time></trkpt>
<trkpt lat="49.70087970" lon="5.79121130"><ele></ele><time>2014-6-21T19:27:46Z</time></trkpt>
<trkpt lat="49.70060000" lon="5.79170930"><ele></ele><time>2014-6-21T19:27:49Z</time></trkpt>
<trkpt lat="49.70038430" lon="5.79209370"><ele></ele><time>2014-6-21T19:27:52Z</time></trkpt>
<trkpt lat="49.69963110" lon="5.79343530"><ele></ele><time>2014-6-21T19:27:55Z</time></trkpt>
<trkpt lat="49.69930790" lon="5.79375650"><ele></ele><time>2014-6-21T19:27:58Z</time></trkpt>
<trkpt lat="49.69916430" lon="5.79384820"><ele></ele><time>2014-6-21T19:28:1Z</time></trkpt>
<trkpt lat="49.69831720" lon="5.79438940"><ele></ele><time>2014-6-21T19:28:4Z</time></trkpt>
<trkpt lat="49.69805120" lon="5.79455930"><ele></ele><time>2014-6-21T19:28:7Z</time></trkpt>
<trkpt lat="49.69785690" lon="5.79490180"><ele></ele><time>2014-6-21T19:28:10Z</time></trkpt>
<trkpt lat="49.69765880" lon="5.79501170"><ele></ele><time>2014-6-21T19:28:13Z</time></trkpt>
<trkpt lat="49.69714130" lon="5.79544550"><ele></ele><time>2014-6-21T19:28:16Z</time></trkpt>
<trkpt lat="49.69647310" lon="5.79675350"><ele></ele><time>2014-6-21T19:28:19Z</time></trkpt>
<trkpt lat="49.69559550" lon="5.79814360"><ele></ele><time>2014-6-21T19:28:22Z</time></trkpt>
<trkpt lat="49.69520920" lon="5.79922070"><ele></ele><time>2014-6-21T19:28:25Z</time></trkpt>
<trkpt lat="49.69511030" lon="5.80008100"><ele></ele><time>2014-6-21T19:28:28Z</time></trkpt>
<trkpt lat="49.69476480" lon="5.80053700"><ele></ele><time>2014-6-21T19:28:31Z</time></trkpt>
<trkpt lat="49.69443140" lon="5.80093330"><ele></ele><time>2014-6-21T19:28:34Z</time></trkpt>
<trkpt lat="49.69423670" lon="5.80115720"><ele></ele><time>2014-6-21T19:28:37Z</time></trkpt>
<trkpt lat="49.69356390" lon="5.80189240"><ele></ele><time>2014-6-21T19:28:40Z</time></trkpt>
<trkpt lat="49.69351890" lon="5.80193610"><ele></ele><time>2014-6-21T19:28:43Z</time></trkpt>
<trkpt lat="49.69317290" lon="5.80227260"><ele></ele><time>2014-6-21T19:28:46Z</time></trkpt>
<trkpt lat="49.69267940" lon="5.80275230"><ele></ele><time>2014-6-21T19:28:49Z</time></trkpt>
<trkpt lat="49.69226240" lon="5.80315780"><ele></ele><time>2014-6-21T19:28:52Z</time></trkpt>
<trkpt lat="49.69209890" lon="5.80332580"><ele></ele><time>2014-6-21T19:28:55Z</time></trkpt>
<trkpt lat="49.69152580" lon="5.80392090"><ele></ele><time>2014-6-21T19:28:58Z</time></trkpt>
<trkpt lat="49.69092430" lon="5.80454550"><ele></ele><time>2014-6-21T19:29:1Z</time></trkpt>
<trkpt lat="49.69029420" lon="5.80520000"><ele></ele><time>2014-6-21T19:29:4Z</time></trkpt>
<trkpt lat="49.69019320" lon="5.80530480"><ele></ele><time>2014-6-21T19:29:7Z</time></trkpt>
<trkpt lat="49.69009080" lon="5.80541110"><ele></ele><time>2014-6-21T19:29:10Z</time></trkpt>
<trkpt lat="49.68943990" lon="5.80654120"><ele></ele><time>2014-6-21T19:29:13Z</time></trkpt>
<trkpt lat="49.68903090" lon="5.80674970"><ele></ele><time>2014-6-21T19:29:16Z</time></trkpt>
<trkpt lat="49.68898810" lon="5.80675010"><ele></ele><time>2014-6-21T19:29:19Z</time></trkpt>
<trkpt lat="49.68807780" lon="5.80676010"><ele></ele><time>2014-6-21T19:29:22Z</time></trkpt>
<trkpt lat="49.68712070" lon="5.80677040"><ele></ele><time>2014-6-21T19:29:25Z</time></trkpt>
<trkpt lat="49.68603050" lon="5.80678230"><ele></ele><time>2014-6-21T19:29:28Z</time></trkpt>
<trkpt lat="49.68538400" lon="5.80678930"><ele></ele><time>2014-6-21T19:29:31Z</time></trkpt>
<trkpt lat="49.68538400" lon="5.80678930"><ele></ele><time>2014-6-21T19:29:34Z</time></trkpt>
<trkpt lat="49.68538400" lon="5.80678930"><ele></ele><time>2014-6-21T19:29:37Z</time></trkpt>
<trkpt lat="49.68534620" lon="5.80710640"><ele></ele><time>2014-6-21T19:29:40Z</time></trkpt>
<trkpt lat="49.68531250" lon="5.80758470"><ele></ele><time>2014-6-21T19:29:43Z</time></trkpt>
<trkpt lat="49.68530760" lon="5.80765570"><ele></ele><time>2014-6-21T19:29:46Z</time></trkpt>
<trkpt lat="49.68529750" lon="5.80779820"><ele></ele><time>2014-6-21T19:29:49Z</time></trkpt>
<trkpt lat="49.68528790" lon="5.80793500"><ele></ele><time>2014-6-21T19:29:52Z</time></trkpt>
<trkpt lat="49.68521890" lon="5.80891450"><ele></ele><time>2014-6-21T19:29:55Z</time></trkpt>
<trkpt lat="49.68516990" lon="5.80961120"><ele></ele><time>2014-6-21T19:29:58Z</time></trkpt>
<trkpt lat="49.68488250" lon="5.80947440"><ele></ele><time>2014-6-21T19:30:1Z</time></trkpt>
<trkpt lat="49.68442150" lon="5.80884040"><ele></ele><time>2014-6-21T19:30:4Z</time></trkpt>
<trkpt lat="49.68389930" lon="5.80811800"><ele></ele><time>2014-6-21T19:30:7Z</time></trkpt>
<trkpt lat="49.68376780" lon="5.80793920"><ele></ele><time>2014-6-21T19:30:10Z</time></trkpt>
<trkpt lat="49.68327110" lon="5.80726350"><ele></ele><time>2014-6-21T19:30:13Z</time></trkpt>
<trkpt lat="49.68316070" lon="5.80711340"><ele></ele><time>2014-6-21T19:30:16Z</time></trkpt>
<trkpt lat="49.68261440" lon="5.80637560"><ele></ele><time>2014-6-21T19:30:19Z</time></trkpt>
<trkpt lat="49.68247970" lon="5.80622600"><ele></ele><time>2014-6-21T19:30:22Z</time></trkpt>
<trkpt lat="49.68210370" lon="5.80600260"><ele></ele><time>2014-6-21T19:30:25Z</time></trkpt>
<trkpt lat="49.68196670" lon="5.80593820"><ele></ele><time>2014-6-21T19:30:28Z</time></trkpt>
<trkpt lat="49.68172100" lon="5.80582250"><ele></ele><time>2014-6-21T19:30:31Z</time></trkpt>
<trkpt lat="49.68167780" lon="5.80580230"><ele></ele><time>2014-6-21T19:30:34Z</time></trkpt>
<trkpt lat="49.68124440" lon="5.80559430"><ele></ele><time>2014-6-21T19:30:37Z</time></trkpt>
<trkpt lat="49.68080010" lon="5.80538100"><ele></ele><time>2014-6-21T19:30:40Z</time></trkpt>
<trkpt lat="49.68072910" lon="5.80534700"><ele></ele><time>2014-6-21T19:30:43Z</time></trkpt>
<trkpt lat="49.68040130" lon="5.80538910"><ele></ele><time>2014-6-21T19:30:46Z</time></trkpt>
<trkpt lat="49.68004750" lon="5.80552310"><ele></ele><time>2014-6-21T19:30:49Z</time></trkpt>
<trkpt lat="49.67972920" lon="5.80561850"><ele></ele><time>2014-6-21T19:30:52Z</time></trkpt>
<trkpt lat="49.67911800" lon="5.80555350"><ele></ele><time>2014-6-21T19:30:55Z</time></trkpt>
<trkpt lat="49.67903530" lon="5.80543670"><ele></ele><time>2014-6-21T19:30:58Z</time></trkpt>
<trkpt lat="49.67890420" lon="5.80522680"><ele></ele><time>2014-6-21T19:31:1Z</time></trkpt>
<trkpt lat="49.67863450" lon="5.80478340"><ele></ele><time>2014-6-21T19:31:4Z</time></trkpt>
<trkpt lat="49.67813310" lon="5.80371700"><ele></ele><time>2014-6-21T19:31:7Z</time></trkpt>
<trkpt lat="49.67803390" lon="5.80336960"><ele></ele><time>2014-6-21T19:31:10Z</time></trkpt>
<trkpt lat="49.67802240" lon="5.80323330"><ele></ele><time>2014-6-21T19:31:13Z</time></trkpt>
<trkpt lat="49.67793380" lon="5.80162820"><ele></ele><time>2014-6-21T19:31:16Z</time></trkpt>
<trkpt lat="49.67788140" lon="5.79984670"><ele></ele><time>2014-6-21T19:31:19Z</time></trkpt>
<trkpt lat="49.67779460" lon="5.79820330"><ele></ele><time>2014-6-21T19:31:22Z</time></trkpt>
<trkpt lat="49.67778370" lon="5.79805540"><ele></ele><time>2014-6-21T19:31:25Z</time></trkpt>
<trkpt lat="49.67753630" lon="5.79703980"><ele></ele><time>2014-6-21T19:31:28Z</time></trkpt>
<trkpt lat="49.67794800" lon="5.79675740"><ele></ele><time>2014-6-21T19:31:31Z</time></trkpt>
<trkpt lat="49.67870890" lon="5.79639810"><ele></ele><time>2014-6-21T19:31:34Z</time></trkpt>
<trkpt lat="49.67931650" lon="5.79613620"><ele></ele><time>2014-6-21T19:31:37Z</time></trkpt>
<trkpt lat="49.67948990" lon="5.79609690"><ele></ele><time>2014-6-21T19:31:40Z</time></trkpt>
<trkpt lat="49.67908900" lon="5.79635990"><ele></ele><time>2014-6-21T19:31:43Z</time></trkpt>
<trkpt lat="49.71003000" lon="5.82153000"><ele></ele><time>2014-6-21T19:31:46Z</time></trkpt>
<trkpt lat="49.71013000" lon="5.82166000"><ele></ele><time>2014-6-21T19:31:49Z</time></trkpt>
<trkpt lat="49.71003000" lon="5.82207000"><ele></ele><time>2014-6-21T19:31:52Z</time></trkpt>
<trkpt lat="49.71003000" lon="5.82247000"><ele></ele><time>2014-6-21T19:31:55Z</time></trkpt>
<trkpt lat="49.71033000" lon="5.82461000"><ele></ele><time>2014-6-21T19:31:58Z</time></trkpt>
<trkpt lat="49.70998000" lon="5.82719000"><ele></ele><time>2014-6-21T19:32:1Z</time></trkpt>
<trkpt lat="49.70991000" lon="5.82888000"><ele></ele><time>2014-6-21T19:32:4Z</time></trkpt>
<trkpt lat="49.70989000" lon="5.83143000"><ele></ele><time>2014-6-21T19:32:7Z</time></trkpt>
<trkpt lat="49.70998000" lon="5.83299000"><ele></ele><time>2014-6-21T19:32:10Z</time></trkpt>
<trkpt lat="49.71010000" lon="5.83415000"><ele></ele><time>2014-6-21T19:32:13Z</time></trkpt>
<trkpt lat="49.71107000" lon="5.83588000"><ele></ele><time>2014-6-21T19:32:16Z</time></trkpt>
<trkpt lat="49.71115000" lon="5.83621000"><ele></ele><time>2014-6-21T19:32:19Z</time></trkpt>
<trkpt lat="49.71113000" lon="5.83641000"><ele></ele><time>2014-6-21T19:32:22Z</time></trkpt>
<trkpt lat="49.71098000" lon="5.83663000"><ele></ele><time>2014-6-21T19:32:25Z</time></trkpt>
<trkpt lat="49.70976000" lon="5.83789000"><ele></ele><time>2014-6-21T19:32:28Z</time></trkpt>
<trkpt lat="49.71021000" lon="5.83813000"><ele></ele><time>2014-6-21T19:32:31Z</time></trkpt>
<trkpt lat="49.71049000" lon="5.83821000"><ele></ele><time>2014-6-21T19:32:34Z</time></trkpt>
<trkpt lat="49.71057000" lon="5.83823000"><ele></ele><time>2014-6-21T19:32:37Z</time></trkpt>
<trkpt lat="49.71065000" lon="5.83825000"><ele></ele><time>2014-6-21T19:32:40Z</time></trkpt>
<trkpt lat="49.71119000" lon="5.83834000"><ele></ele><time>2014-6-21T19:32:43Z</time></trkpt>
<trkpt lat="49.71177000" lon="5.83854000"><ele></ele><time>2014-6-21T19:32:46Z</time></trkpt>
<trkpt lat="49.71257000" lon="5.83849000"><ele></ele><time>2014-6-21T19:32:49Z</time></trkpt>
<trkpt lat="49.71278000" lon="5.83865000"><ele></ele><time>2014-6-21T19:32:52Z</time></trkpt>
<trkpt lat="49.71286000" lon="5.83977000"><ele></ele><time>2014-6-21T19:32:55Z</time></trkpt>
<trkpt lat="49.71502000" lon="5.84527000"><ele></ele><time>2014-6-21T19:32:58Z</time></trkpt>
<trkpt lat="49.71684000" lon="5.84860000"><ele></ele><time>2014-6-21T19:33:1Z</time></trkpt>
<trkpt lat="49.71699000" lon="5.84884000"><ele></ele><time>2014-6-21T19:33:4Z</time></trkpt>
<trkpt lat="49.71710000" lon="5.84901000"><ele></ele><time>2014-6-21T19:33:7Z</time></trkpt>
<trkpt lat="49.71775000" lon="5.85187000"><ele></ele><time>2014-6-21T19:33:10Z</time></trkpt>
<trkpt lat="49.71799000" lon="5.85245000"><ele></ele><time>2014-6-21T19:33:13Z</time></trkpt>
<trkpt lat="49.71851000" lon="5.85317000"><ele></ele><time>2014-6-21T19:33:16Z</time></trkpt>
<trkpt lat="49.71881000" lon="5.85374000"><ele></ele><time>2014-6-21T19:33:19Z</time></trkpt>
<trkpt lat="49.71901000" lon="5.85385000"><ele></ele><time>2014-6-21T19:33:22Z</time></trkpt>
<trkpt lat="49.71940000" lon="5.85403000"><ele></ele><time>2014-6-21T19:33:25Z</time></trkpt>
<trkpt lat="49.71969000" lon="5.85381000"><ele></ele><time>2014-6-21T19:33:28Z</time></trkpt>
<trkpt lat="49.71973000" lon="5.85377000"><ele></ele><time>2014-6-21T19:33:31Z</time></trkpt>
<trkpt lat="49.71969000" lon="5.85381000"><ele></ele><time>2014-6-21T19:33:34Z</time></trkpt>
<trkpt lat="49.72002000" lon="5.85456000"><ele></ele><time>2014-6-21T19:33:37Z</time></trkpt>
<trkpt lat="49.72049000" lon="5.85556000"><ele></ele><time>2014-6-21T19:33:40Z</time></trkpt>
<trkpt lat="49.72063000" lon="5.85743000"><ele></ele><time>2014-6-21T19:33:43Z</time></trkpt>
<trkpt lat="49.71830000" lon="5.86017000"><ele></ele><time>2014-6-21T19:33:46Z</time></trkpt>
<trkpt lat="49.71809000" lon="5.86053000"><ele></ele><time>2014-6-21T19:33:49Z</time></trkpt>
<trkpt lat="49.71798000" lon="5.86112000"><ele></ele><time>2014-6-21T19:33:52Z</time></trkpt>
<trkpt lat="49.71802000" lon="5.86183000"><ele></ele><time>2014-6-21T19:33:55Z</time></trkpt>
<trkpt lat="49.71864000" lon="5.86576000"><ele></ele><time>2014-6-21T19:33:58Z</time></trkpt>
<trkpt lat="49.71920000" lon="5.86822000"><ele></ele><time>2014-6-21T19:34:1Z</time></trkpt>
<trkpt lat="49.71921000" lon="5.86960000"><ele></ele><time>2014-6-21T19:34:4Z</time></trkpt>
<trkpt lat="49.71880000" lon="5.87053000"><ele></ele><time>2014-6-21T19:34:7Z</time></trkpt>
<trkpt lat="49.71805000" lon="5.87188000"><ele></ele><time>2014-6-21T19:34:10Z</time></trkpt>
<trkpt lat="49.71756000" lon="5.87369000"><ele></ele><time>2014-6-21T19:34:13Z</time></trkpt>
<trkpt lat="49.71731000" lon="5.87418000"><ele></ele><time>2014-6-21T19:34:16Z</time></trkpt>
<trkpt lat="49.71700000" lon="5.87455000"><ele></ele><time>2014-6-21T19:34:19Z</time></trkpt>
<trkpt lat="49.71659000" lon="5.87477000"><ele></ele><time>2014-6-21T19:34:22Z</time></trkpt>
<trkpt lat="49.71607000" lon="5.87464000"><ele></ele><time>2014-6-21T19:34:25Z</time></trkpt>
<trkpt lat="49.71579000" lon="5.87470000"><ele></ele><time>2014-6-21T19:34:28Z</time></trkpt>
<trkpt lat="49.71521000" lon="5.87585000"><ele></ele><time>2014-6-21T19:34:31Z</time></trkpt>
<trkpt lat="49.71461000" lon="5.87604000"><ele></ele><time>2014-6-21T19:34:34Z</time></trkpt>
<trkpt lat="49.71376000" lon="5.87605000"><ele></ele><time>2014-6-21T19:34:37Z</time></trkpt>
<trkpt lat="49.71280000" lon="5.87636000"><ele></ele><time>2014-6-21T19:34:40Z</time></trkpt>
<trkpt lat="49.71262000" lon="5.87642000"><ele></ele><time>2014-6-21T19:34:43Z</time></trkpt>
<trkpt lat="49.71238000" lon="5.87540000"><ele></ele><time>2014-6-21T19:34:46Z</time></trkpt>
<trkpt lat="49.71209000" lon="5.87338000"><ele></ele><time>2014-6-21T19:34:49Z</time></trkpt>
<trkpt lat="49.71145000" lon="5.87054000"><ele></ele><time>2014-6-21T19:34:52Z</time></trkpt>
<trkpt lat="49.71159000" lon="5.86911000"><ele></ele><time>2014-6-21T19:34:55Z</time></trkpt>
<trkpt lat="49.71007000" lon="5.86485000"><ele></ele><time>2014-6-21T19:34:58Z</time></trkpt>
<trkpt lat="49.71000000" lon="5.86466000"><ele></ele><time>2014-6-21T19:35:1Z</time></trkpt>
<trkpt lat="49.70854000" lon="5.86646000"><ele></ele><time>2014-6-21T19:35:4Z</time></trkpt>
<trkpt lat="49.70836000" lon="5.86654000"><ele></ele><time>2014-6-21T19:35:7Z</time></trkpt>
<trkpt lat="49.70757000" lon="5.86579000"><ele></ele><time>2014-6-21T19:35:10Z</time></trkpt>
<trkpt lat="49.70673000" lon="5.86429000"><ele></ele><time>2014-6-21T19:35:13Z</time></trkpt>
<trkpt lat="49.70630000" lon="5.86418000"><ele></ele><time>2014-6-21T19:35:16Z</time></trkpt>
<trkpt lat="49.70603000" lon="5.86317000"><ele></ele><time>2014-6-21T19:35:19Z</time></trkpt>
<trkpt lat="49.70595000" lon="5.86178000"><ele></ele><time>2014-6-21T19:35:22Z</time></trkpt>
<trkpt lat="49.70498000" lon="5.85964000"><ele></ele><time>2014-6-21T19:35:25Z</time></trkpt>
<trkpt lat="49.70465000" lon="5.85869000"><ele></ele><time>2014-6-21T19:35:28Z</time></trkpt>
<trkpt lat="49.70433000" lon="5.85743000"><ele></ele><time>2014-6-21T19:35:31Z</time></trkpt>
<trkpt lat="49.70394000" lon="5.85640000"><ele></ele><time>2014-6-21T19:35:34Z</time></trkpt>
<trkpt lat="49.70345000" lon="5.85541000"><ele></ele><time>2014-6-21T19:35:37Z</time></trkpt>
<trkpt lat="49.70287000" lon="5.85464000"><ele></ele><time>2014-6-21T19:35:40Z</time></trkpt>
<trkpt lat="49.70137850" lon="5.85618400"><ele></ele><time>2014-6-21T19:35:43Z</time></trkpt>
<trkpt lat="49.70103720" lon="5.85471180"><ele></ele><time>2014-6-21T19:35:46Z</time></trkpt>
<trkpt lat="49.70112690" lon="5.85393390"><ele></ele><time>2014-6-21T19:35:49Z</time></trkpt>
<trkpt lat="49.70064190" lon="5.85326720"><ele></ele><time>2014-6-21T19:35:52Z</time></trkpt>
<trkpt lat="49.70053410" lon="5.85118380"><ele></ele><time>2014-6-21T19:35:55Z</time></trkpt>
<trkpt lat="49.70033640" lon="5.85037820"><ele></ele><time>2014-6-21T19:35:58Z</time></trkpt>
<trkpt lat="49.69877340" lon="5.84729480"><ele></ele><time>2014-6-21T19:36:1Z</time></trkpt>
<trkpt lat="49.69794690" lon="5.84471130"><ele></ele><time>2014-6-21T19:36:4Z</time></trkpt>
<trkpt lat="49.69753370" lon="5.84396130"><ele></ele><time>2014-6-21T19:36:7Z</time></trkpt>
<trkpt lat="49.69753370" lon="5.84393360"><ele></ele><time>2014-6-21T19:36:10Z</time></trkpt>
<trkpt lat="49.69717440" lon="5.84362790"><ele></ele><time>2014-6-21T19:36:13Z</time></trkpt>
<trkpt lat="49.69715640" lon="5.84362790"><ele></ele><time>2014-6-21T19:36:16Z</time></trkpt>
<trkpt lat="49.69683310" lon="5.84332230"><ele></ele><time>2014-6-21T19:36:19Z</time></trkpt>
<trkpt lat="49.69261940" lon="5.83630960"><ele></ele><time>2014-6-21T19:36:22Z</time></trkpt>
<trkpt lat="49.69028380" lon="5.83458760"><ele></ele><time>2014-6-21T19:36:25Z</time></trkpt>
<trkpt lat="49.68929560" lon="5.83333770"><ele></ele><time>2014-6-21T19:36:28Z</time></trkpt>
<trkpt lat="50.66243170" lon="5.85240510"><ele></ele><time>2014-6-21T19:36:31Z</time></trkpt>
<trkpt lat="50.66243310" lon="5.85240360"><ele></ele><time>2014-6-21T19:36:34Z</time></trkpt>
<trkpt lat="50.66226280" lon="5.85231690"><ele></ele><time>2014-6-21T19:36:37Z</time></trkpt>
<trkpt lat="50.66218500" lon="5.85235630"><ele></ele><time>2014-6-21T19:36:40Z</time></trkpt>
<trkpt lat="50.66187480" lon="5.85241430"><ele></ele><time>2014-6-21T19:36:43Z</time></trkpt>
<trkpt lat="50.66186800" lon="5.85220050"><ele></ele><time>2014-6-21T19:36:46Z</time></trkpt>
<trkpt lat="50.66209020" lon="5.85177670"><ele></ele><time>2014-6-21T19:36:49Z</time></trkpt>
<trkpt lat="50.66237630" lon="5.85130770"><ele></ele><time>2014-6-21T19:36:52Z</time></trkpt>
<trkpt lat="50.66253120" lon="5.85108360"><ele></ele><time>2014-6-21T19:36:55Z</time></trkpt>
<trkpt lat="50.66292800" lon="5.85107070"><ele></ele><time>2014-6-21T19:36:58Z</time></trkpt>
<trkpt lat="50.66316140" lon="5.85118630"><ele></ele><time>2014-6-21T19:37:1Z</time></trkpt>
<trkpt lat="50.66330130" lon="5.85096550"><ele></ele><time>2014-6-21T19:37:4Z</time></trkpt>
<trkpt lat="50.66377900" lon="5.85065760"><ele></ele><time>2014-6-21T19:37:7Z</time></trkpt>
<trkpt lat="50.66402550" lon="5.85070240"><ele></ele><time>2014-6-21T19:37:10Z</time></trkpt>
<trkpt lat="50.66426140" lon="5.85077660"><ele></ele><time>2014-6-21T19:37:13Z</time></trkpt>
<trkpt lat="50.66439760" lon="5.85079150"><ele></ele><time>2014-6-21T19:37:16Z</time></trkpt>
<trkpt lat="50.66505470" lon="5.85072010"><ele></ele><time>2014-6-21T19:37:19Z</time></trkpt>
<trkpt lat="50.66585880" lon="5.85067450"><ele></ele><time>2014-6-21T19:37:22Z</time></trkpt>
<trkpt lat="50.66666430" lon="5.85062200"><ele></ele><time>2014-6-21T19:37:25Z</time></trkpt>
<trkpt lat="50.66740190" lon="5.85034970"><ele></ele><time>2014-6-21T19:37:28Z</time></trkpt>
<trkpt lat="50.66756570" lon="5.85028950"><ele></ele><time>2014-6-21T19:37:31Z</time></trkpt>
<trkpt lat="50.66836060" lon="5.85027760"><ele></ele><time>2014-6-21T19:37:34Z</time></trkpt>
<trkpt lat="50.66912880" lon="5.85021390"><ele></ele><time>2014-6-21T19:37:37Z</time></trkpt>
<trkpt lat="50.66949990" lon="5.85009200"><ele></ele><time>2014-6-21T19:37:40Z</time></trkpt>
<trkpt lat="50.66960040" lon="5.85003400"><ele></ele><time>2014-6-21T19:37:43Z</time></trkpt>
<trkpt lat="50.66981850" lon="5.84990390"><ele></ele><time>2014-6-21T19:37:46Z</time></trkpt>
<trkpt lat="50.67009850" lon="5.84982280"><ele></ele><time>2014-6-21T19:37:49Z</time></trkpt>
<trkpt lat="50.67026900" lon="5.84968980"><ele></ele><time>2014-6-21T19:37:52Z</time></trkpt>
<trkpt lat="50.67027190" lon="5.84953130"><ele></ele><time>2014-6-21T19:37:55Z</time></trkpt>
<trkpt lat="50.67047640" lon="5.84902820"><ele></ele><time>2014-6-21T19:37:58Z</time></trkpt>
<trkpt lat="50.67051810" lon="5.84898160"><ele></ele><time>2014-6-21T19:38:1Z</time></trkpt>
<trkpt lat="50.67091600" lon="5.84840010"><ele></ele><time>2014-6-21T19:38:4Z</time></trkpt>
<trkpt lat="50.67159530" lon="5.84760200"><ele></ele><time>2014-6-21T19:38:7Z</time></trkpt>
<trkpt lat="50.67235360" lon="5.84691580"><ele></ele><time>2014-6-21T19:38:10Z</time></trkpt>
<trkpt lat="50.67274220" lon="5.84645790"><ele></ele><time>2014-6-21T19:38:13Z</time></trkpt>
<trkpt lat="50.67302960" lon="5.84635680"><ele></ele><time>2014-6-21T19:38:16Z</time></trkpt>
<trkpt lat="50.67381870" lon="5.84629570"><ele></ele><time>2014-6-21T19:38:19Z</time></trkpt>
<trkpt lat="50.67393720" lon="5.84662930"><ele></ele><time>2014-6-21T19:38:22Z</time></trkpt>
<trkpt lat="50.67404480" lon="5.84704430"><ele></ele><time>2014-6-21T19:38:25Z</time></trkpt>
<trkpt lat="50.67418800" lon="5.84732460"><ele></ele><time>2014-6-21T19:38:28Z</time></trkpt>
<trkpt lat="50.67420530" lon="5.84736780"><ele></ele><time>2014-6-21T19:38:31Z</time></trkpt>
<trkpt lat="50.67432520" lon="5.84764770"><ele></ele><time>2014-6-21T19:38:34Z</time></trkpt>
<trkpt lat="50.67462650" lon="5.84785140"><ele></ele><time>2014-6-21T19:38:37Z</time></trkpt>
<trkpt lat="50.67487360" lon="5.84781030"><ele></ele><time>2014-6-21T19:38:40Z</time></trkpt>
<trkpt lat="50.67507060" lon="5.84792900"><ele></ele><time>2014-6-21T19:38:43Z</time></trkpt>
<trkpt lat="50.67529800" lon="5.84795900"><ele></ele><time>2014-6-21T19:38:46Z</time></trkpt>
<trkpt lat="50.67547050" lon="5.84803930"><ele></ele><time>2014-6-21T19:38:49Z</time></trkpt>
<trkpt lat="50.67595220" lon="5.84857700"><ele></ele><time>2014-6-21T19:38:52Z</time></trkpt>
<trkpt lat="50.67610490" lon="5.84873400"><ele></ele><time>2014-6-21T19:38:55Z</time></trkpt>
<trkpt lat="50.67640190" lon="5.84909920"><ele></ele><time>2014-6-21T19:38:58Z</time></trkpt>
<trkpt lat="50.67684010" lon="5.84988890"><ele></ele><time>2014-6-21T19:39:1Z</time></trkpt>
<trkpt lat="50.67696170" lon="5.85010930"><ele></ele><time>2014-6-21T19:39:4Z</time></trkpt>
<trkpt lat="50.67695610" lon="5.85011330"><ele></ele><time>2014-6-21T19:39:7Z</time></trkpt>
<trkpt lat="50.67694730" lon="5.85006350"><ele></ele><time>2014-6-21T19:39:10Z</time></trkpt>
<trkpt lat="50.67702820" lon="5.84976440"><ele></ele><time>2014-6-21T19:39:13Z</time></trkpt>
<trkpt lat="50.67725220" lon="5.84926330"><ele></ele><time>2014-6-21T19:39:16Z</time></trkpt>
<trkpt lat="50.67732090" lon="5.84902440"><ele></ele><time>2014-6-21T19:39:19Z</time></trkpt>
<trkpt lat="50.67751340" lon="5.84861690"><ele></ele><time>2014-6-21T19:39:22Z</time></trkpt>
<trkpt lat="50.67768390" lon="5.84823410"><ele></ele><time>2014-6-21T19:39:25Z</time></trkpt>
<trkpt lat="50.67775220" lon="5.84811160"><ele></ele><time>2014-6-21T19:39:28Z</time></trkpt>
<trkpt lat="50.67790400" lon="5.84791080"><ele></ele><time>2014-6-21T19:39:31Z</time></trkpt>
<trkpt lat="50.67794550" lon="5.84777570"><ele></ele><time>2014-6-21T19:39:34Z</time></trkpt>
<trkpt lat="50.67796010" lon="5.84770050"><ele></ele><time>2014-6-21T19:39:37Z</time></trkpt>
<trkpt lat="50.67798240" lon="5.84752420"><ele></ele><time>2014-6-21T19:39:40Z</time></trkpt>
<trkpt lat="50.67810710" lon="5.84717890"><ele></ele><time>2014-6-21T19:39:43Z</time></trkpt>
<trkpt lat="50.67815880" lon="5.84725090"><ele></ele><time>2014-6-21T19:39:46Z</time></trkpt>
<trkpt lat="50.67847700" lon="5.84792130"><ele></ele><time>2014-6-21T19:39:49Z</time></trkpt>
<trkpt lat="50.67870660" lon="5.84837890"><ele></ele><time>2014-6-21T19:39:52Z</time></trkpt>
<trkpt lat="50.67877630" lon="5.84832640"><ele></ele><time>2014-6-21T19:39:55Z</time></trkpt>
<trkpt lat="50.67878610" lon="5.84800410"><ele></ele><time>2014-6-21T19:39:58Z</time></trkpt>
<trkpt lat="50.67879000" lon="5.84796510"><ele></ele><time>2014-6-21T19:40:1Z</time></trkpt>
<trkpt lat="50.67882060" lon="5.84764100"><ele></ele><time>2014-6-21T19:40:4Z</time></trkpt>
<trkpt lat="50.67882460" lon="5.84759800"><ele></ele><time>2014-6-21T19:40:7Z</time></trkpt>
<trkpt lat="50.67898000" lon="5.84728350"><ele></ele><time>2014-6-21T19:40:10Z</time></trkpt>
<trkpt lat="50.67915800" lon="5.84699600"><ele></ele><time>2014-6-21T19:40:13Z</time></trkpt>
<trkpt lat="50.67941520" lon="5.84658170"><ele></ele><time>2014-6-21T19:40:16Z</time></trkpt>
<trkpt lat="50.67968720" lon="5.84615060"><ele></ele><time>2014-6-21T19:40:19Z</time></trkpt>
<trkpt lat="50.67970860" lon="5.84613180"><ele></ele><time>2014-6-21T19:40:22Z</time></trkpt>
<trkpt lat="50.67993050" lon="5.84609970"><ele></ele><time>2014-6-21T19:40:25Z</time></trkpt>
<trkpt lat="50.68009540" lon="5.84611270"><ele></ele><time>2014-6-21T19:40:28Z</time></trkpt>
<trkpt lat="50.68027920" lon="5.84615630"><ele></ele><time>2014-6-21T19:40:31Z</time></trkpt>
<trkpt lat="50.68051420" lon="5.84617760"><ele></ele><time>2014-6-21T19:40:34Z</time></trkpt>
<trkpt lat="50.68080510" lon="5.84614610"><ele></ele><time>2014-6-21T19:40:37Z</time></trkpt>
<trkpt lat="50.68082210" lon="5.84613750"><ele></ele><time>2014-6-21T19:40:40Z</time></trkpt>
<trkpt lat="50.68082130" lon="5.84613730"><ele></ele><time>2014-6-21T19:40:43Z</time></trkpt>
<trkpt lat="50.68077280" lon="5.84613300"><ele></ele><time>2014-6-21T19:40:46Z</time></trkpt>
<trkpt lat="50.68060380" lon="5.84617650"><ele></ele><time>2014-6-21T19:40:49Z</time></trkpt>
<trkpt lat="50.68062090" lon="5.84621080"><ele></ele><time>2014-6-21T19:40:52Z</time></trkpt>
<trkpt lat="50.68077690" lon="5.84615880"><ele></ele><time>2014-6-21T19:40:55Z</time></trkpt>
<trkpt lat="50.68076830" lon="5.84597190"><ele></ele><time>2014-6-21T19:40:58Z</time></trkpt>
<trkpt lat="50.68070350" lon="5.84582050"><ele></ele><time>2014-6-21T19:41:1Z</time></trkpt>
<trkpt lat="50.68057070" lon="5.84533830"><ele></ele><time>2014-6-21T19:41:4Z</time></trkpt>
<trkpt lat="50.68055250" lon="5.84519340"><ele></ele><time>2014-6-21T19:41:7Z</time></trkpt>
<trkpt lat="50.68054490" lon="5.84496170"><ele></ele><time>2014-6-21T19:41:10Z</time></trkpt>
<trkpt lat="50.68073810" lon="5.84436340"><ele></ele><time>2014-6-21T19:41:13Z</time></trkpt>
<trkpt lat="50.68078480" lon="5.84430230"><ele></ele><time>2014-6-21T19:41:16Z</time></trkpt>
<trkpt lat="50.68099300" lon="5.84406410"><ele></ele><time>2014-6-21T19:41:19Z</time></trkpt>
<trkpt lat="50.68110470" lon="5.84393510"><ele></ele><time>2014-6-21T19:41:22Z</time></trkpt>
<trkpt lat="50.68126130" lon="5.84373580"><ele></ele><time>2014-6-21T19:41:25Z</time></trkpt>
<trkpt lat="50.68139390" lon="5.84350730"><ele></ele><time>2014-6-21T19:41:28Z</time></trkpt>
<trkpt lat="50.68165810" lon="5.84285700"><ele></ele><time>2014-6-21T19:41:31Z</time></trkpt>
<trkpt lat="50.68172400" lon="5.84268320"><ele></ele><time>2014-6-21T19:41:34Z</time></trkpt>
<trkpt lat="50.68159940" lon="5.84261660"><ele></ele><time>2014-6-21T19:41:37Z</time></trkpt>
<trkpt lat="50.68156270" lon="5.84258680"><ele></ele><time>2014-6-21T19:41:40Z</time></trkpt>
<trkpt lat="50.68152610" lon="5.84259550"><ele></ele><time>2014-6-21T19:41:43Z</time></trkpt>
<trkpt lat="50.68149510" lon="5.84266230"><ele></ele><time>2014-6-21T19:41:46Z</time></trkpt>
<trkpt lat="50.68149010" lon="5.84267800"><ele></ele><time>2014-6-21T19:41:49Z</time></trkpt>
<trkpt lat="50.68149280" lon="5.84272430"><ele></ele><time>2014-6-21T19:41:52Z</time></trkpt>
<trkpt lat="50.68149490" lon="5.84266240"><ele></ele><time>2014-6-21T19:41:55Z</time></trkpt>
<trkpt lat="50.68151760" lon="5.84262850"><ele></ele><time>2014-6-21T19:41:58Z</time></trkpt>
<trkpt lat="50.68159370" lon="5.84265210"><ele></ele><time>2014-6-21T19:42:1Z</time></trkpt>
<trkpt lat="50.68168400" lon="5.84263330"><ele></ele><time>2014-6-21T19:42:4Z</time></trkpt>
<trkpt lat="50.68172130" lon="5.84264770"><ele></ele><time>2014-6-21T19:42:7Z</time></trkpt>
<trkpt lat="50.68176590" lon="5.84258210"><ele></ele><time>2014-6-21T19:42:10Z</time></trkpt>
<trkpt lat="50.68197510" lon="5.84221170"><ele></ele><time>2014-6-21T19:42:13Z</time></trkpt>
<trkpt lat="50.68243980" lon="5.84176670"><ele></ele><time>2014-6-21T19:42:16Z</time></trkpt>
<trkpt lat="50.68282770" lon="5.84141890"><ele></ele><time>2014-6-21T19:42:19Z</time></trkpt>
<trkpt lat="50.68313190" lon="5.84083680"><ele></ele><time>2014-6-21T19:42:22Z</time></trkpt>
<trkpt lat="50.68336040" lon="5.84051620"><ele></ele><time>2014-6-21T19:42:25Z</time></trkpt>
<trkpt lat="50.68340460" lon="5.84045020"><ele></ele><time>2014-6-21T19:42:28Z</time></trkpt>
<trkpt lat="50.68348620" lon="5.84030380"><ele></ele><time>2014-6-21T19:42:31Z</time></trkpt>
<trkpt lat="50.68354810" lon="5.84014260"><ele></ele><time>2014-6-21T19:42:34Z</time></trkpt>
<trkpt lat="50.68367010" lon="5.83972970"><ele></ele><time>2014-6-21T19:42:37Z</time></trkpt>
<trkpt lat="50.68394920" lon="5.83913890"><ele></ele><time>2014-6-21T19:42:40Z</time></trkpt>
<trkpt lat="50.68439720" lon="5.83871060"><ele></ele><time>2014-6-21T19:42:43Z</time></trkpt>
<trkpt lat="50.68465250" lon="5.83855460"><ele></ele><time>2014-6-21T19:42:46Z</time></trkpt>
<trkpt lat="50.68453060" lon="5.83817890"><ele></ele><time>2014-6-21T19:42:49Z</time></trkpt>
<trkpt lat="50.68421030" lon="5.83758910"><ele></ele><time>2014-6-21T19:42:52Z</time></trkpt>
<trkpt lat="50.68390060" lon="5.83701320"><ele></ele><time>2014-6-21T19:42:55Z</time></trkpt>
<trkpt lat="50.68359280" lon="5.83639590"><ele></ele><time>2014-6-21T19:42:58Z</time></trkpt>
<trkpt lat="50.68351780" lon="5.83613800"><ele></ele><time>2014-6-21T19:43:1Z</time></trkpt>
<trkpt lat="50.68343260" lon="5.83562890"><ele></ele><time>2014-6-21T19:43:4Z</time></trkpt>
<trkpt lat="50.68320960" lon="5.83450230"><ele></ele><time>2014-6-21T19:43:7Z</time></trkpt>
<trkpt lat="50.68291890" lon="5.83316360"><ele></ele><time>2014-6-21T19:43:10Z</time></trkpt>
<trkpt lat="50.68281420" lon="5.83254870"><ele></ele><time>2014-6-21T19:43:13Z</time></trkpt>
<trkpt lat="50.68278280" lon="5.83104130"><ele></ele><time>2014-6-21T19:43:16Z</time></trkpt>
<trkpt lat="50.68283290" lon="5.82987920"><ele></ele><time>2014-6-21T19:43:19Z</time></trkpt>
<trkpt lat="50.68300440" lon="5.82941120"><ele></ele><time>2014-6-21T19:43:22Z</time></trkpt>
<trkpt lat="50.68378240" lon="5.82857910"><ele></ele><time>2014-6-21T19:43:25Z</time></trkpt>
<trkpt lat="50.68427970" lon="5.82808120"><ele></ele><time>2014-6-21T19:43:28Z</time></trkpt>
<trkpt lat="50.68487910" lon="5.82707540"><ele></ele><time>2014-6-21T19:43:31Z</time></trkpt>
<trkpt lat="50.68509990" lon="5.82612970"><ele></ele><time>2014-6-21T19:43:34Z</time></trkpt>
<trkpt lat="50.68524520" lon="5.82576790"><ele></ele><time>2014-6-21T19:43:37Z</time></trkpt>
<trkpt lat="50.68585030" lon="5.82464190"><ele></ele><time>2014-6-21T19:43:40Z</time></trkpt>
<trkpt lat="50.68652990" lon="5.82333450"><ele></ele><time>2014-6-21T19:43:43Z</time></trkpt>
<trkpt lat="50.68661160" lon="5.82322610"><ele></ele><time>2014-6-21T19:43:46Z</time></trkpt>
<trkpt lat="50.68669510" lon="5.82325190"><ele></ele><time>2014-6-21T19:43:49Z</time></trkpt>
<trkpt lat="50.68686680" lon="5.82323000"><ele></ele><time>2014-6-21T19:43:52Z</time></trkpt>
<trkpt lat="50.68700410" lon="5.82324410"><ele></ele><time>2014-6-21T19:43:55Z</time></trkpt>
<trkpt lat="50.68728370" lon="5.82331830"><ele></ele><time>2014-6-21T19:43:58Z</time></trkpt>
<trkpt lat="50.68762690" lon="5.82338570"><ele></ele><time>2014-6-21T19:44:1Z</time></trkpt>
<trkpt lat="50.68781870" lon="5.82340260"><ele></ele><time>2014-6-21T19:44:4Z</time></trkpt>
<trkpt lat="50.68786700" lon="5.82345720"><ele></ele><time>2014-6-21T19:44:7Z</time></trkpt>
<trkpt lat="50.68779390" lon="5.82405870"><ele></ele><time>2014-6-21T19:44:10Z</time></trkpt>
<trkpt lat="50.68777180" lon="5.82450100"><ele></ele><time>2014-6-21T19:44:13Z</time></trkpt>
<trkpt lat="50.68779340" lon="5.82463910"><ele></ele><time>2014-6-21T19:44:16Z</time></trkpt>
<trkpt lat="50.68779890" lon="5.82474970"><ele></ele><time>2014-6-21T19:44:19Z</time></trkpt>
<trkpt lat="50.68789750" lon="5.82525410"><ele></ele><time>2014-6-21T19:44:22Z</time></trkpt>
<trkpt lat="50.68790720" lon="5.82528170"><ele></ele><time>2014-6-21T19:44:25Z</time></trkpt>
<trkpt lat="50.68794120" lon="5.82571270"><ele></ele><time>2014-6-21T19:44:28Z</time></trkpt>
<trkpt lat="50.68785520" lon="5.82610310"><ele></ele><time>2014-6-21T19:44:31Z</time></trkpt>
<trkpt lat="50.68781010" lon="5.82630030"><ele></ele><time>2014-6-21T19:44:34Z</time></trkpt>
<trkpt lat="50.68771270" lon="5.82659720"><ele></ele><time>2014-6-21T19:44:37Z</time></trkpt>
<trkpt lat="50.68761680" lon="5.82689460"><ele></ele><time>2014-6-21T19:44:40Z</time></trkpt>
<trkpt lat="50.68757820" lon="5.82745860"><ele></ele><time>2014-6-21T19:44:43Z</time></trkpt>
<trkpt lat="50.68754070" lon="5.82767900"><ele></ele><time>2014-6-21T19:44:46Z</time></trkpt>
<trkpt lat="50.68754420" lon="5.82768040"><ele></ele><time>2014-6-21T19:44:49Z</time></trkpt>
<trkpt lat="50.68757640" lon="5.82800790"><ele></ele><time>2014-6-21T19:44:52Z</time></trkpt>
<trkpt lat="50.68786540" lon="5.82852730"><ele></ele><time>2014-6-21T19:44:55Z</time></trkpt>
<trkpt lat="50.68791310" lon="5.82893410"><ele></ele><time>2014-6-21T19:44:58Z</time></trkpt>
<trkpt lat="50.68792290" lon="5.82914590"><ele></ele><time>2014-6-21T19:45:1Z</time></trkpt>
<trkpt lat="50.68793010" lon="5.82924750"><ele></ele><time>2014-6-21T19:45:4Z</time></trkpt>
<trkpt lat="50.68793280" lon="5.82949200"><ele></ele><time>2014-6-21T19:45:7Z</time></trkpt>
<trkpt lat="50.68789770" lon="5.83002660"><ele></ele><time>2014-6-21T19:45:10Z</time></trkpt>
<trkpt lat="50.68793690" lon="5.83068400"><ele></ele><time>2014-6-21T19:45:13Z</time></trkpt>
<trkpt lat="50.68795440" lon="5.83075680"><ele></ele><time>2014-6-21T19:45:16Z</time></trkpt>
<trkpt lat="50.68799380" lon="5.83071690"><ele></ele><time>2014-6-21T19:45:19Z</time></trkpt>
<trkpt lat="50.68800220" lon="5.83071530"><ele></ele><time>2014-6-21T19:45:22Z</time></trkpt>
<trkpt lat="50.68806060" lon="5.83082700"><ele></ele><time>2014-6-21T19:45:25Z</time></trkpt>
<trkpt lat="50.68827670" lon="5.83175400"><ele></ele><time>2014-6-21T19:45:28Z</time></trkpt>
<trkpt lat="50.68848240" lon="5.83273320"><ele></ele><time>2014-6-21T19:45:31Z</time></trkpt>
<trkpt lat="50.68852580" lon="5.83346300"><ele></ele><time>2014-6-21T19:45:34Z</time></trkpt>
<trkpt lat="50.68857360" lon="5.83421100"><ele></ele><time>2014-6-21T19:45:37Z</time></trkpt>
<trkpt lat="50.68873310" lon="5.83523360"><ele></ele><time>2014-6-21T19:45:40Z</time></trkpt>
<trkpt lat="50.68886930" lon="5.83588780"><ele></ele><time>2014-6-21T19:45:43Z</time></trkpt>
<trkpt lat="50.68899240" lon="5.83648920"><ele></ele><time>2014-6-21T19:45:46Z</time></trkpt>
<trkpt lat="50.68913290" lon="5.83732740"><ele></ele><time>2014-6-21T19:45:49Z</time></trkpt>
<trkpt lat="50.68925980" lon="5.83803500"><ele></ele><time>2014-6-21T19:45:52Z</time></trkpt>
<trkpt lat="50.68943020" lon="5.83876940"><ele></ele><time>2014-6-21T19:45:55Z</time></trkpt>
<trkpt lat="50.68960130" lon="5.83933190"><ele></ele><time>2014-6-21T19:45:58Z</time></trkpt>
<trkpt lat="50.68977380" lon="5.84016150"><ele></ele><time>2014-6-21T19:46:1Z</time></trkpt>
<trkpt lat="50.68998290" lon="5.84115390"><ele></ele><time>2014-6-21T19:46:4Z</time></trkpt>
<trkpt lat="50.69027050" lon="5.84222750"><ele></ele><time>2014-6-21T19:46:7Z</time></trkpt>
<trkpt lat="50.69046900" lon="5.84362600"><ele></ele><time>2014-6-21T19:46:10Z</time></trkpt>
<trkpt lat="50.69082520" lon="5.84461570"><ele></ele><time>2014-6-21T19:46:13Z</time></trkpt>
<trkpt lat="50.69119210" lon="5.84511270"><ele></ele><time>2014-6-21T19:46:16Z</time></trkpt>
<trkpt lat="50.69150010" lon="5.84589320"><ele></ele><time>2014-6-21T19:46:19Z</time></trkpt>
<trkpt lat="50.69188340" lon="5.84685560"><ele></ele><time>2014-6-21T19:46:22Z</time></trkpt>
<trkpt lat="50.69199760" lon="5.84739420"><ele></ele><time>2014-6-21T19:46:25Z</time></trkpt>
<trkpt lat="50.69255490" lon="5.84776770"><ele></ele><time>2014-6-21T19:46:28Z</time></trkpt>
<trkpt lat="50.69340920" lon="5.84834330"><ele></ele><time>2014-6-21T19:46:31Z</time></trkpt>
<trkpt lat="50.69423790" lon="5.84888630"><ele></ele><time>2014-6-21T19:46:34Z</time></trkpt>
<trkpt lat="50.69499640" lon="5.84960710"><ele></ele><time>2014-6-21T19:46:37Z</time></trkpt>
<trkpt lat="50.69570630" lon="5.85046210"><ele></ele><time>2014-6-21T19:46:40Z</time></trkpt>
<trkpt lat="50.69621730" lon="5.85105790"><ele></ele><time>2014-6-21T19:46:43Z</time></trkpt>
<trkpt lat="50.69669140" lon="5.85151880"><ele></ele><time>2014-6-21T19:46:46Z</time></trkpt>
<trkpt lat="50.69714340" lon="5.85190720"><ele></ele><time>2014-6-21T19:46:49Z</time></trkpt>
<trkpt lat="50.69781620" lon="5.85246250"><ele></ele><time>2014-6-21T19:46:52Z</time></trkpt>
<trkpt lat="50.69795970" lon="5.85257250"><ele></ele><time>2014-6-21T19:46:55Z</time></trkpt>
<trkpt lat="50.69840640" lon="5.85293720"><ele></ele><time>2014-6-21T19:46:58Z</time></trkpt>
<trkpt lat="50.69853270" lon="5.85339030"><ele></ele><time>2014-6-21T19:47:1Z</time></trkpt>
<trkpt lat="50.69834770" lon="5.85509260"><ele></ele><time>2014-6-21T19:47:4Z</time></trkpt>
<trkpt lat="50.69826430" lon="5.85599480"><ele></ele><time>2014-6-21T19:47:7Z</time></trkpt>
<trkpt lat="50.69815000" lon="5.85683160"><ele></ele><time>2014-6-21T19:47:10Z</time></trkpt>
<trkpt lat="50.69812910" lon="5.85690920"><ele></ele><time>2014-6-21T19:47:13Z</time></trkpt>
<trkpt lat="50.69821150" lon="5.85704690"><ele></ele><time>2014-6-21T19:47:16Z</time></trkpt>
<trkpt lat="50.69834120" lon="5.85715790"><ele></ele><time>2014-6-21T19:47:19Z</time></trkpt>
<trkpt lat="50.69822900" lon="5.85727270"><ele></ele><time>2014-6-21T19:47:22Z</time></trkpt>
<trkpt lat="50.69820230" lon="5.85724540"><ele></ele><time>2014-6-21T19:47:25Z</time></trkpt>
<trkpt lat="50.69758590" lon="5.85662890"><ele></ele><time>2014-6-21T19:47:28Z</time></trkpt>
<trkpt lat="50.69711310" lon="5.85632540"><ele></ele><time>2014-6-21T19:47:31Z</time></trkpt>
<trkpt lat="50.69619700" lon="5.85605810"><ele></ele><time>2014-6-21T19:47:34Z</time></trkpt>
<trkpt lat="50.69529420" lon="5.85590890"><ele></ele><time>2014-6-21T19:47:37Z</time></trkpt>
<trkpt lat="50.69445550" lon="5.85578960"><ele></ele><time>2014-6-21T19:47:40Z</time></trkpt>
<trkpt lat="50.69351730" lon="5.85563750"><ele></ele><time>2014-6-21T19:47:43Z</time></trkpt>
<trkpt lat="50.69345840" lon="5.85563020"><ele></ele><time>2014-6-21T19:47:46Z</time></trkpt>
<trkpt lat="50.69236360" lon="5.85547110"><ele></ele><time>2014-6-21T19:47:49Z</time></trkpt>
<trkpt lat="50.69225560" lon="5.85544930"><ele></ele><time>2014-6-21T19:47:52Z</time></trkpt>
<trkpt lat="50.69145530" lon="5.85533600"><ele></ele><time>2014-6-21T19:47:55Z</time></trkpt>
<trkpt lat="50.69067680" lon="5.85523600"><ele></ele><time>2014-6-21T19:47:58Z</time></trkpt>
<trkpt lat="50.68975570" lon="5.85516380"><ele></ele><time>2014-6-21T19:48:1Z</time></trkpt>
<trkpt lat="50.68940750" lon="5.85513910"><ele></ele><time>2014-6-21T19:48:4Z</time></trkpt>
<trkpt lat="50.68856520" lon="5.85506730"><ele></ele><time>2014-6-21T19:48:7Z</time></trkpt>
<trkpt lat="50.68779650" lon="5.85488630"><ele></ele><time>2014-6-21T19:48:10Z</time></trkpt>
<trkpt lat="50.68689680" lon="5.85448470"><ele></ele><time>2014-6-21T19:48:13Z</time></trkpt>
<trkpt lat="50.68583480" lon="5.85399100"><ele></ele><time>2014-6-21T19:48:16Z</time></trkpt>
<trkpt lat="50.68494700" lon="5.85356610"><ele></ele><time>2014-6-21T19:48:19Z</time></trkpt>
<trkpt lat="50.68450280" lon="5.85335810"><ele></ele><time>2014-6-21T19:48:22Z</time></trkpt>
<trkpt lat="50.68411080" lon="5.85318100"><ele></ele><time>2014-6-21T19:48:25Z</time></trkpt>
<trkpt lat="50.68344190" lon="5.85288820"><ele></ele><time>2014-6-21T19:48:28Z</time></trkpt>
<trkpt lat="50.68285350" lon="5.85268690"><ele></ele><time>2014-6-21T19:48:31Z</time></trkpt>
<trkpt lat="50.68243660" lon="5.85264390"><ele></ele><time>2014-6-21T19:48:34Z</time></trkpt>
<trkpt lat="50.68192060" lon="5.85263860"><ele></ele><time>2014-6-21T19:48:37Z</time></trkpt>
<trkpt lat="50.68126550" lon="5.85275230"><ele></ele><time>2014-6-21T19:48:40Z</time></trkpt>
<trkpt lat="50.68067350" lon="5.85287700"><ele></ele><time>2014-6-21T19:48:43Z</time></trkpt>
<trkpt lat="50.68057860" lon="5.85291720"><ele></ele><time>2014-6-21T19:48:46Z</time></trkpt>
<trkpt lat="50.68057350" lon="5.85291280"><ele></ele><time>2014-6-21T19:48:49Z</time></trkpt>
<trkpt lat="50.68050150" lon="5.85286710"><ele></ele><time>2014-6-21T19:48:52Z</time></trkpt>
<trkpt lat="50.68015750" lon="5.85294590"><ele></ele><time>2014-6-21T19:48:55Z</time></trkpt>
<trkpt lat="50.67946080" lon="5.85302770"><ele></ele><time>2014-6-21T19:48:58Z</time></trkpt>
<trkpt lat="50.67861570" lon="5.85316320"><ele></ele><time>2014-6-21T19:49:1Z</time></trkpt>
<trkpt lat="50.67779610" lon="5.85329570"><ele></ele><time>2014-6-21T19:49:4Z</time></trkpt>
<trkpt lat="50.67699200" lon="5.85344210"><ele></ele><time>2014-6-21T19:49:7Z</time></trkpt>
<trkpt lat="50.67626240" lon="5.85353880"><ele></ele><time>2014-6-21T19:49:10Z</time></trkpt>
<trkpt lat="50.67554070" lon="5.85393220"><ele></ele><time>2014-6-21T19:49:13Z</time></trkpt>
<trkpt lat="50.67508470" lon="5.85438700"><ele></ele><time>2014-6-21T19:49:16Z</time></trkpt>
<trkpt lat="50.67478970" lon="5.85477560"><ele></ele><time>2014-6-21T19:49:19Z</time></trkpt>
<trkpt lat="50.67438990" lon="5.85528010"><ele></ele><time>2014-6-21T19:49:22Z</time></trkpt>
<trkpt lat="50.67393420" lon="5.85575230"><ele></ele><time>2014-6-21T19:49:25Z</time></trkpt>
<trkpt lat="50.67342850" lon="5.85612600"><ele></ele><time>2014-6-21T19:49:28Z</time></trkpt>
<trkpt lat="50.67279500" lon="5.85639580"><ele></ele><time>2014-6-21T19:49:31Z</time></trkpt>
<trkpt lat="50.67244640" lon="5.85644150"><ele></ele><time>2014-6-21T19:49:34Z</time></trkpt>
<trkpt lat="50.67192970" lon="5.85649690"><ele></ele><time>2014-6-21T19:49:37Z</time></trkpt>
<trkpt lat="50.67150960" lon="5.85653370"><ele></ele><time>2014-6-21T19:49:40Z</time></trkpt>
<trkpt lat="50.67100220" lon="5.85659430"><ele></ele><time>2014-6-21T19:49:43Z</time></trkpt>
<trkpt lat="50.67054420" lon="5.85664600"><ele></ele><time>2014-6-21T19:49:46Z</time></trkpt>
<trkpt lat="50.66999410" lon="5.85673560"><ele></ele><time>2014-6-21T19:49:49Z</time></trkpt>
<trkpt lat="50.66928780" lon="5.85703970"><ele></ele><time>2014-6-21T19:49:52Z</time></trkpt>
<trkpt lat="50.66863020" lon="5.85745880"><ele></ele><time>2014-6-21T19:49:55Z</time></trkpt>
<trkpt lat="50.66814480" lon="5.85789530"><ele></ele><time>2014-6-21T19:49:58Z</time></trkpt>
<trkpt lat="50.66789240" lon="5.85818770"><ele></ele><time>2014-6-21T19:50:1Z</time></trkpt>
<trkpt lat="50.66758110" lon="5.85860940"><ele></ele><time>2014-6-21T19:50:4Z</time></trkpt>
<trkpt lat="50.66730590" lon="5.85908390"><ele></ele><time>2014-6-21T19:50:7Z</time></trkpt>
<trkpt lat="50.66696220" lon="5.85976150"><ele></ele><time>2014-6-21T19:50:10Z</time></trkpt>
<trkpt lat="50.66693780" lon="5.85981710"><ele></ele><time>2014-6-21T19:50:13Z</time></trkpt>
<trkpt lat="50.66695220" lon="5.85988520"><ele></ele><time>2014-6-21T19:50:16Z</time></trkpt>
<trkpt lat="50.66699430" lon="5.85995440"><ele></ele><time>2014-6-21T19:50:19Z</time></trkpt>
<trkpt lat="50.66696660" lon="5.85985820"><ele></ele><time>2014-6-21T19:50:22Z</time></trkpt>
<trkpt lat="50.66689010" lon="5.85993380"><ele></ele><time>2014-6-21T19:50:25Z</time></trkpt>
<trkpt lat="50.66680220" lon="5.86016690"><ele></ele><time>2014-6-21T19:50:28Z</time></trkpt>
<trkpt lat="50.66668870" lon="5.86045250"><ele></ele><time>2014-6-21T19:50:31Z</time></trkpt>
<trkpt lat="50.66648150" lon="5.86111990"><ele></ele><time>2014-6-21T19:50:34Z</time></trkpt>
<trkpt lat="50.66627950" lon="5.86212700"><ele></ele><time>2014-6-21T19:50:37Z</time></trkpt>
<trkpt lat="50.66614840" lon="5.86298520"><ele></ele><time>2014-6-21T19:50:40Z</time></trkpt>
<trkpt lat="50.66605230" lon="5.86367180"><ele></ele><time>2014-6-21T19:50:43Z</time></trkpt>
<trkpt lat="50.66592030" lon="5.86469210"><ele></ele><time>2014-6-21T19:50:46Z</time></trkpt>
<trkpt lat="50.66574530" lon="5.86601740"><ele></ele><time>2014-6-21T19:50:49Z</time></trkpt>
<trkpt lat="50.66569730" lon="5.86633750"><ele></ele><time>2014-6-21T19:50:52Z</time></trkpt>
<trkpt lat="50.66552350" lon="5.86760930"><ele></ele><time>2014-6-21T19:50:55Z</time></trkpt>
<trkpt lat="50.66527250" lon="5.86884290"><ele></ele><time>2014-6-21T19:50:58Z</time></trkpt>
<trkpt lat="50.66495240" lon="5.86984220"><ele></ele><time>2014-6-21T19:51:1Z</time></trkpt>
<trkpt lat="50.66462660" lon="5.87058110"><ele></ele><time>2014-6-21T19:51:4Z</time></trkpt>
<trkpt lat="50.66444060" lon="5.87041990"><ele></ele><time>2014-6-21T19:51:7Z</time></trkpt>
<trkpt lat="50.66384880" lon="5.86965890"><ele></ele><time>2014-6-21T19:51:10Z</time></trkpt>
<trkpt lat="50.66322500" lon="5.86903670"><ele></ele><time>2014-6-21T19:51:13Z</time></trkpt>
<trkpt lat="50.66258400" lon="5.86856540"><ele></ele><time>2014-6-21T19:51:16Z</time></trkpt>
<trkpt lat="50.66188470" lon="5.86820070"><ele></ele><time>2014-6-21T19:51:19Z</time></trkpt>
<trkpt lat="50.66168420" lon="5.86811300"><ele></ele><time>2014-6-21T19:51:22Z</time></trkpt>
<trkpt lat="50.66124330" lon="5.86791360"><ele></ele><time>2014-6-21T19:51:25Z</time></trkpt>
<trkpt lat="50.66112320" lon="5.86785500"><ele></ele><time>2014-6-21T19:51:28Z</time></trkpt>
<trkpt lat="50.66099320" lon="5.86780690"><ele></ele><time>2014-6-21T19:51:31Z</time></trkpt>
<trkpt lat="50.66078760" lon="5.86780350"><ele></ele><time>2014-6-21T19:51:34Z</time></trkpt>
<trkpt lat="50.66031100" lon="5.86800030"><ele></ele><time>2014-6-21T19:51:37Z</time></trkpt>
<trkpt lat="50.66024970" lon="5.86802600"><ele></ele><time>2014-6-21T19:51:40Z</time></trkpt>
<trkpt lat="50.66012030" lon="5.86806800"><ele></ele><time>2014-6-21T19:51:43Z</time></trkpt>
<trkpt lat="50.65982810" lon="5.86804580"><ele></ele><time>2014-6-21T19:51:46Z</time></trkpt>
<trkpt lat="50.65954880" lon="5.86781690"><ele></ele><time>2014-6-21T19:51:49Z</time></trkpt>
<trkpt lat="50.65930660" lon="5.86748340"><ele></ele><time>2014-6-21T19:51:52Z</time></trkpt>
<trkpt lat="50.65928680" lon="5.86728800"><ele></ele><time>2014-6-21T19:51:55Z</time></trkpt>
<trkpt lat="50.65923550" lon="5.86662290"><ele></ele><time>2014-6-21T19:51:58Z</time></trkpt>
<trkpt lat="50.65924170" lon="5.86646190"><ele></ele><time>2014-6-21T19:52:1Z</time></trkpt>
<trkpt lat="50.65927230" lon="5.86621760"><ele></ele><time>2014-6-21T19:52:4Z</time></trkpt>
<trkpt lat="50.65926360" lon="5.86596920"><ele></ele><time>2014-6-21T19:52:7Z</time></trkpt>
<trkpt lat="50.65918890" lon="5.86556970"><ele></ele><time>2014-6-21T19:52:10Z</time></trkpt>
<trkpt lat="50.65920140" lon="5.86511860"><ele></ele><time>2014-6-21T19:52:13Z</time></trkpt>
<trkpt lat="50.65928880" lon="5.86481100"><ele></ele><time>2014-6-21T19:52:16Z</time></trkpt>
<trkpt lat="50.65940900" lon="5.86432140"><ele></ele><time>2014-6-21T19:52:19Z</time></trkpt>
<trkpt lat="50.65947180" lon="5.86399400"><ele></ele><time>2014-6-21T19:52:22Z</time></trkpt>
<trkpt lat="50.65948810" lon="5.86381220"><ele></ele><time>2014-6-21T19:52:25Z</time></trkpt>
<trkpt lat="50.65952960" lon="5.86361990"><ele></ele><time>2014-6-21T19:52:28Z</time></trkpt>
<trkpt lat="50.65966700" lon="5.86324440"><ele></ele><time>2014-6-21T19:52:31Z</time></trkpt>
<trkpt lat="50.65971740" lon="5.86306260"><ele></ele><time>2014-6-21T19:52:34Z</time></trkpt>
<trkpt lat="50.65970900" lon="5.86262780"><ele></ele><time>2014-6-21T19:52:37Z</time></trkpt>
<trkpt lat="50.65970150" lon="5.86191420"><ele></ele><time>2014-6-21T19:52:40Z</time></trkpt>
<trkpt lat="50.65970850" lon="5.86132630"><ele></ele><time>2014-6-21T19:52:43Z</time></trkpt>
<trkpt lat="50.65973500" lon="5.86113870"><ele></ele><time>2014-6-21T19:52:46Z</time></trkpt>
<trkpt lat="50.65978160" lon="5.86068080"><ele></ele><time>2014-6-21T19:52:49Z</time></trkpt>
<trkpt lat="50.65982760" lon="5.85975420"><ele></ele><time>2014-6-21T19:52:52Z</time></trkpt>
<trkpt lat="50.65987260" lon="5.85960800"><ele></ele><time>2014-6-21T19:52:55Z</time></trkpt>
<trkpt lat="50.65993830" lon="5.85939150"><ele></ele><time>2014-6-21T19:52:58Z</time></trkpt>
<trkpt lat="50.65984060" lon="5.85913310"><ele></ele><time>2014-6-21T19:53:1Z</time></trkpt>
<trkpt lat="50.65974220" lon="5.85907370"><ele></ele><time>2014-6-21T19:53:4Z</time></trkpt>
<trkpt lat="50.65946810" lon="5.85893410"><ele></ele><time>2014-6-21T19:53:7Z</time></trkpt>
<trkpt lat="50.65942310" lon="5.85889740"><ele></ele><time>2014-6-21T19:53:10Z</time></trkpt>
<trkpt lat="50.65911830" lon="5.85847980"><ele></ele><time>2014-6-21T19:53:13Z</time></trkpt>
<trkpt lat="50.65915110" lon="5.85834130"><ele></ele><time>2014-6-21T19:53:16Z</time></trkpt>
<trkpt lat="50.65959550" lon="5.85746870"><ele></ele><time>2014-6-21T19:53:19Z</time></trkpt>
<trkpt lat="50.65969500" lon="5.85727320"><ele></ele><time>2014-6-21T19:53:22Z</time></trkpt>
<trkpt lat="50.65998260" lon="5.85649420"><ele></ele><time>2014-6-21T19:53:25Z</time></trkpt>
<trkpt lat="50.66010310" lon="5.85620050"><ele></ele><time>2014-6-21T19:53:28Z</time></trkpt>
<trkpt lat="50.66005660" lon="5.85616840"><ele></ele><time>2014-6-21T19:53:31Z</time></trkpt>
<trkpt lat="50.66005820" lon="5.85619950"><ele></ele><time>2014-6-21T19:53:34Z</time></trkpt>
<trkpt lat="50.66012770" lon="5.85619800"><ele></ele><time>2014-6-21T19:53:37Z</time></trkpt>
<trkpt lat="50.66026380" lon="5.85596380"><ele></ele><time>2014-6-21T19:53:40Z</time></trkpt>
<trkpt lat="50.66034960" lon="5.85580200"><ele></ele><time>2014-6-21T19:53:43Z</time></trkpt>
<trkpt lat="50.66050870" lon="5.85554730"><ele></ele><time>2014-6-21T19:53:46Z</time></trkpt>
<trkpt lat="50.66069120" lon="5.85521820"><ele></ele><time>2014-6-21T19:53:49Z</time></trkpt>
<trkpt lat="50.66095480" lon="5.85474550"><ele></ele><time>2014-6-21T19:53:52Z</time></trkpt>
<trkpt lat="50.66100980" lon="5.85464110"><ele></ele><time>2014-6-21T19:53:55Z</time></trkpt>
<trkpt lat="50.66122630" lon="5.85421400"><ele></ele><time>2014-6-21T19:53:58Z</time></trkpt>
<trkpt lat="50.66133980" lon="5.85381980"><ele></ele><time>2014-6-21T19:54:1Z</time></trkpt>
<trkpt lat="50.66167440" lon="5.85251600"><ele></ele><time>2014-6-21T19:54:4Z</time></trkpt>
<trkpt lat="50.66182300" lon="5.85238140"><ele></ele><time>2014-6-21T19:54:7Z</time></trkpt>
<trkpt lat="50.66190880" lon="5.85241400"><ele></ele><time>2014-6-21T19:54:10Z</time></trkpt>
<trkpt lat="50.66208240" lon="5.85237430"><ele></ele><time>2014-6-21T19:54:13Z</time></trkpt>
<trkpt lat="50.66230880" lon="5.85226420"><ele></ele><time>2014-6-21T19:54:16Z</time></trkpt>
<trkpt lat="50.66237830" lon="5.85238850"><ele></ele><time>2014-6-21T19:54:19Z</time></trkpt>
<trkpt lat="50.66244080" lon="5.85247290"><ele></ele><time>2014-6-21T19:54:22Z</time></trkpt>
<trkpt lat="50.66244320" lon="5.85242990"><ele></ele><time>2014-6-21T19:54:25Z</time></trkpt>
<trkpt lat="50.66241380" lon="5.85244920"><ele></ele><time>2014-6-21T19:54:28Z</time></trkpt>
<trkpt lat="50.66241750" lon="5.85244230"><ele></ele><time>2014-6-21T19:54:31Z</time></trkpt>
<trkpt lat="50.66234720" lon="5.85231120"><ele></ele><time>2014-6-21T19:54:34Z</time></trkpt>
<trkpt lat="50.66232810" lon="5.85222150"><ele></ele><time>2014-6-21T19:54:37Z</time></trkpt>
<trkpt lat="50.66233580" lon="5.85218180"><ele></ele><time>2014-6-21T19:54:40Z</time></trkpt>
<trkpt lat="50.66230800" lon="5.85227350"><ele></ele><time>2014-6-21T19:54:43Z</time></trkpt>
<trkpt lat="50.66231520" lon="5.85228390"><ele></ele><time>2014-6-21T19:54:46Z</time></trkpt>
<trkpt lat="50.66231540" lon="5.85228400"><ele></ele><time>2014-6-21T19:54:49Z</time></trkpt>
<trkpt lat="50.66231610" lon="5.85228440"><ele></ele><time>2014-6-21T19:54:52Z</time></trkpt>
<trkpt lat="50.66231620" lon="5.85228430"><ele></ele><time>2014-6-21T19:54:55Z</time></trkpt>
<trkpt lat="50.66231650" lon="5.85228430"><ele></ele><time>2014-6-21T19:54:58Z</time></trkpt>
<trkpt lat="50.66231670" lon="5.85228480"><ele></ele><time>2014-6-21T19:55:1Z</time></trkpt>
<trkpt lat="50.66231770" lon="5.85228440"><ele></ele><time>2014-6-21T19:55:4Z</time></trkpt>
<trkpt lat="50.66231780" lon="5.85228450"><ele></ele><time>2014-6-21T19:55:7Z</time></trkpt>
<trkpt lat="50.66231810" lon="5.85228450"><ele></ele><time>2014-6-21T19:55:10Z</time></trkpt>
<trkpt lat="50.66231820" lon="5.85228470"><ele></ele><time>2014-6-21T19:55:13Z</time></trkpt>
<trkpt lat="50.66231850" lon="5.85228490"><ele></ele><time>2014-6-21T19:55:16Z</time></trkpt>
<trkpt lat="50.66231870" lon="5.85228480"><ele></ele><time>2014-6-21T19:55:19Z</time></trkpt>
<trkpt lat="50.66231870" lon="5.85228470"><ele></ele><time>2014-6-21T19:55:22Z</time></trkpt>
<trkpt lat="50.66231910" lon="5.85228480"><ele></ele><time>2014-6-21T19:55:25Z</time></trkpt>
<trkpt lat="50.66231930" lon="5.85228490"><ele></ele><time>2014-6-21T19:55:28Z</time></trkpt>
<trkpt lat="50.66231940" lon="5.85228450"><ele></ele><time>2014-6-21T19:55:31Z</time></trkpt>
<trkpt lat="50.66231970" lon="5.85228450"><ele></ele><time>2014-6-21T19:55:34Z</time></trkpt>
<trkpt lat="50.66231980" lon="5.85228440"><ele></ele><time>2014-6-21T19:55:37Z</time></trkpt>
<trkpt lat="50.66232020" lon="5.85228440"><ele></ele><time>2014-6-21T19:55:40Z</time></trkpt>
<trkpt lat="50.66232030" lon="5.85228430"><ele></ele><time>2014-6-21T19:55:43Z</time></trkpt>
<trkpt lat="50.66232070" lon="5.85228400"><ele></ele><time>2014-6-21T19:55:46Z</time></trkpt>
<trkpt lat="50.66232130" lon="5.85228390"><ele></ele><time>2014-6-21T19:55:49Z</time></trkpt>
<trkpt lat="50.66232130" lon="5.85228390"><ele></ele><time>2014-6-21T19:55:52Z</time></trkpt>
<trkpt lat="50.66232380" lon="5.85228230"><ele></ele><time>2014-6-21T19:55:55Z</time></trkpt>
<trkpt lat="50.66232430" lon="5.85228130"><ele></ele><time>2014-6-21T19:55:58Z</time></trkpt>
<trkpt lat="50.66232480" lon="5.85228030"><ele></ele><time>2014-6-21T19:56:1Z</time></trkpt>
<trkpt lat="50.66232510" lon="5.85227970"><ele></ele><time>2014-6-21T19:56:4Z</time></trkpt>
<trkpt lat="50.66232550" lon="5.85227880"><ele></ele><time>2014-6-21T19:56:7Z</time></trkpt>
<trkpt lat="50.66232600" lon="5.85227820"><ele></ele><time>2014-6-21T19:56:10Z</time></trkpt>
<trkpt lat="50.66232710" lon="5.85227610"><ele></ele><time>2014-6-21T19:56:13Z</time></trkpt>
<trkpt lat="50.66232750" lon="5.85227490"><ele></ele><time>2014-6-21T19:56:16Z</time></trkpt>
<trkpt lat="50.66232790" lon="5.85227390"><ele></ele><time>2014-6-21T19:56:19Z</time></trkpt>
<trkpt lat="50.66232870" lon="5.85227200"><ele></ele><time>2014-6-21T19:56:22Z</time></trkpt>
<trkpt lat="50.66232910" lon="5.85227150"><ele></ele><time>2014-6-21T19:56:25Z</time></trkpt>
<trkpt lat="50.66232950" lon="5.85227120"><ele></ele><time>2014-6-21T19:56:28Z</time></trkpt>
<trkpt lat="50.66233150" lon="5.85226100"><ele></ele><time>2014-6-21T19:56:31Z</time></trkpt>
<trkpt lat="50.66233170" lon="5.85225930"><ele></ele><time>2014-6-21T19:56:34Z</time></trkpt>
<trkpt lat="50.66233210" lon="5.85225860"><ele></ele><time>2014-6-21T19:56:37Z</time></trkpt>
<trkpt lat="50.66233220" lon="5.85225800"><ele></ele><time>2014-6-21T19:56:40Z</time></trkpt>
<trkpt lat="50.66233300" lon="5.85225580"><ele></ele><time>2014-6-21T19:56:43Z</time></trkpt>
<trkpt lat="50.66233480" lon="5.85224720"><ele></ele><time>2014-6-21T19:56:46Z</time></trkpt>
<trkpt lat="50.66233490" lon="5.85224620"><ele></ele><time>2014-6-21T19:56:49Z</time></trkpt>
<trkpt lat="50.66233510" lon="5.85224570"><ele></ele><time>2014-6-21T19:56:52Z</time></trkpt>
<trkpt lat="50.66233520" lon="5.85224550"><ele></ele><time>2014-6-21T19:56:55Z</time></trkpt>
<trkpt lat="50.66233530" lon="5.85224460"><ele></ele><time>2014-6-21T19:56:58Z</time></trkpt>
<trkpt lat="50.66233540" lon="5.85224400"><ele></ele><time>2014-6-21T19:57:1Z</time></trkpt>
<trkpt lat="50.66233540" lon="5.85224340"><ele></ele><time>2014-6-21T19:57:4Z</time></trkpt>
<trkpt lat="50.66233560" lon="5.85224190"><ele></ele><time>2014-6-21T19:57:7Z</time></trkpt>
<trkpt lat="50.66233560" lon="5.85224140"><ele></ele><time>2014-6-21T19:57:10Z</time></trkpt>
<trkpt lat="50.66233560" lon="5.85224130"><ele></ele><time>2014-6-21T19:57:13Z</time></trkpt>
<trkpt lat="50.66233580" lon="5.85224090"><ele></ele><time>2014-6-21T19:57:16Z</time></trkpt>
<trkpt lat="50.66233580" lon="5.85224070"><ele></ele><time>2014-6-21T19:57:19Z</time></trkpt>
<trkpt lat="50.66233590" lon="5.85224030"><ele></ele><time>2014-6-21T19:57:22Z</time></trkpt>
<trkpt lat="50.66233580" lon="5.85223990"><ele></ele><time>2014-6-21T19:57:25Z</time></trkpt>
<trkpt lat="50.66233580" lon="5.85223960"><ele></ele><time>2014-6-21T19:57:28Z</time></trkpt>
<trkpt lat="50.66233580" lon="5.85223930"><ele></ele><time>2014-6-21T19:57:31Z</time></trkpt>
<trkpt lat="50.66233580" lon="5.85223920"><ele></ele><time>2014-6-21T19:57:34Z</time></trkpt>
<trkpt lat="50.66233610" lon="5.85223870"><ele></ele><time>2014-6-21T19:57:37Z</time></trkpt>
<trkpt lat="50.66233880" lon="5.85223470"><ele></ele><time>2014-6-21T19:57:40Z</time></trkpt>
<trkpt lat="50.66233790" lon="5.85223570"><ele></ele><time>2014-6-21T19:57:43Z</time></trkpt>
<trkpt lat="50.66233740" lon="5.85223660"><ele></ele><time>2014-6-21T19:57:46Z</time></trkpt>
<trkpt lat="50.66233690" lon="5.85223730"><ele></ele><time>2014-6-21T19:57:49Z</time></trkpt>
<trkpt lat="50.66233630" lon="5.85223740"><ele></ele><time>2014-6-21T19:57:52Z</time></trkpt>
<trkpt lat="50.66233620" lon="5.85223730"><ele></ele><time>2014-6-21T19:57:55Z</time></trkpt>
<trkpt lat="50.66233640" lon="5.85223670"><ele></ele><time>2014-6-21T19:57:58Z</time></trkpt>
<trkpt lat="50.66233800" lon="5.85223550"><ele></ele><time>2014-6-21T19:58:1Z</time></trkpt>
<trkpt lat="50.66233900" lon="5.85223470"><ele></ele><time>2014-6-21T19:58:4Z</time></trkpt>
<trkpt lat="50.66233950" lon="5.85223620"><ele></ele><time>2014-6-21T19:58:7Z</time></trkpt>
<trkpt lat="50.66233930" lon="5.85225010"><ele></ele><time>2014-6-21T19:58:10Z</time></trkpt>
<trkpt lat="50.66233900" lon="5.85225280"><ele></ele><time>2014-6-21T19:58:13Z</time></trkpt>
<trkpt lat="50.66233870" lon="5.85225990"><ele></ele><time>2014-6-21T19:58:16Z</time></trkpt>
<trkpt lat="50.66233840" lon="5.85226200"><ele></ele><time>2014-6-21T19:58:19Z</time></trkpt>
<trkpt lat="50.66233840" lon="5.85226410"><ele></ele><time>2014-6-21T19:58:22Z</time></trkpt>
<trkpt lat="50.66233830" lon="5.85226630"><ele></ele><time>2014-6-21T19:58:25Z</time></trkpt>
<trkpt lat="50.66233150" lon="5.85231470"><ele></ele><time>2014-6-21T19:58:28Z</time></trkpt>
<trkpt lat="50.65161150" lon="5.74038410"><ele></ele><time>2014-6-21T19:58:31Z</time></trkpt>
<trkpt lat="50.65282420" lon="5.74193560"><ele></ele><time>2014-6-21T19:58:34Z</time></trkpt>
<trkpt lat="50.65418510" lon="5.74278580"><ele></ele><time>2014-6-21T19:58:37Z</time></trkpt>
<trkpt lat="50.65733820" lon="5.74159550"><ele></ele><time>2014-6-21T19:58:40Z</time></trkpt>
<trkpt lat="50.65884740" lon="5.74040530"><ele></ele><time>2014-6-21T19:58:43Z</time></trkpt>
<trkpt lat="50.65911690" lon="5.74040530"><ele></ele><time>2014-6-21T19:58:46Z</time></trkpt>
<trkpt lat="50.65913040" lon="5.74040530"><ele></ele><time>2014-6-21T19:58:49Z</time></trkpt>
<trkpt lat="50.65976370" lon="5.74148930"><ele></ele><time>2014-6-21T19:58:52Z</time></trkpt>
<trkpt lat="50.65970280" lon="5.74296550"><ele></ele><time>2014-6-21T19:58:55Z</time></trkpt>
<trkpt lat="50.65982400" lon="5.74436840"><ele></ele><time>2014-6-21T19:58:58Z</time></trkpt>
<trkpt lat="50.66098280" lon="5.74764200"><ele></ele><time>2014-6-21T19:59:1Z</time></trkpt>
<trkpt lat="50.66111760" lon="5.74921500"><ele></ele><time>2014-6-21T19:59:4Z</time></trkpt>
<trkpt lat="50.66059870" lon="5.75326430"><ele></ele><time>2014-6-21T19:59:7Z</time></trkpt>
<trkpt lat="50.66057170" lon="5.75504990"><ele></ele><time>2014-6-21T19:59:10Z</time></trkpt>
<trkpt lat="50.66077390" lon="5.75536880"><ele></ele><time>2014-6-21T19:59:13Z</time></trkpt>
<trkpt lat="50.66152840" lon="5.75556010"><ele></ele><time>2014-6-21T19:59:16Z</time></trkpt>
<trkpt lat="50.66181140" lon="5.75326430"><ele></ele><time>2014-6-21T19:59:19Z</time></trkpt>
<trkpt lat="50.66195970" lon="5.75298800"><ele></ele><time>2014-6-21T19:59:22Z</time></trkpt>
<trkpt lat="50.66236380" lon="5.75298800"><ele></ele><time>2014-6-21T19:59:25Z</time></trkpt>
<trkpt lat="50.66237730" lon="5.75298800"><ele></ele><time>2014-6-21T19:59:28Z</time></trkpt>
<trkpt lat="50.66259290" lon="5.75275410"><ele></ele><time>2014-6-21T19:59:31Z</time></trkpt>
<trkpt lat="50.66294330" lon="5.75103220"><ele></ele><time>2014-6-21T19:59:34Z</time></trkpt>
<trkpt lat="50.66442550" lon="5.74729100"><ele></ele><time>2014-6-21T19:59:37Z</time></trkpt>
<trkpt lat="50.66402130" lon="5.75086220"><ele></ele><time>2014-6-21T19:59:40Z</time></trkpt>
<trkpt lat="50.66395390" lon="5.75115980"><ele></ele><time>2014-6-21T19:59:43Z</time></trkpt>
<trkpt lat="50.66468150" lon="5.75307300"><ele></ele><time>2014-6-21T19:59:46Z</time></trkpt>
<trkpt lat="50.66476240" lon="5.75500740"><ele></ele><time>2014-6-21T19:59:49Z</time></trkpt>
<trkpt lat="50.66464110" lon="5.75541130"><ele></ele><time>2014-6-21T19:59:52Z</time></trkpt>
<trkpt lat="50.66513970" lon="5.76042810"><ele></ele><time>2014-6-21T19:59:55Z</time></trkpt>
<trkpt lat="50.66530810" lon="5.76358480"><ele></ele><time>2014-6-21T19:59:58Z</time></trkpt>
<trkpt lat="50.66548330" lon="5.76488160"><ele></ele><time>2014-6-21T20:0:1Z</time></trkpt>
<trkpt lat="50.66548330" lon="5.76492410"><ele></ele><time>2014-6-21T20:0:4Z</time></trkpt>
<trkpt lat="50.66541590" lon="5.76577450"><ele></ele><time>2014-6-21T20:0:7Z</time></trkpt>
<trkpt lat="50.66517330" lon="5.76662490"><ele></ele><time>2014-6-21T20:0:10Z</time></trkpt>
<trkpt lat="50.66526770" lon="5.76741150"><ele></ele><time>2014-6-21T20:0:13Z</time></trkpt>
<trkpt lat="50.66564490" lon="5.76815550"><ele></ele><time>2014-6-21T20:0:16Z</time></trkpt>
<trkpt lat="50.66509250" lon="5.77043020"><ele></ele><time>2014-6-21T20:0:19Z</time></trkpt>
<trkpt lat="50.66486340" lon="5.77189710"><ele></ele><time>2014-6-21T20:0:22Z</time></trkpt>
<trkpt lat="50.66408190" lon="5.77429940"><ele></ele><time>2014-6-21T20:0:25Z</time></trkpt>
<trkpt lat="50.66340810" lon="5.77674410"><ele></ele><time>2014-6-21T20:0:28Z</time></trkpt>
<trkpt lat="50.66119210" lon="5.78136810"><ele></ele><time>2014-6-21T20:0:31Z</time></trkpt>
<trkpt lat="50.66063970" lon="5.78202700"><ele></ele><time>2014-6-21T20:0:34Z</time></trkpt>
<trkpt lat="50.66011410" lon="5.78349370"><ele></ele><time>2014-6-21T20:0:37Z</time></trkpt>
<trkpt lat="50.65922480" lon="5.78434390"><ele></ele><time>2014-6-21T20:0:40Z</time></trkpt>
<trkpt lat="50.65733840" lon="5.78483280"><ele></ele><time>2014-6-21T20:0:43Z</time></trkpt>
<trkpt lat="50.65652990" lon="5.78561930"><ele></ele><time>2014-6-21T20:0:46Z</time></trkpt>
<trkpt lat="50.65564750" lon="5.78843520"><ele></ele><time>2014-6-21T20:0:49Z</time></trkpt>
<trkpt lat="50.65521630" lon="5.79121940"><ele></ele><time>2014-6-21T20:0:52Z</time></trkpt>
<trkpt lat="50.65521630" lon="5.79124060"><ele></ele><time>2014-6-21T20:0:55Z</time></trkpt>
<trkpt lat="50.65400360" lon="5.79070930"><ele></ele><time>2014-6-21T20:0:58Z</time></trkpt>
<trkpt lat="50.65368020" lon="5.79028430"><ele></ele><time>2014-6-21T20:1:1Z</time></trkpt>
<trkpt lat="50.65192660" lon="5.79048510"><ele></ele><time>2014-6-21T20:1:4Z</time></trkpt>
<trkpt lat="50.65011200" lon="5.79151930"><ele></ele><time>2014-6-21T20:1:7Z</time></trkpt>
<trkpt lat="50.64903400" lon="5.79346040"><ele></ele><time>2014-6-21T20:1:10Z</time></trkpt>
<trkpt lat="50.64880950" lon="5.79490560"><ele></ele><time>2014-6-21T20:1:13Z</time></trkpt>
<trkpt lat="50.64880950" lon="5.79538730"><ele></ele><time>2014-6-21T20:1:16Z</time></trkpt>
<trkpt lat="50.64880950" lon="5.79540150"><ele></ele><time>2014-6-21T20:1:19Z</time></trkpt>
<trkpt lat="50.64875560" lon="5.79555730"><ele></ele><time>2014-6-21T20:1:22Z</time></trkpt>
<trkpt lat="50.64856660" lon="5.79578570"><ele></ele><time>2014-6-21T20:1:25Z</time></trkpt>
<trkpt lat="50.64841380" lon="5.79605490"><ele></ele><time>2014-6-21T20:1:28Z</time></trkpt>
<trkpt lat="50.64830600" lon="5.79656490"><ele></ele><time>2014-6-21T20:1:31Z</time></trkpt>
<trkpt lat="50.64792880" lon="5.79779750"><ele></ele><time>2014-6-21T20:1:34Z</time></trkpt>
<trkpt lat="50.64698870" lon="5.79728170"><ele></ele><time>2014-6-21T20:1:37Z</time></trkpt>
<trkpt lat="50.64594490" lon="5.79525870"><ele></ele><time>2014-6-21T20:1:40Z</time></trkpt>
<trkpt lat="50.64371590" lon="5.79330040"><ele></ele><time>2014-6-21T20:1:43Z</time></trkpt>
<trkpt lat="50.64347200" lon="5.79312120"><ele></ele><time>2014-6-21T20:1:46Z</time></trkpt>
<trkpt lat="50.64274440" lon="5.79200210"><ele></ele><time>2014-6-21T20:1:49Z</time></trkpt>
<trkpt lat="50.64000440" lon="5.78279440"><ele></ele><time>2014-6-21T20:1:52Z</time></trkpt>
<trkpt lat="50.64002240" lon="5.78231270"><ele></ele><time>2014-6-21T20:1:55Z</time></trkpt>
<trkpt lat="50.64002240" lon="5.78229860"><ele></ele><time>2014-6-21T20:1:58Z</time></trkpt>
<trkpt lat="50.63859920" lon="5.76969920"><ele></ele><time>2014-6-21T20:2:1Z</time></trkpt>
<trkpt lat="50.63961790" lon="5.75451460"><ele></ele><time>2014-6-21T20:2:4Z</time></trkpt>
<trkpt lat="50.64142390" lon="5.75251840"><ele></ele><time>2014-6-21T20:2:7Z</time></trkpt>
<trkpt lat="50.64197190" lon="5.75175360"><ele></ele><time>2014-6-21T20:2:10Z</time></trkpt>
<trkpt lat="50.64499080" lon="5.74624040"><ele></ele><time>2014-6-21T20:2:13Z</time></trkpt>
<trkpt lat="50.64658090" lon="5.74482370"><ele></ele><time>2014-6-21T20:2:16Z</time></trkpt>
<trkpt lat="50.64702110" lon="5.74417060"><ele></ele><time>2014-6-21T20:2:19Z</time></trkpt>
<trkpt lat="50.64702110" lon="5.74415650"><ele></ele><time>2014-6-21T20:2:22Z</time></trkpt>
<trkpt lat="50.64861120" lon="5.74085540"><ele></ele><time>2014-6-21T20:2:25Z</time></trkpt>
<trkpt lat="50.64853030" lon="5.73996280"><ele></ele><time>2014-6-21T20:2:28Z</time></trkpt>
<trkpt lat="50.64898840" lon="5.73932530"><ele></ele><time>2014-6-21T20:2:31Z</time></trkpt>
<trkpt lat="50.64976990" lon="5.73839030"><ele></ele><time>2014-6-21T20:2:34Z</time></trkpt>
<trkpt lat="50.65162950" lon="5.74038790"><ele></ele><time>2014-6-21T20:2:37Z</time></trkpt>
<trkpt lat="50.63214870" lon="6.07446600"><ele></ele><time>2014-6-21T20:2:40Z</time></trkpt>
<trkpt lat="50.63240050" lon="6.07450000"><ele></ele><time>2014-6-21T20:2:43Z</time></trkpt>
<trkpt lat="50.63236620" lon="6.07425000"><ele></ele><time>2014-6-21T20:2:46Z</time></trkpt>
<trkpt lat="50.63245010" lon="6.07450000"><ele></ele><time>2014-6-21T20:2:49Z</time></trkpt>
<trkpt lat="50.63251500" lon="6.07425000"><ele></ele><time>2014-6-21T20:2:52Z</time></trkpt>
<trkpt lat="50.63238140" lon="6.07416600"><ele></ele><time>2014-6-21T20:2:55Z</time></trkpt>
<trkpt lat="50.63238140" lon="6.07443300"><ele></ele><time>2014-6-21T20:2:58Z</time></trkpt>
<trkpt lat="50.63253400" lon="6.07438300"><ele></ele><time>2014-6-21T20:3:1Z</time></trkpt>
<trkpt lat="50.63238140" lon="6.07446600"><ele></ele><time>2014-6-21T20:3:4Z</time></trkpt>
<trkpt lat="50.63268280" lon="6.07474900"><ele></ele><time>2014-6-21T20:3:7Z</time></trkpt>
<trkpt lat="50.63264850" lon="6.07515000"><ele></ele><time>2014-6-21T20:3:10Z</time></trkpt>
<trkpt lat="50.63331600" lon="6.07601600"><ele></ele><time>2014-6-21T20:3:13Z</time></trkpt>
<trkpt lat="50.63351820" lon="6.07600000"><ele></ele><time>2014-6-21T20:3:16Z</time></trkpt>
<trkpt lat="50.63383480" lon="6.07616600"><ele></ele><time>2014-6-21T20:3:19Z</time></trkpt>
<trkpt lat="50.63396840" lon="6.07623300"><ele></ele><time>2014-6-21T20:3:22Z</time></trkpt>
<trkpt lat="50.63413240" lon="6.07626600"><ele></ele><time>2014-6-21T20:3:25Z</time></trkpt>
<trkpt lat="50.63399890" lon="6.07635000"><ele></ele><time>2014-6-21T20:3:28Z</time></trkpt>
<trkpt lat="50.63388440" lon="6.07628300"><ele></ele><time>2014-6-21T20:3:31Z</time></trkpt>
<trkpt lat="50.63363270" lon="6.07609900"><ele></ele><time>2014-6-21T20:3:34Z</time></trkpt>
<trkpt lat="50.63449860" lon="6.07683300"><ele></ele><time>2014-6-21T20:3:37Z</time></trkpt>
<trkpt lat="50.63436510" lon="6.07726600"><ele></ele><time>2014-6-21T20:3:40Z</time></trkpt>
<trkpt lat="50.63434980" lon="6.07761600"><ele></ele><time>2014-6-21T20:3:43Z</time></trkpt>
<trkpt lat="50.63439940" lon="6.07830000"><ele></ele><time>2014-6-21T20:3:46Z</time></trkpt>
<trkpt lat="50.63448330" lon="6.07881600"><ele></ele><time>2014-6-21T20:3:49Z</time></trkpt>
<trkpt lat="50.63471600" lon="6.07929900"><ele></ele><time>2014-6-21T20:3:52Z</time></trkpt>
<trkpt lat="50.63521580" lon="6.07991600"><ele></ele><time>2014-6-21T20:3:55Z</time></trkpt>
<trkpt lat="50.63534930" lon="6.08138300"><ele></ele><time>2014-6-21T20:3:58Z</time></trkpt>
<trkpt lat="50.63461690" lon="6.08378300"><ele></ele><time>2014-6-21T20:4:1Z</time></trkpt>
<trkpt lat="50.63410190" lon="6.08378300"><ele></ele><time>2014-6-21T20:4:4Z</time></trkpt>
<trkpt lat="50.63331600" lon="6.08401600"><ele></ele><time>2014-6-21T20:4:7Z</time></trkpt>
<trkpt lat="50.63308330" lon="6.08428300"><ele></ele><time>2014-6-21T20:4:10Z</time></trkpt>
<trkpt lat="50.63301850" lon="6.08476600"><ele></ele><time>2014-6-21T20:4:13Z</time></trkpt>
<trkpt lat="50.63280110" lon="6.08615000"><ele></ele><time>2014-6-21T20:4:16Z</time></trkpt>
<trkpt lat="50.63270190" lon="6.08673300"><ele></ele><time>2014-6-21T20:4:19Z</time></trkpt>
<trkpt lat="50.63253400" lon="6.08820000"><ele></ele><time>2014-6-21T20:4:22Z</time></trkpt>
<trkpt lat="50.63253400" lon="6.08936600"><ele></ele><time>2014-6-21T20:4:25Z</time></trkpt>
<trkpt lat="50.63230130" lon="6.09003300"><ele></ele><time>2014-6-21T20:4:28Z</time></trkpt>
<trkpt lat="50.63209920" lon="6.09046600"><ele></ele><time>2014-6-21T20:4:31Z</time></trkpt>
<trkpt lat="50.63174820" lon="6.09026600"><ele></ele><time>2014-6-21T20:4:34Z</time></trkpt>
<trkpt lat="50.62934880" lon="6.08653300"><ele></ele><time>2014-6-21T20:4:37Z</time></trkpt>
<trkpt lat="50.62941740" lon="6.08565000"><ele></ele><time>2014-6-21T20:4:40Z</time></trkpt>
<trkpt lat="50.62951660" lon="6.08471600"><ele></ele><time>2014-6-21T20:4:43Z</time></trkpt>
<trkpt lat="50.62968440" lon="6.08406600"><ele></ele><time>2014-6-21T20:4:46Z</time></trkpt>
<trkpt lat="50.62968440" lon="6.08313300"><ele></ele><time>2014-6-21T20:4:49Z</time></trkpt>
<trkpt lat="50.62996670" lon="6.08134900"><ele></ele><time>2014-6-21T20:4:52Z</time></trkpt>
<trkpt lat="50.63006590" lon="6.08120000"><ele></ele><time>2014-6-21T20:4:55Z</time></trkpt>
<trkpt lat="50.63018420" lon="6.08085000"><ele></ele><time>2014-6-21T20:4:58Z</time></trkpt>
<trkpt lat="50.62948230" lon="6.08038300"><ele></ele><time>2014-6-21T20:5:1Z</time></trkpt>
<trkpt lat="50.62920000" lon="6.08055000"><ele></ele><time>2014-6-21T20:5:4Z</time></trkpt>
<trkpt lat="50.62898250" lon="6.08076600"><ele></ele><time>2014-6-21T20:5:7Z</time></trkpt>
<trkpt lat="50.62874980" lon="6.08059900"><ele></ele><time>2014-6-21T20:5:10Z</time></trkpt>
<trkpt lat="50.62826540" lon="6.08080000"><ele></ele><time>2014-6-21T20:5:13Z</time></trkpt>
<trkpt lat="50.62816620" lon="6.08104900"><ele></ele><time>2014-6-21T20:5:16Z</time></trkpt>
<trkpt lat="50.62789920" lon="6.08146600"><ele></ele><time>2014-6-21T20:5:19Z</time></trkpt>
<trkpt lat="50.62761690" lon="6.08191600"><ele></ele><time>2014-6-21T20:5:22Z</time></trkpt>
<trkpt lat="50.62723160" lon="6.08248300"><ele></ele><time>2014-6-21T20:5:25Z</time></trkpt>
<trkpt lat="50.62678150" lon="6.08300000"><ele></ele><time>2014-6-21T20:5:28Z</time></trkpt>
<trkpt lat="50.62656780" lon="6.08356600"><ele></ele><time>2014-6-21T20:5:31Z</time></trkpt>
<trkpt lat="50.62646480" lon="6.08406600"><ele></ele><time>2014-6-21T20:5:34Z</time></trkpt>
<trkpt lat="50.62658310" lon="6.08461600"><ele></ele><time>2014-6-21T20:5:37Z</time></trkpt>
<trkpt lat="50.62693410" lon="6.08508300"><ele></ele><time>2014-6-21T20:5:40Z</time></trkpt>
<trkpt lat="50.62665180" lon="6.08570000"><ele></ele><time>2014-6-21T20:5:43Z</time></trkpt>
<trkpt lat="50.62633510" lon="6.08598300"><ele></ele><time>2014-6-21T20:5:46Z</time></trkpt>
<trkpt lat="50.62604900" lon="6.08605000"><ele></ele><time>2014-6-21T20:5:49Z</time></trkpt>
<trkpt lat="50.62566760" lon="6.08600000"><ele></ele><time>2014-6-21T20:5:52Z</time></trkpt>
<trkpt lat="50.62528230" lon="6.08615000"><ele></ele><time>2014-6-21T20:5:55Z</time></trkpt>
<trkpt lat="50.62480160" lon="6.08648300"><ele></ele><time>2014-6-21T20:5:58Z</time></trkpt>
<trkpt lat="50.62443160" lon="6.08703300"><ele></ele><time>2014-6-21T20:6:1Z</time></trkpt>
<trkpt lat="50.62414930" lon="6.08756600"><ele></ele><time>2014-6-21T20:6:4Z</time></trkpt>
<trkpt lat="50.62416840" lon="6.08843300"><ele></ele><time>2014-6-21T20:6:7Z</time></trkpt>
<trkpt lat="50.62414930" lon="6.08918300"><ele></ele><time>2014-6-21T20:6:10Z</time></trkpt>
<trkpt lat="50.62426760" lon="6.08960000"><ele></ele><time>2014-6-21T20:6:13Z</time></trkpt>
<trkpt lat="50.62446590" lon="6.08991600"><ele></ele><time>2014-6-21T20:6:16Z</time></trkpt>
<trkpt lat="50.62490080" lon="6.09051600"><ele></ele><time>2014-6-21T20:6:19Z</time></trkpt>
<trkpt lat="50.62504960" lon="6.09096600"><ele></ele><time>2014-6-21T20:6:22Z</time></trkpt>
<trkpt lat="50.62514880" lon="6.09119900"><ele></ele><time>2014-6-21T20:6:25Z</time></trkpt>
<trkpt lat="50.62486650" lon="6.09133300"><ele></ele><time>2014-6-21T20:6:28Z</time></trkpt>
<trkpt lat="50.62445070" lon="6.09113300"><ele></ele><time>2014-6-21T20:6:31Z</time></trkpt>
<trkpt lat="50.62413410" lon="6.09121600"><ele></ele><time>2014-6-21T20:6:34Z</time></trkpt>
<trkpt lat="50.62390140" lon="6.09161600"><ele></ele><time>2014-6-21T20:6:37Z</time></trkpt>
<trkpt lat="50.62374880" lon="6.09180000"><ele></ele><time>2014-6-21T20:6:40Z</time></trkpt>
<trkpt lat="50.62363430" lon="6.09201600"><ele></ele><time>2014-6-21T20:6:43Z</time></trkpt>
<trkpt lat="50.62303160" lon="6.09153300"><ele></ele><time>2014-6-21T20:6:46Z</time></trkpt>
<trkpt lat="50.62203220" lon="6.09114900"><ele></ele><time>2014-6-21T20:6:49Z</time></trkpt>
<trkpt lat="50.62173460" lon="6.09131600"><ele></ele><time>2014-6-21T20:6:52Z</time></trkpt>
<trkpt lat="50.62093350" lon="6.09056600"><ele></ele><time>2014-6-21T20:6:55Z</time></trkpt>
<trkpt lat="50.62039950" lon="6.09046600"><ele></ele><time>2014-6-21T20:6:58Z</time></trkpt>
<trkpt lat="50.62001800" lon="6.09084900"><ele></ele><time>2014-6-21T20:7:1Z</time></trkpt>
<trkpt lat="50.61978150" lon="6.09118300"><ele></ele><time>2014-6-21T20:7:4Z</time></trkpt>
<trkpt lat="50.61859890" lon="6.09058300"><ele></ele><time>2014-6-21T20:7:7Z</time></trkpt>
<trkpt lat="50.61788180" lon="6.08979900"><ele></ele><time>2014-6-21T20:7:10Z</time></trkpt>
<trkpt lat="50.61723330" lon="6.08850000"><ele></ele><time>2014-6-21T20:7:13Z</time></trkpt>
<trkpt lat="50.61634830" lon="6.08906600"><ele></ele><time>2014-6-21T20:7:16Z</time></trkpt>
<trkpt lat="50.61589810" lon="6.08921600"><ele></ele><time>2014-6-21T20:7:19Z</time></trkpt>
<trkpt lat="50.61361690" lon="6.08786600"><ele></ele><time>2014-6-21T20:7:22Z</time></trkpt>
<trkpt lat="50.61163330" lon="6.08771600"><ele></ele><time>2014-6-21T20:7:25Z</time></trkpt>
<trkpt lat="50.61118320" lon="6.08790000"><ele></ele><time>2014-6-21T20:7:28Z</time></trkpt>
<trkpt lat="50.61064910" lon="6.08925000"><ele></ele><time>2014-6-21T20:7:31Z</time></trkpt>
<trkpt lat="50.61021800" lon="6.08991600"><ele></ele><time>2014-6-21T20:7:34Z</time></trkpt>
<trkpt lat="50.60910030" lon="6.10336600"><ele></ele><time>2014-6-21T20:7:37Z</time></trkpt>
<trkpt lat="50.60879900" lon="6.10410000"><ele></ele><time>2014-6-21T20:7:40Z</time></trkpt>
<trkpt lat="50.60838320" lon="6.10463300"><ele></ele><time>2014-6-21T20:7:43Z</time></trkpt>
<trkpt lat="50.60683440" lon="6.10526600"><ele></ele><time>2014-6-21T20:7:46Z</time></trkpt>
<trkpt lat="50.60626600" lon="6.10581600"><ele></ele><time>2014-6-21T20:7:49Z</time></trkpt>
<trkpt lat="50.60609820" lon="6.10559900"><ele></ele><time>2014-6-21T20:7:52Z</time></trkpt>
<trkpt lat="50.60588460" lon="6.10554900"><ele></ele><time>2014-6-21T20:7:55Z</time></trkpt>
<trkpt lat="50.60563280" lon="6.10556600"><ele></ele><time>2014-6-21T20:7:58Z</time></trkpt>
<trkpt lat="50.60523220" lon="6.10541600"><ele></ele><time>2014-6-21T20:8:1Z</time></trkpt>
<trkpt lat="50.60496520" lon="6.10524900"><ele></ele><time>2014-6-21T20:8:4Z</time></trkpt>
<trkpt lat="50.60464860" lon="6.10478300"><ele></ele><time>2014-6-21T20:8:7Z</time></trkpt>
<trkpt lat="50.60445020" lon="6.10454900"><ele></ele><time>2014-6-21T20:8:10Z</time></trkpt>
<trkpt lat="50.60421750" lon="6.10426600"><ele></ele><time>2014-6-21T20:8:13Z</time></trkpt>
<trkpt lat="50.60404970" lon="6.10388300"><ele></ele><time>2014-6-21T20:8:16Z</time></trkpt>
<trkpt lat="50.60378270" lon="6.10323300"><ele></ele><time>2014-6-21T20:8:19Z</time></trkpt>
<trkpt lat="50.60290150" lon="6.10344900"><ele></ele><time>2014-6-21T20:8:22Z</time></trkpt>
<trkpt lat="50.60260010" lon="6.10363300"><ele></ele><time>2014-6-21T20:8:25Z</time></trkpt>
<trkpt lat="50.60211560" lon="6.10356600"><ele></ele><time>2014-6-21T20:8:28Z</time></trkpt>
<trkpt lat="50.60179900" lon="6.10341600"><ele></ele><time>2014-6-21T20:8:31Z</time></trkpt>
<trkpt lat="50.60060120" lon="6.10343300"><ele></ele><time>2014-6-21T20:8:34Z</time></trkpt>
<trkpt lat="50.59994890" lon="6.10340000"><ele></ele><time>2014-6-21T20:8:37Z</time></trkpt>
<trkpt lat="50.59965130" lon="6.10333300"><ele></ele><time>2014-6-21T20:8:40Z</time></trkpt>
<trkpt lat="50.59943390" lon="6.10331600"><ele></ele><time>2014-6-21T20:8:43Z</time></trkpt>
<trkpt lat="50.59821700" lon="6.10548300"><ele></ele><time>2014-6-21T20:8:46Z</time></trkpt>
<trkpt lat="50.59791560" lon="6.10615000"><ele></ele><time>2014-6-21T20:8:49Z</time></trkpt>
<trkpt lat="50.59586720" lon="6.11021600"><ele></ele><time>2014-6-21T20:8:52Z</time></trkpt>
<trkpt lat="50.59574890" lon="6.11053300"><ele></ele><time>2014-6-21T20:8:55Z</time></trkpt>
<trkpt lat="50.59428410" lon="6.11341600"><ele></ele><time>2014-6-21T20:8:58Z</time></trkpt>
<trkpt lat="50.59370040" lon="6.11461600"><ele></ele><time>2014-6-21T20:9:1Z</time></trkpt>
<trkpt lat="50.59341810" lon="6.11513300"><ele></ele><time>2014-6-21T20:9:4Z</time></trkpt>
<trkpt lat="50.59284970" lon="6.11621600"><ele></ele><time>2014-6-21T20:9:7Z</time></trkpt>
<trkpt lat="50.59265140" lon="6.11609900"><ele></ele><time>2014-6-21T20:9:10Z</time></trkpt>
<trkpt lat="50.58990100" lon="6.11273300"><ele></ele><time>2014-6-21T20:9:13Z</time></trkpt>
<trkpt lat="50.58961490" lon="6.11201600"><ele></ele><time>2014-6-21T20:9:16Z</time></trkpt>
<trkpt lat="50.58935170" lon="6.11186600"><ele></ele><time>2014-6-21T20:9:19Z</time></trkpt>
<trkpt lat="50.58895110" lon="6.11233300"><ele></ele><time>2014-6-21T20:9:22Z</time></trkpt>
<trkpt lat="50.58860020" lon="6.11245000"><ele></ele><time>2014-6-21T20:9:25Z</time></trkpt>
<trkpt lat="50.58778380" lon="6.11278300"><ele></ele><time>2014-6-21T20:9:28Z</time></trkpt>
<trkpt lat="50.58748250" lon="6.11305000"><ele></ele><time>2014-6-21T20:9:31Z</time></trkpt>
<trkpt lat="50.58684920" lon="6.11351600"><ele></ele><time>2014-6-21T20:9:34Z</time></trkpt>
<trkpt lat="50.58643340" lon="6.11390000"><ele></ele><time>2014-6-21T20:9:37Z</time></trkpt>
<trkpt lat="50.58601760" lon="6.11485000"><ele></ele><time>2014-6-21T20:9:40Z</time></trkpt>
<trkpt lat="50.58586500" lon="6.11544900"><ele></ele><time>2014-6-21T20:9:43Z</time></trkpt>
<trkpt lat="50.58549880" lon="6.11628300"><ele></ele><time>2014-6-21T20:9:46Z</time></trkpt>
<trkpt lat="50.58530040" lon="6.11646600"><ele></ele><time>2014-6-21T20:9:49Z</time></trkpt>
<trkpt lat="50.58525090" lon="6.11618300"><ele></ele><time>2014-6-21T20:9:52Z</time></trkpt>
<trkpt lat="50.58599850" lon="6.11530000"><ele></ele><time>2014-6-21T20:9:55Z</time></trkpt>
<trkpt lat="50.58599850" lon="6.11503300"><ele></ele><time>2014-6-21T20:9:58Z</time></trkpt>
<trkpt lat="50.58601760" lon="6.11483300"><ele></ele><time>2014-6-21T20:10:1Z</time></trkpt>
<trkpt lat="50.58601760" lon="6.11456600"><ele></ele><time>2014-6-21T20:10:4Z</time></trkpt>
<trkpt lat="50.58613200" lon="6.11425000"><ele></ele><time>2014-6-21T20:10:7Z</time></trkpt>
<trkpt lat="50.58616640" lon="6.11358300"><ele></ele><time>2014-6-21T20:10:10Z</time></trkpt>
<trkpt lat="50.58616640" lon="6.11323300"><ele></ele><time>2014-6-21T20:10:13Z</time></trkpt>
<trkpt lat="50.58703230" lon="6.11231600"><ele></ele><time>2014-6-21T20:10:16Z</time></trkpt>
<trkpt lat="50.58918380" lon="6.11073300"><ele></ele><time>2014-6-21T20:10:19Z</time></trkpt>
<trkpt lat="50.58959960" lon="6.11040000"><ele></ele><time>2014-6-21T20:10:22Z</time></trkpt>
<trkpt lat="50.58971790" lon="6.11023300"><ele></ele><time>2014-6-21T20:10:25Z</time></trkpt>
<trkpt lat="50.58974840" lon="6.10995000"><ele></ele><time>2014-6-21T20:10:28Z</time></trkpt>
<trkpt lat="50.58985140" lon="6.10978300"><ele></ele><time>2014-6-21T20:10:31Z</time></trkpt>
<trkpt lat="50.59001540" lon="6.10938300"><ele></ele><time>2014-6-21T20:10:34Z</time></trkpt>
<trkpt lat="50.59009930" lon="6.10920000"><ele></ele><time>2014-6-21T20:10:37Z</time></trkpt>
<trkpt lat="50.59019850" lon="6.10896600"><ele></ele><time>2014-6-21T20:10:40Z</time></trkpt>
<trkpt lat="50.59028240" lon="6.10866600"><ele></ele><time>2014-6-21T20:10:43Z</time></trkpt>
<trkpt lat="50.59036640" lon="6.10821600"><ele></ele><time>2014-6-21T20:10:46Z</time></trkpt>
<trkpt lat="50.59059910" lon="6.10773300"><ele></ele><time>2014-6-21T20:10:49Z</time></trkpt>
<trkpt lat="50.59148410" lon="6.10694900"><ele></ele><time>2014-6-21T20:10:52Z</time></trkpt>
<trkpt lat="50.59158330" lon="6.10669900"><ele></ele><time>2014-6-21T20:10:55Z</time></trkpt>
<trkpt lat="50.59173200" lon="6.10653300"><ele></ele><time>2014-6-21T20:10:58Z</time></trkpt>
<trkpt lat="50.59176640" lon="6.10624900"><ele></ele><time>2014-6-21T20:11:1Z</time></trkpt>
<trkpt lat="50.59198380" lon="6.10573300"><ele></ele><time>2014-6-21T20:11:4Z</time></trkpt>
<trkpt lat="50.59209820" lon="6.10546600"><ele></ele><time>2014-6-21T20:11:7Z</time></trkpt>
<trkpt lat="50.59221650" lon="6.10506600"><ele></ele><time>2014-6-21T20:11:10Z</time></trkpt>
<trkpt lat="50.59239960" lon="6.10436600"><ele></ele><time>2014-6-21T20:11:13Z</time></trkpt>
<trkpt lat="50.59253310" lon="6.10406600"><ele></ele><time>2014-6-21T20:11:16Z</time></trkpt>
<trkpt lat="50.59286500" lon="6.10375000"><ele></ele><time>2014-6-21T20:11:19Z</time></trkpt>
<trkpt lat="50.59303280" lon="6.10349900"><ele></ele><time>2014-6-21T20:11:22Z</time></trkpt>
<trkpt lat="50.59329990" lon="6.10343300"><ele></ele><time>2014-6-21T20:11:25Z</time></trkpt>
<trkpt lat="50.59344860" lon="6.10316600"><ele></ele><time>2014-6-21T20:11:28Z</time></trkpt>
<trkpt lat="50.59396740" lon="6.10338300"><ele></ele><time>2014-6-21T20:11:31Z</time></trkpt>
<trkpt lat="50.59424970" lon="6.10363300"><ele></ele><time>2014-6-21T20:11:34Z</time></trkpt>
<trkpt lat="50.59445190" lon="6.10405000"><ele></ele><time>2014-6-21T20:11:37Z</time></trkpt>
<trkpt lat="50.59461590" lon="6.10453300"><ele></ele><time>2014-6-21T20:11:40Z</time></trkpt>
<trkpt lat="50.59469990" lon="6.10473300"><ele></ele><time>2014-6-21T20:11:43Z</time></trkpt>
<trkpt lat="50.59489820" lon="6.10471600"><ele></ele><time>2014-6-21T20:11:46Z</time></trkpt>
<trkpt lat="50.59510040" lon="6.10458300"><ele></ele><time>2014-6-21T20:11:49Z</time></trkpt>
<trkpt lat="50.59531780" lon="6.10416600"><ele></ele><time>2014-6-21T20:11:52Z</time></trkpt>
<trkpt lat="50.59619900" lon="6.10435000"><ele></ele><time>2014-6-21T20:11:55Z</time></trkpt>
<trkpt lat="50.59645080" lon="6.10425000"><ele></ele><time>2014-6-21T20:11:58Z</time></trkpt>
<trkpt lat="50.59663390" lon="6.10418300"><ele></ele><time>2014-6-21T20:12:1Z</time></trkpt>
<trkpt lat="50.59641650" lon="6.10393300"><ele></ele><time>2014-6-21T20:12:4Z</time></trkpt>
<trkpt lat="50.59590150" lon="6.10346600"><ele></ele><time>2014-6-21T20:12:7Z</time></trkpt>
<trkpt lat="50.59568410" lon="6.10296600"><ele></ele><time>2014-6-21T20:12:10Z</time></trkpt>
<trkpt lat="50.59590150" lon="6.10290000"><ele></ele><time>2014-6-21T20:12:13Z</time></trkpt>
<trkpt lat="50.59624860" lon="6.10161600"><ele></ele><time>2014-6-21T20:12:16Z</time></trkpt>
<trkpt lat="50.59645080" lon="6.10151600"><ele></ele><time>2014-6-21T20:12:19Z</time></trkpt>
<trkpt lat="50.59686660" lon="6.10165000"><ele></ele><time>2014-6-21T20:12:22Z</time></trkpt>
<trkpt lat="50.59836580" lon="6.09973300"><ele></ele><time>2014-6-21T20:12:25Z</time></trkpt>
<trkpt lat="50.59816740" lon="6.09805000"><ele></ele><time>2014-6-21T20:12:28Z</time></trkpt>
<trkpt lat="50.59814830" lon="6.09673300"><ele></ele><time>2014-6-21T20:12:31Z</time></trkpt>
<trkpt lat="50.59818270" lon="6.09591600"><ele></ele><time>2014-6-21T20:12:34Z</time></trkpt>
<trkpt lat="50.59801480" lon="6.09543300"><ele></ele><time>2014-6-21T20:12:37Z</time></trkpt>
<trkpt lat="50.59775160" lon="6.09476600"><ele></ele><time>2014-6-21T20:12:40Z</time></trkpt>
<trkpt lat="50.59756850" lon="6.09399900"><ele></ele><time>2014-6-21T20:12:43Z</time></trkpt>
<trkpt lat="50.59686660" lon="6.09105000"><ele></ele><time>2014-6-21T20:12:46Z</time></trkpt>
<trkpt lat="50.59686660" lon="6.08963300"><ele></ele><time>2014-6-21T20:12:49Z</time></trkpt>
<trkpt lat="50.59669880" lon="6.08845000"><ele></ele><time>2014-6-21T20:12:52Z</time></trkpt>
<trkpt lat="50.59680180" lon="6.08775000"><ele></ele><time>2014-6-21T20:12:55Z</time></trkpt>
<trkpt lat="50.59954830" lon="6.08118300"><ele></ele><time>2014-6-21T20:12:58Z</time></trkpt>
<trkpt lat="50.60011670" lon="6.08015000"><ele></ele><time>2014-6-21T20:13:1Z</time></trkpt>
<trkpt lat="50.60025020" lon="6.07941600"><ele></ele><time>2014-6-21T20:13:4Z</time></trkpt>
<trkpt lat="50.60006710" lon="6.07709900"><ele></ele><time>2014-6-21T20:13:7Z</time></trkpt>
<trkpt lat="50.59993360" lon="6.07598300"><ele></ele><time>2014-6-21T20:13:10Z</time></trkpt>
<trkpt lat="50.59953310" lon="6.07573300"><ele></ele><time>2014-6-21T20:13:13Z</time></trkpt>
<trkpt lat="50.59921650" lon="6.07436600"><ele></ele><time>2014-6-21T20:13:16Z</time></trkpt>
<trkpt lat="50.59889980" lon="6.07305000"><ele></ele><time>2014-6-21T20:13:19Z</time></trkpt>
<trkpt lat="50.59880070" lon="6.07271600"><ele></ele><time>2014-6-21T20:13:22Z</time></trkpt>
<trkpt lat="50.59878160" lon="6.07208300"><ele></ele><time>2014-6-21T20:13:25Z</time></trkpt>
<trkpt lat="50.59880070" lon="6.07158300"><ele></ele><time>2014-6-21T20:13:28Z</time></trkpt>
<trkpt lat="50.60034940" lon="6.06888300"><ele></ele><time>2014-6-21T20:13:31Z</time></trkpt>
<trkpt lat="50.60041810" lon="6.06864900"><ele></ele><time>2014-6-21T20:13:34Z</time></trkpt>
<trkpt lat="50.60041810" lon="6.06839900"><ele></ele><time>2014-6-21T20:13:37Z</time></trkpt>
<trkpt lat="50.60075000" lon="6.06759900"><ele></ele><time>2014-6-21T20:13:40Z</time></trkpt>
<trkpt lat="50.60088350" lon="6.06771600"><ele></ele><time>2014-6-21T20:13:43Z</time></trkpt>
<trkpt lat="50.60100170" lon="6.06713300"><ele></ele><time>2014-6-21T20:13:46Z</time></trkpt>
<trkpt lat="50.60106660" lon="6.06671600"><ele></ele><time>2014-6-21T20:13:49Z</time></trkpt>
<trkpt lat="50.60108180" lon="6.06591600"><ele></ele><time>2014-6-21T20:13:52Z</time></trkpt>
<trkpt lat="50.60078430" lon="6.06371600"><ele></ele><time>2014-6-21T20:13:55Z</time></trkpt>
<trkpt lat="50.60028460" lon="6.06230000"><ele></ele><time>2014-6-21T20:13:58Z</time></trkpt>
<trkpt lat="50.60011670" lon="6.06151600"><ele></ele><time>2014-6-21T20:14:1Z</time></trkpt>
<trkpt lat="50.59988400" lon="6.06045000"><ele></ele><time>2014-6-21T20:14:4Z</time></trkpt>
<trkpt lat="50.59931560" lon="6.05985000"><ele></ele><time>2014-6-21T20:14:7Z</time></trkpt>
<trkpt lat="50.59868240" lon="6.05935000"><ele></ele><time>2014-6-21T20:14:10Z</time></trkpt>
<trkpt lat="50.59836580" lon="6.05931600"><ele></ele><time>2014-6-21T20:14:13Z</time></trkpt>
<trkpt lat="50.59806820" lon="6.05876600"><ele></ele><time>2014-6-21T20:14:16Z</time></trkpt>
<trkpt lat="50.59798430" lon="6.05825000"><ele></ele><time>2014-6-21T20:14:19Z</time></trkpt>
<trkpt lat="50.59830090" lon="6.05740000"><ele></ele><time>2014-6-21T20:14:22Z</time></trkpt>
<trkpt lat="50.59844970" lon="6.05711600"><ele></ele><time>2014-6-21T20:14:25Z</time></trkpt>
<trkpt lat="50.59851840" lon="6.05661600"><ele></ele><time>2014-6-21T20:14:28Z</time></trkpt>
<trkpt lat="50.59856800" lon="6.05625000"><ele></ele><time>2014-6-21T20:14:31Z</time></trkpt>
<trkpt lat="50.59865190" lon="6.05595000"><ele></ele><time>2014-6-21T20:14:34Z</time></trkpt>
<trkpt lat="50.59875110" lon="6.05581600"><ele></ele><time>2014-6-21T20:14:37Z</time></trkpt>
<trkpt lat="50.59863280" lon="6.05560000"><ele></ele><time>2014-6-21T20:14:40Z</time></trkpt>
<trkpt lat="50.59836580" lon="6.05576600"><ele></ele><time>2014-6-21T20:14:43Z</time></trkpt>
<trkpt lat="50.59808350" lon="6.05574900"><ele></ele><time>2014-6-21T20:14:46Z</time></trkpt>
<trkpt lat="50.59780120" lon="6.05576600"><ele></ele><time>2014-6-21T20:14:49Z</time></trkpt>
<trkpt lat="50.59751510" lon="6.05585000"><ele></ele><time>2014-6-21T20:14:52Z</time></trkpt>
<trkpt lat="50.59721760" lon="6.05596600"><ele></ele><time>2014-6-21T20:14:55Z</time></trkpt>
<trkpt lat="50.59700010" lon="6.05601600"><ele></ele><time>2014-6-21T20:14:58Z</time></trkpt>
<trkpt lat="50.59664920" lon="6.05613300"><ele></ele><time>2014-6-21T20:15:1Z</time></trkpt>
<trkpt lat="50.59629820" lon="6.05620000"><ele></ele><time>2014-6-21T20:15:4Z</time></trkpt>
<trkpt lat="50.59611510" lon="6.05616600"><ele></ele><time>2014-6-21T20:15:7Z</time></trkpt>
<trkpt lat="50.59568410" lon="6.05604900"><ele></ele><time>2014-6-21T20:15:10Z</time></trkpt>
<trkpt lat="50.59558490" lon="6.05625000"><ele></ele><time>2014-6-21T20:15:13Z</time></trkpt>
<trkpt lat="50.59574890" lon="6.05661600"><ele></ele><time>2014-6-21T20:15:16Z</time></trkpt>
<trkpt lat="50.59588240" lon="6.05711600"><ele></ele><time>2014-6-21T20:15:19Z</time></trkpt>
<trkpt lat="50.59598160" lon="6.05763300"><ele></ele><time>2014-6-21T20:15:22Z</time></trkpt>
<trkpt lat="50.59603500" lon="6.05811600"><ele></ele><time>2014-6-21T20:15:25Z</time></trkpt>
<trkpt lat="50.59579850" lon="6.05805000"><ele></ele><time>2014-6-21T20:15:28Z</time></trkpt>
<trkpt lat="50.59533310" lon="6.05803300"><ele></ele><time>2014-6-21T20:15:31Z</time></trkpt>
<trkpt lat="50.59493260" lon="6.05814900"><ele></ele><time>2014-6-21T20:15:34Z</time></trkpt>
<trkpt lat="50.59448240" lon="6.05826600"><ele></ele><time>2014-6-21T20:15:37Z</time></trkpt>
<trkpt lat="50.59405140" lon="6.05833300"><ele></ele><time>2014-6-21T20:15:40Z</time></trkpt>
<trkpt lat="50.59365080" lon="6.05843300"><ele></ele><time>2014-6-21T20:15:43Z</time></trkpt>
<trkpt lat="50.59343340" lon="6.05853300"><ele></ele><time>2014-6-21T20:15:46Z</time></trkpt>
<trkpt lat="50.59253310" lon="6.05868300"><ele></ele><time>2014-6-21T20:15:49Z</time></trkpt>
<trkpt lat="50.59148410" lon="6.05906600"><ele></ele><time>2014-6-21T20:15:52Z</time></trkpt>
<trkpt lat="50.58921810" lon="6.05994900"><ele></ele><time>2014-6-21T20:15:55Z</time></trkpt>
<trkpt lat="50.58736800" lon="6.06061600"><ele></ele><time>2014-6-21T20:15:58Z</time></trkpt>
<trkpt lat="50.58686830" lon="6.06085000"><ele></ele><time>2014-6-21T20:16:1Z</time></trkpt>
<trkpt lat="50.58038330" lon="6.06339900"><ele></ele><time>2014-6-21T20:16:4Z</time></trkpt>
<trkpt lat="50.57988360" lon="6.06360000"><ele></ele><time>2014-6-21T20:16:7Z</time></trkpt>
<trkpt lat="50.57966610" lon="6.06368300"><ele></ele><time>2014-6-21T20:16:10Z</time></trkpt>
<trkpt lat="50.57899860" lon="6.06271600"><ele></ele><time>2014-6-21T20:16:13Z</time></trkpt>
<trkpt lat="50.57841490" lon="6.06169900"><ele></ele><time>2014-6-21T20:16:16Z</time></trkpt>
<trkpt lat="50.57753370" lon="6.05871600"><ele></ele><time>2014-6-21T20:16:19Z</time></trkpt>
<trkpt lat="50.57704930" lon="6.05616600"><ele></ele><time>2014-6-21T20:16:22Z</time></trkpt>
<trkpt lat="50.57668300" lon="6.05588300"><ele></ele><time>2014-6-21T20:16:25Z</time></trkpt>
<trkpt lat="50.57619860" lon="6.05580000"><ele></ele><time>2014-6-21T20:16:28Z</time></trkpt>
<trkpt lat="50.57478330" lon="6.05228300"><ele></ele><time>2014-6-21T20:16:31Z</time></trkpt>
<trkpt lat="50.57479860" lon="6.05188300"><ele></ele><time>2014-6-21T20:16:34Z</time></trkpt>
<trkpt lat="50.57523350" lon="6.05081600"><ele></ele><time>2014-6-21T20:16:37Z</time></trkpt>
<trkpt lat="50.57531740" lon="6.05035000"><ele></ele><time>2014-6-21T20:16:40Z</time></trkpt>
<trkpt lat="50.57514950" lon="6.04995000"><ele></ele><time>2014-6-21T20:16:43Z</time></trkpt>
<trkpt lat="50.57524870" lon="6.04963300"><ele></ele><time>2014-6-21T20:16:46Z</time></trkpt>
<trkpt lat="50.57550050" lon="6.04881600"><ele></ele><time>2014-6-21T20:16:49Z</time></trkpt>
<trkpt lat="50.57561490" lon="6.04843300"><ele></ele><time>2014-6-21T20:16:52Z</time></trkpt>
<trkpt lat="50.57586670" lon="6.04741600"><ele></ele><time>2014-6-21T20:16:55Z</time></trkpt>
<trkpt lat="50.57596590" lon="6.04708300"><ele></ele><time>2014-6-21T20:16:58Z</time></trkpt>
<trkpt lat="50.57606510" lon="6.04673300"><ele></ele><time>2014-6-21T20:17:1Z</time></trkpt>
<trkpt lat="50.57673260" lon="6.04506600"><ele></ele><time>2014-6-21T20:17:4Z</time></trkpt>
<trkpt lat="50.58003230" lon="6.04265000"><ele></ele><time>2014-6-21T20:17:7Z</time></trkpt>
<trkpt lat="50.58091740" lon="6.04198300"><ele></ele><time>2014-6-21T20:17:10Z</time></trkpt>
<trkpt lat="50.58058170" lon="6.04198300"><ele></ele><time>2014-6-21T20:17:13Z</time></trkpt>
<trkpt lat="50.58174900" lon="6.04168300"><ele></ele><time>2014-6-21T20:17:16Z</time></trkpt>
<trkpt lat="50.58228300" lon="6.04190000"><ele></ele><time>2014-6-21T20:17:19Z</time></trkpt>
<trkpt lat="50.58321760" lon="6.04238300"><ele></ele><time>2014-6-21T20:17:22Z</time></trkpt>
<trkpt lat="50.58408360" lon="6.04266600"><ele></ele><time>2014-6-21T20:17:25Z</time></trkpt>
<trkpt lat="50.58433150" lon="6.04296600"><ele></ele><time>2014-6-21T20:17:28Z</time></trkpt>
<trkpt lat="50.58463290" lon="6.04313300"><ele></ele><time>2014-6-21T20:17:31Z</time></trkpt>
<trkpt lat="50.58491520" lon="6.04343300"><ele></ele><time>2014-6-21T20:17:34Z</time></trkpt>
<trkpt lat="50.58526610" lon="6.04386600"><ele></ele><time>2014-6-21T20:17:37Z</time></trkpt>
<trkpt lat="50.58571620" lon="6.04433300"><ele></ele><time>2014-6-21T20:17:40Z</time></trkpt>
<trkpt lat="50.58616640" lon="6.04478300"><ele></ele><time>2014-6-21T20:17:43Z</time></trkpt>
<trkpt lat="50.58644870" lon="6.04511600"><ele></ele><time>2014-6-21T20:17:46Z</time></trkpt>
<trkpt lat="50.58686830" lon="6.04528300"><ele></ele><time>2014-6-21T20:17:49Z</time></trkpt>
<trkpt lat="50.58713150" lon="6.04563300"><ele></ele><time>2014-6-21T20:17:52Z</time></trkpt>
<trkpt lat="50.58756640" lon="6.04575000"><ele></ele><time>2014-6-21T20:17:55Z</time></trkpt>
<trkpt lat="50.58781810" lon="6.04566600"><ele></ele><time>2014-6-21T20:17:58Z</time></trkpt>
<trkpt lat="50.58796690" lon="6.04543300"><ele></ele><time>2014-6-21T20:18:1Z</time></trkpt>
<trkpt lat="50.58828350" lon="6.04513300"><ele></ele><time>2014-6-21T20:18:4Z</time></trkpt>
<trkpt lat="50.58850100" lon="6.04481600"><ele></ele><time>2014-6-21T20:18:7Z</time></trkpt>
<trkpt lat="50.58871840" lon="6.04454900"><ele></ele><time>2014-6-21T20:18:10Z</time></trkpt>
<trkpt lat="50.58943180" lon="6.04436600"><ele></ele><time>2014-6-21T20:18:13Z</time></trkpt>
<trkpt lat="50.59014890" lon="6.04465000"><ele></ele><time>2014-6-21T20:18:16Z</time></trkpt>
<trkpt lat="50.59114840" lon="6.04541600"><ele></ele><time>2014-6-21T20:18:19Z</time></trkpt>
<trkpt lat="50.59153370" lon="6.04601600"><ele></ele><time>2014-6-21T20:18:22Z</time></trkpt>
<trkpt lat="50.59193420" lon="6.04676600"><ele></ele><time>2014-6-21T20:18:25Z</time></trkpt>
<trkpt lat="50.59223180" lon="6.04720000"><ele></ele><time>2014-6-21T20:18:28Z</time></trkpt>
<trkpt lat="50.59358220" lon="6.04799900"><ele></ele><time>2014-6-21T20:18:31Z</time></trkpt>
<trkpt lat="50.59436800" lon="6.04791600"><ele></ele><time>2014-6-21T20:18:34Z</time></trkpt>
<trkpt lat="50.59471510" lon="6.04761600"><ele></ele><time>2014-6-21T20:18:37Z</time></trkpt>
<trkpt lat="50.59521480" lon="6.04683300"><ele></ele><time>2014-6-21T20:18:40Z</time></trkpt>
<trkpt lat="50.59534840" lon="6.04624900"><ele></ele><time>2014-6-21T20:18:43Z</time></trkpt>
<trkpt lat="50.59593200" lon="6.04363300"><ele></ele><time>2014-6-21T20:18:46Z</time></trkpt>
<trkpt lat="50.59614940" lon="6.04278300"><ele></ele><time>2014-6-21T20:18:49Z</time></trkpt>
<trkpt lat="50.59619900" lon="6.04245000"><ele></ele><time>2014-6-21T20:18:52Z</time></trkpt>
<trkpt lat="50.59716800" lon="6.04216600"><ele></ele><time>2014-6-21T20:18:55Z</time></trkpt>
<trkpt lat="50.59911730" lon="6.04064900"><ele></ele><time>2014-6-21T20:18:58Z</time></trkpt>
<trkpt lat="50.59975050" lon="6.03958300"><ele></ele><time>2014-6-21T20:19:1Z</time></trkpt>
<trkpt lat="50.59996800" lon="6.03888300"><ele></ele><time>2014-6-21T20:19:4Z</time></trkpt>
<trkpt lat="50.60010150" lon="6.03758300"><ele></ele><time>2014-6-21T20:19:7Z</time></trkpt>
<trkpt lat="50.59951780" lon="6.03385000"><ele></ele><time>2014-6-21T20:19:10Z</time></trkpt>
<trkpt lat="50.59941480" lon="6.03224900"><ele></ele><time>2014-6-21T20:19:13Z</time></trkpt>
<trkpt lat="50.59953310" lon="6.03100000"><ele></ele><time>2014-6-21T20:19:16Z</time></trkpt>
<trkpt lat="50.59965130" lon="6.03021600"><ele></ele><time>2014-6-21T20:19:19Z</time></trkpt>
<trkpt lat="50.59988400" lon="6.02938300"><ele></ele><time>2014-6-21T20:19:22Z</time></trkpt>
<trkpt lat="50.60008240" lon="6.02901600"><ele></ele><time>2014-6-21T20:19:25Z</time></trkpt>
<trkpt lat="50.60010150" lon="6.02856600"><ele></ele><time>2014-6-21T20:19:28Z</time></trkpt>
<trkpt lat="50.60018160" lon="6.02845000"><ele></ele><time>2014-6-21T20:19:31Z</time></trkpt>
<trkpt lat="50.59996800" lon="6.02711600"><ele></ele><time>2014-6-21T20:19:34Z</time></trkpt>
<trkpt lat="50.59881590" lon="6.02015000"><ele></ele><time>2014-6-21T20:19:37Z</time></trkpt>
<trkpt lat="50.59803390" lon="6.01806600"><ele></ele><time>2014-6-21T20:19:40Z</time></trkpt>
<trkpt lat="50.59766770" lon="6.01728300"><ele></ele><time>2014-6-21T20:19:43Z</time></trkpt>
<trkpt lat="50.59030150" lon="6.02280000"><ele></ele><time>2014-6-21T20:19:46Z</time></trkpt>
<trkpt lat="50.59013370" lon="6.02236600"><ele></ele><time>2014-6-21T20:19:49Z</time></trkpt>
<trkpt lat="50.58948520" lon="6.01998300"><ele></ele><time>2014-6-21T20:19:52Z</time></trkpt>
<trkpt lat="50.58841710" lon="6.01806600"><ele></ele><time>2014-6-21T20:19:55Z</time></trkpt>
<trkpt lat="50.58815000" lon="6.01758300"><ele></ele><time>2014-6-21T20:19:58Z</time></trkpt>
<trkpt lat="50.58703230" lon="6.01646600"><ele></ele><time>2014-6-21T20:20:1Z</time></trkpt>
<trkpt lat="50.58580020" lon="6.01431600"><ele></ele><time>2014-6-21T20:20:4Z</time></trkpt>
<trkpt lat="50.58528520" lon="6.01109900"><ele></ele><time>2014-6-21T20:20:7Z</time></trkpt>
<trkpt lat="50.58494950" lon="6.01003300"><ele></ele><time>2014-6-21T20:20:10Z</time></trkpt>
<trkpt lat="50.58463290" lon="6.00904900"><ele></ele><time>2014-6-21T20:20:13Z</time></trkpt>
<trkpt lat="50.58453370" lon="6.00866600"><ele></ele><time>2014-6-21T20:20:16Z</time></trkpt>
<trkpt lat="50.58313370" lon="6.00495000"><ele></ele><time>2014-6-21T20:20:19Z</time></trkpt>
<trkpt lat="50.58263400" lon="6.00386600"><ele></ele><time>2014-6-21T20:20:22Z</time></trkpt>
<trkpt lat="50.58209990" lon="6.00321600"><ele></ele><time>2014-6-21T20:20:25Z</time></trkpt>
<trkpt lat="50.58188250" lon="6.00285000"><ele></ele><time>2014-6-21T20:20:28Z</time></trkpt>
<trkpt lat="50.58281710" lon="6.00231600"><ele></ele><time>2014-6-21T20:20:31Z</time></trkpt>
<trkpt lat="50.58318330" lon="6.00186600"><ele></ele><time>2014-6-21T20:20:34Z</time></trkpt>
<trkpt lat="50.58349990" lon="6.00116600"><ele></ele><time>2014-6-21T20:20:37Z</time></trkpt>
<trkpt lat="50.58390050" lon="6.00108300"><ele></ele><time>2014-6-21T20:20:40Z</time></trkpt>
<trkpt lat="50.58638380" lon="6.00365000"><ele></ele><time>2014-6-21T20:20:43Z</time></trkpt>
<trkpt lat="50.58655170" lon="6.00441600"><ele></ele><time>2014-6-21T20:20:46Z</time></trkpt>
<trkpt lat="50.58665080" lon="6.00501600"><ele></ele><time>2014-6-21T20:20:49Z</time></trkpt>
<trkpt lat="50.58713150" lon="6.00540000"><ele></ele><time>2014-6-21T20:20:52Z</time></trkpt>
<trkpt lat="50.58784870" lon="6.00591600"><ele></ele><time>2014-6-21T20:20:55Z</time></trkpt>
<trkpt lat="50.58841710" lon="6.00573300"><ele></ele><time>2014-6-21T20:20:58Z</time></trkpt>
<trkpt lat="50.58879850" lon="6.00519900"><ele></ele><time>2014-6-21T20:21:1Z</time></trkpt>
<trkpt lat="50.58895110" lon="6.00420000"><ele></ele><time>2014-6-21T20:21:4Z</time></trkpt>
<trkpt lat="50.58873370" lon="6.00299900"><ele></ele><time>2014-6-21T20:21:7Z</time></trkpt>
<trkpt lat="50.58723450" lon="6.00059900"><ele></ele><time>2014-6-21T20:21:10Z</time></trkpt>
<trkpt lat="50.58705140" lon="5.99984900"><ele></ele><time>2014-6-21T20:21:13Z</time></trkpt>
<trkpt lat="50.58724980" lon="5.99805000"><ele></ele><time>2014-6-21T20:21:16Z</time></trkpt>
<trkpt lat="50.58721540" lon="5.99380000"><ele></ele><time>2014-6-21T20:21:19Z</time></trkpt>
<trkpt lat="50.58736800" lon="5.99388300"><ele></ele><time>2014-6-21T20:21:22Z</time></trkpt>
<trkpt lat="50.58760070" lon="5.99453300"><ele></ele><time>2014-6-21T20:21:25Z</time></trkpt>
<trkpt lat="50.58773420" lon="5.99485000"><ele></ele><time>2014-6-21T20:21:28Z</time></trkpt>
<trkpt lat="50.58783340" lon="5.99538300"><ele></ele><time>2014-6-21T20:21:31Z</time></trkpt>
<trkpt lat="50.58800130" lon="5.99626600"><ele></ele><time>2014-6-21T20:21:34Z</time></trkpt>
<trkpt lat="50.58808520" lon="5.99646600"><ele></ele><time>2014-6-21T20:21:37Z</time></trkpt>
<trkpt lat="50.58816530" lon="5.99685000"><ele></ele><time>2014-6-21T20:21:40Z</time></trkpt>
<trkpt lat="50.58846660" lon="5.99771600"><ele></ele><time>2014-6-21T20:21:43Z</time></trkpt>
<trkpt lat="50.58855060" lon="5.99835000"><ele></ele><time>2014-6-21T20:21:46Z</time></trkpt>
<trkpt lat="50.58853150" lon="5.99918300"><ele></ele><time>2014-6-21T20:21:49Z</time></trkpt>
<trkpt lat="50.58896640" lon="6.00003300"><ele></ele><time>2014-6-21T20:21:52Z</time></trkpt>
<trkpt lat="50.58981700" lon="6.00091600"><ele></ele><time>2014-6-21T20:21:55Z</time></trkpt>
<trkpt lat="50.59023280" lon="6.00161600"><ele></ele><time>2014-6-21T20:21:58Z</time></trkpt>
<trkpt lat="50.59049990" lon="6.00134900"><ele></ele><time>2014-6-21T20:22:1Z</time></trkpt>
<trkpt lat="50.59091570" lon="6.00148300"><ele></ele><time>2014-6-21T20:22:4Z</time></trkpt>
<trkpt lat="50.59154890" lon="6.00131600"><ele></ele><time>2014-6-21T20:22:7Z</time></trkpt>
<trkpt lat="50.59194950" lon="6.00031600"><ele></ele><time>2014-6-21T20:22:10Z</time></trkpt>
<trkpt lat="50.59185030" lon="5.99933300"><ele></ele><time>2014-6-21T20:22:13Z</time></trkpt>
<trkpt lat="50.59201810" lon="5.99644900"><ele></ele><time>2014-6-21T20:22:16Z</time></trkpt>
<trkpt lat="50.59198380" lon="5.99616600"><ele></ele><time>2014-6-21T20:22:19Z</time></trkpt>
<trkpt lat="50.59209820" lon="5.99575000"><ele></ele><time>2014-6-21T20:22:22Z</time></trkpt>
<trkpt lat="50.59288410" lon="5.99499900"><ele></ele><time>2014-6-21T20:22:25Z</time></trkpt>
<trkpt lat="50.59311680" lon="5.99466600"><ele></ele><time>2014-6-21T20:22:28Z</time></trkpt>
<trkpt lat="50.59308240" lon="5.99356600"><ele></ele><time>2014-6-21T20:22:31Z</time></trkpt>
<trkpt lat="50.59303280" lon="5.99306600"><ele></ele><time>2014-6-21T20:22:34Z</time></trkpt>
<trkpt lat="50.59275050" lon="5.99236600"><ele></ele><time>2014-6-21T20:22:37Z</time></trkpt>
<trkpt lat="50.59235000" lon="5.99168300"><ele></ele><time>2014-6-21T20:22:40Z</time></trkpt>
<trkpt lat="50.59203340" lon="5.99103300"><ele></ele><time>2014-6-21T20:22:43Z</time></trkpt>
<trkpt lat="50.59186550" lon="5.99063300"><ele></ele><time>2014-6-21T20:22:46Z</time></trkpt>
<trkpt lat="50.59163280" lon="5.99016600"><ele></ele><time>2014-6-21T20:22:49Z</time></trkpt>
<trkpt lat="50.59185030" lon="5.98791600"><ele></ele><time>2014-6-21T20:22:52Z</time></trkpt>
<trkpt lat="50.59223180" lon="5.98618300"><ele></ele><time>2014-6-21T20:22:55Z</time></trkpt>
<trkpt lat="50.59248350" lon="5.98538300"><ele></ele><time>2014-6-21T20:22:58Z</time></trkpt>
<trkpt lat="50.59263230" lon="5.98488300"><ele></ele><time>2014-6-21T20:23:1Z</time></trkpt>
<trkpt lat="50.59271620" lon="5.98439900"><ele></ele><time>2014-6-21T20:23:4Z</time></trkpt>
<trkpt lat="50.59249880" lon="5.98363300"><ele></ele><time>2014-6-21T20:23:7Z</time></trkpt>
<trkpt lat="50.59235000" lon="5.98328300"><ele></ele><time>2014-6-21T20:23:10Z</time></trkpt>
<trkpt lat="50.59189990" lon="5.98283300"><ele></ele><time>2014-6-21T20:23:13Z</time></trkpt>
<trkpt lat="50.59140010" lon="5.98193300"><ele></ele><time>2014-6-21T20:23:16Z</time></trkpt>
<trkpt lat="50.59130100" lon="5.98140000"><ele></ele><time>2014-6-21T20:23:19Z</time></trkpt>
<trkpt lat="50.59148410" lon="5.98110000"><ele></ele><time>2014-6-21T20:23:22Z</time></trkpt>
<trkpt lat="50.59336850" lon="5.98098300"><ele></ele><time>2014-6-21T20:23:25Z</time></trkpt>
<trkpt lat="50.59426500" lon="5.98193300"><ele></ele><time>2014-6-21T20:23:28Z</time></trkpt>
<trkpt lat="50.59484860" lon="5.98183300"><ele></ele><time>2014-6-21T20:23:31Z</time></trkpt>
<trkpt lat="50.59524920" lon="5.98019900"><ele></ele><time>2014-6-21T20:23:34Z</time></trkpt>
<trkpt lat="50.59561540" lon="5.97951600"><ele></ele><time>2014-6-21T20:23:37Z</time></trkpt>
<trkpt lat="50.59640120" lon="5.97905000"><ele></ele><time>2014-6-21T20:23:40Z</time></trkpt>
<trkpt lat="50.59741590" lon="5.97976600"><ele></ele><time>2014-6-21T20:23:43Z</time></trkpt>
<trkpt lat="50.59809880" lon="5.97991600"><ele></ele><time>2014-6-21T20:23:46Z</time></trkpt>
<trkpt lat="50.59840010" lon="5.97986600"><ele></ele><time>2014-6-21T20:23:49Z</time></trkpt>
<trkpt lat="50.59880070" lon="5.97984900"><ele></ele><time>2014-6-21T20:23:52Z</time></trkpt>
<trkpt lat="50.59920120" lon="5.97878300"><ele></ele><time>2014-6-21T20:23:55Z</time></trkpt>
<trkpt lat="50.59986500" lon="5.97848300"><ele></ele><time>2014-6-21T20:23:58Z</time></trkpt>
<trkpt lat="50.60018160" lon="5.97806600"><ele></ele><time>2014-6-21T20:24:1Z</time></trkpt>
<trkpt lat="50.60051730" lon="5.97808300"><ele></ele><time>2014-6-21T20:24:4Z</time></trkpt>
<trkpt lat="50.60071560" lon="5.97833300"><ele></ele><time>2014-6-21T20:24:7Z</time></trkpt>
<trkpt lat="50.60039900" lon="5.97908300"><ele></ele><time>2014-6-21T20:24:10Z</time></trkpt>
<trkpt lat="50.60116580" lon="5.98215000"><ele></ele><time>2014-6-21T20:24:13Z</time></trkpt>
<trkpt lat="50.60131840" lon="5.98264900"><ele></ele><time>2014-6-21T20:24:16Z</time></trkpt>
<trkpt lat="50.60136800" lon="5.98351600"><ele></ele><time>2014-6-21T20:24:19Z</time></trkpt>
<trkpt lat="50.60115050" lon="5.98421600"><ele></ele><time>2014-6-21T20:24:22Z</time></trkpt>
<trkpt lat="50.60106660" lon="5.98453300"><ele></ele><time>2014-6-21T20:24:25Z</time></trkpt>
<trkpt lat="50.60123440" lon="5.98488300"><ele></ele><time>2014-6-21T20:24:28Z</time></trkpt>
<trkpt lat="50.60143280" lon="5.98509900"><ele></ele><time>2014-6-21T20:24:31Z</time></trkpt>
<trkpt lat="50.60205080" lon="5.98616600"><ele></ele><time>2014-6-21T20:24:34Z</time></trkpt>
<trkpt lat="50.60228350" lon="5.98653300"><ele></ele><time>2014-6-21T20:24:37Z</time></trkpt>
<trkpt lat="50.60226820" lon="5.98799900"><ele></ele><time>2014-6-21T20:24:40Z</time></trkpt>
<trkpt lat="50.60216520" lon="5.98968300"><ele></ele><time>2014-6-21T20:24:43Z</time></trkpt>
<trkpt lat="50.60206600" lon="5.99025000"><ele></ele><time>2014-6-21T20:24:46Z</time></trkpt>
<trkpt lat="50.60213470" lon="5.99086600"><ele></ele><time>2014-6-21T20:24:49Z</time></trkpt>
<trkpt lat="50.60218430" lon="5.99148300"><ele></ele><time>2014-6-21T20:24:52Z</time></trkpt>
<trkpt lat="50.60221480" lon="5.99184900"><ele></ele><time>2014-6-21T20:24:55Z</time></trkpt>
<trkpt lat="50.60226820" lon="5.99246600"><ele></ele><time>2014-6-21T20:24:58Z</time></trkpt>
<trkpt lat="50.60229870" lon="5.99293300"><ele></ele><time>2014-6-21T20:25:1Z</time></trkpt>
<trkpt lat="50.60229870" lon="5.99345000"><ele></ele><time>2014-6-21T20:25:4Z</time></trkpt>
<trkpt lat="50.60236740" lon="5.99378300"><ele></ele><time>2014-6-21T20:25:7Z</time></trkpt>
<trkpt lat="50.60245130" lon="5.99413300"><ele></ele><time>2014-6-21T20:25:10Z</time></trkpt>
<trkpt lat="50.60286710" lon="5.99499900"><ele></ele><time>2014-6-21T20:25:13Z</time></trkpt>
<trkpt lat="50.60313420" lon="5.99601600"><ele></ele><time>2014-6-21T20:25:16Z</time></trkpt>
<trkpt lat="50.60314940" lon="5.99655000"><ele></ele><time>2014-6-21T20:25:19Z</time></trkpt>
<trkpt lat="50.60318370" lon="5.99704900"><ele></ele><time>2014-6-21T20:25:22Z</time></trkpt>
<trkpt lat="50.60328290" lon="5.99761600"><ele></ele><time>2014-6-21T20:25:25Z</time></trkpt>
<trkpt lat="50.60316850" lon="5.99809900"><ele></ele><time>2014-6-21T20:25:28Z</time></trkpt>
<trkpt lat="50.60296630" lon="5.99821600"><ele></ele><time>2014-6-21T20:25:31Z</time></trkpt>
<trkpt lat="50.60261540" lon="5.99835000"><ele></ele><time>2014-6-21T20:25:34Z</time></trkpt>
<trkpt lat="50.60158160" lon="5.99921600"><ele></ele><time>2014-6-21T20:25:37Z</time></trkpt>
<trkpt lat="50.60116580" lon="5.99988300"><ele></ele><time>2014-6-21T20:25:40Z</time></trkpt>
<trkpt lat="50.60084920" lon="6.00089900"><ele></ele><time>2014-6-21T20:25:43Z</time></trkpt>
<trkpt lat="50.60079960" lon="6.00158300"><ele></ele><time>2014-6-21T20:25:46Z</time></trkpt>
<trkpt lat="50.60116580" lon="6.00215000"><ele></ele><time>2014-6-21T20:25:49Z</time></trkpt>
<trkpt lat="50.60091780" lon="6.00381600"><ele></ele><time>2014-6-21T20:25:52Z</time></trkpt>
<trkpt lat="50.60098270" lon="6.00428300"><ele></ele><time>2014-6-21T20:25:55Z</time></trkpt>
<trkpt lat="50.60098270" lon="6.00479900"><ele></ele><time>2014-6-21T20:25:58Z</time></trkpt>
<trkpt lat="50.60089870" lon="6.00548300"><ele></ele><time>2014-6-21T20:26:1Z</time></trkpt>
<trkpt lat="50.60088350" lon="6.00593300"><ele></ele><time>2014-6-21T20:26:4Z</time></trkpt>
<trkpt lat="50.60094830" lon="6.00641600"><ele></ele><time>2014-6-21T20:26:7Z</time></trkpt>
<trkpt lat="50.60111620" lon="6.00681600"><ele></ele><time>2014-6-21T20:26:10Z</time></trkpt>
<trkpt lat="50.60171510" lon="6.00825000"><ele></ele><time>2014-6-21T20:26:13Z</time></trkpt>
<trkpt lat="50.60183330" lon="6.00875000"><ele></ele><time>2014-6-21T20:26:16Z</time></trkpt>
<trkpt lat="50.60208510" lon="6.00988300"><ele></ele><time>2014-6-21T20:26:19Z</time></trkpt>
<trkpt lat="50.60215000" lon="6.01030000"><ele></ele><time>2014-6-21T20:26:22Z</time></trkpt>
<trkpt lat="50.60223390" lon="6.01076600"><ele></ele><time>2014-6-21T20:26:25Z</time></trkpt>
<trkpt lat="50.60271840" lon="6.01371600"><ele></ele><time>2014-6-21T20:26:28Z</time></trkpt>
<trkpt lat="50.60314940" lon="6.01353300"><ele></ele><time>2014-6-21T20:26:31Z</time></trkpt>
<trkpt lat="50.60356520" lon="6.01213300"><ele></ele><time>2014-6-21T20:26:34Z</time></trkpt>
<trkpt lat="50.60458370" lon="6.01041600"><ele></ele><time>2014-6-21T20:26:37Z</time></trkpt>
<trkpt lat="50.60554890" lon="6.00825000"><ele></ele><time>2014-6-21T20:26:40Z</time></trkpt>
<trkpt lat="50.60598370" lon="6.00728300"><ele></ele><time>2014-6-21T20:26:43Z</time></trkpt>
<trkpt lat="50.60638430" lon="6.00663300"><ele></ele><time>2014-6-21T20:26:46Z</time></trkpt>
<trkpt lat="50.60661700" lon="6.00648300"><ele></ele><time>2014-6-21T20:26:49Z</time></trkpt>
<trkpt lat="50.60681530" lon="6.00576600"><ele></ele><time>2014-6-21T20:26:52Z</time></trkpt>
<trkpt lat="50.60676570" lon="6.00519900"><ele></ele><time>2014-6-21T20:26:55Z</time></trkpt>
<trkpt lat="50.60688400" lon="6.00458300"><ele></ele><time>2014-6-21T20:26:58Z</time></trkpt>
<trkpt lat="50.60723500" lon="6.00436600"><ele></ele><time>2014-6-21T20:27:1Z</time></trkpt>
<trkpt lat="50.60753250" lon="6.00441600"><ele></ele><time>2014-6-21T20:27:4Z</time></trkpt>
<trkpt lat="50.60794830" lon="6.00461600"><ele></ele><time>2014-6-21T20:27:7Z</time></trkpt>
<trkpt lat="50.60820010" lon="6.00438300"><ele></ele><time>2014-6-21T20:27:10Z</time></trkpt>
<trkpt lat="50.60820010" lon="6.00401600"><ele></ele><time>2014-6-21T20:27:13Z</time></trkpt>
<trkpt lat="50.60813520" lon="6.00316600"><ele></ele><time>2014-6-21T20:27:16Z</time></trkpt>
<trkpt lat="50.60831830" lon="6.00241600"><ele></ele><time>2014-6-21T20:27:19Z</time></trkpt>
<trkpt lat="50.60848240" lon="6.00161600"><ele></ele><time>2014-6-21T20:27:22Z</time></trkpt>
<trkpt lat="50.60866550" lon="6.00118300"><ele></ele><time>2014-6-21T20:27:25Z</time></trkpt>
<trkpt lat="50.60908510" lon="6.00118300"><ele></ele><time>2014-6-21T20:27:28Z</time></trkpt>
<trkpt lat="50.60924910" lon="6.00171600"><ele></ele><time>2014-6-21T20:27:31Z</time></trkpt>
<trkpt lat="50.60919950" lon="6.00211600"><ele></ele><time>2014-6-21T20:27:34Z</time></trkpt>
<trkpt lat="50.60928340" lon="6.00271600"><ele></ele><time>2014-6-21T20:27:37Z</time></trkpt>
</trkseg></trk></gpx>